[[{"header":{"parameterUnit":"m.s-1","parameterCategory":1,"la1":31.0,"la2":29.5877,"lo1":-88.7671,"lo2":-86.6584,"dy":0.0162,"dx":0.0185,"nx":115,"ny":88,"refTime":"2023-02-23T18:00:00:Z","depth":0,"parameterNumber":2,"parameterNumberName":"U-component_of_WINDS"},"data":[0.0,0.0,0.0,0.0,0.0,0.0,0.0,0.0,0.0,0.0,0.0,0.0,0.0,0.0,0.0,0.0,0.0,0.0,0.0,0.0,0.0,0.0,0.0,0.0,0.0,0.0,0.0,0.0,0.0,0.0,0.0,0.0,0.0,0.0,0.0,0.0,0.0,0.0,0.0,0.0,0.0,0.0,0.0,0.0,0.0,0.0,0.0,0.0,0.0,0.0,0.0,0.0,0.0,0.0,0.0,0.0,0.0,0.0,0.0,0.0,0.0,0.0,0.0,0.0,0.0,0.0,0.0,0.0,0.0,0.0,0.0,0.0,0.0,0.0,0.0,0.0,0.0,0.0,0.0,0.0,0.0,0.0,0.0,0.0,0.0,0.0,0.0,0.0,0.0,0.0,0.0,0.0,0.0,0.0,0.0,0.0,0.0,0.0,0.0,0.0,0.0,0.0,0.0,0.0,0.0,0.0,0.0,0.0,0.0,0.0,0.0,0.0,0.0,0.0,0.0,0.0,0.0,0.0,0.0,0.0,0.0,0.0,0.0,0.0,0.0,0.0,0.0,0.0,0.0,0.0,0.0,0.0,0.0,0.0,0.0,0.0,0.0,0.0,0.0,0.0,0.0,0.0,0.0,0.0,0.0,0.0,0.0,0.0,0.0,0.0,0.0,0.0,0.0,0.0,0.0,0.0,0.0,0.0,0.0,0.0,0.0,0.0,0.0,0.0,0.0,0.0,0.0,0.0,0.0,0.0,0.0,0.0,0.0,0.0,0.0,0.0,0.0,0.0,0.0,0.0,0.0,0.0,0.0,0.0,0.0,0.0,0.0,0.0,0.0,0.0,0.0,0.0,0.0,0.0,0.0,0.0,0.0,0.0,0.0,0.0,0.0,0.0,0.0,0.0,0.0,0.0,0.0,0.0,0.0,0.0,0.0,0.0,0.0,0.0,0.0,0.0,0.0,0.0,0.0,0.0,0.0,0.0,0.0,0.0,0.0,0.0,0.0,0.0,0.0,0.0,0.0,0.0,0.0,0.0,0.0,0.0,0.0,0.0,0.0,0.0,0.0,0.0,0.0,0.0,0.0,0.0,0.0,0.0,0.0,0.0,0.0,0.0,0.0,0.0,0.0,0.0,0.0,0.0,0.0,0.0,0.0,0.0,0.0,0.0,0.0,0.0,0.0,0.0,0.0,0.0,0.0,0.0,0.0,0.0,0.0,0.0,0.0,0.0,0.0,0.0,0.0,0.0,0.0,0.0,0.0,0.0,0.0,0.0,0.0,0.0,0.0,0.0,0.0,0.0,0.0,0.0,0.0,0.0,0.0,0.0,0.0,0.0,0.0,0.0,0.0,0.0,0.0,0.0,0.0,0.0,0.0,0.0,0.0,0.0,0.0,0.0,0.0,0.0,0.0,0.0,0.0,0.0,0.0,0.0,0.0,0.0,0.0,0.0,0.0,0.0,0.0,0.0,0.0,0.0,0.0,0.0,0.0,0.0,0.0,0.0,0.0,0.0,0.0,0.0,0.0,0.0,0.0,0.0,0.0,0.0,0.0,0.0,0.0,0.0,0.0,0.0,0.0,0.0,0.0,0.0,0.0,0.0,0.0,0.0,0.0,0.0,0.0,0.0,0.0,0.0,0.0,0.0,0.0,0.0,0.0,0.0,0.0,0.0,0.0,0.0,0.0,0.0,0.0,0.0,0.0,0.0,0.0,0.0,0.0,0.0,0.0,0.0,0.0,0.0,0.0,0.0,0.0,0.0,0.0,0.0,0.0,0.0,0.0,0.0,0.0,0.0,0.0,0.0,0.0,0.0,0.0,0.0,0.0,0.0,0.0,0.0,0.0,0.0,0.0,0.0,0.0,0.0,0.0,0.0,0.0,0.0,0.0,0.0,0.0,0.0,0.0,0.0,0.0,0.0,0.0,0.0,0.0,0.0,0.0,0.0,0.0,0.0,0.0,0.0,0.0,0.0,0.0,0.0,0.0,0.0,0.0,0.0,0.0,0.0,0.0,0.0,0.0,0.0,0.0,0.0,0.0,0.0,0.0,0.0,0.0,0.0,0.0,0.0,0.0,0.0,0.0,0.0,0.0,0.0,0.0,0.0,0.0,0.0,0.0,0.0,0.0,0.0,0.0,0.0,0.0,0.0,0.0,0.0,0.0,0.0,0.0,0.0,0.0,0.0,0.0,0.0,0.0,0.0,0.0,0.0,0.0,0.0,0.0,0.0,0.0,0.0,0.0,0.0,0.0,0.0,0.0,0.0,0.0,0.0,0.0,0.0,0.0,0.0,0.0,0.0,0.0,0.0,0.0,0.0,0.0,0.0,0.0,0.0,0.0,0.0,0.0,0.0,0.0,0.0,0.0,0.0,0.0,0.0,0.0,0.0,0.0,0.0,0.0,0.0,0.0,0.0,0.0,0.0,0.0,0.0,0.0,0.0,0.0,0.0,0.0,0.0,0.0,0.0,0.0,0.0,0.0,0.0,0.0,0.0,0.0,0.0,0.0,0.0,0.0,0.0,0.0,0.0,0.0,0.0,0.0,0.0,0.0,0.0,0.0,0.0,0.0,0.0,0.0,0.0,0.0,0.0,0.0,0.0,0.0,0.0,0.0,0.0,0.0,0.0,0.0,0.0,0.0,0.0,0.0,0.0,0.0,0.0,0.0,0.0,0.0,0.0,0.0,0.0,0.0,0.0,0.0,0.0,0.0,0.0,0.0,0.0,0.0,0.0,0.0,0.0,0.0,0.0,0.0,0.0,0.0,0.0,0.0,0.0,0.0,0.0,0.0,0.0,0.0,0.0,0.0,0.0,0.0,0.0,0.0,0.0,0.0,0.0,0.0,0.0,0.0,0.0,0.0,0.0,0.0,0.0,0.0,0.0,0.0,0.0,0.0,0.0,0.0,0.0,0.0,0.0,0.0,0.0,0.0,0.0,0.0,0.0,0.0,0.0,0.0,0.0,0.0,0.0,0.0,0.0,0.0,0.0,0.0,0.0,0.0,0.0,0.0,0.0,0.0,0.0,0.0,0.0,0.0,0.0,0.0,0.0,0.0,0.0,0.0,0.0,0.0,0.0,0.0,0.0,0.0,0.0,0.0,0.0,0.0,0.0,0.0,0.0,0.0,0.0,0.0,0.0,0.0,0.0,0.0,0.0,0.0,0.0,0.0,0.0,0.0,0.0,0.0,0.0,0.0,0.0,0.0,0.0,0.0,0.0,0.0,0.0,0.0,0.0,0.0,0.0,0.0,0.0,0.0,0.0,0.0,0.0,0.0,0.0,0.0,0.0,0.0,0.0,0.0,0.0,0.0,0.0,0.0,0.0,0.0,0.0,0.0,0.0,0.0,0.0,0.0,0.0,0.0,0.0,0.0,0.0,0.0,0.0,0.0,0.0,0.0,0.0,0.0,0.0,0.0,0.0,0.0,0.0,0.0,0.0,0.0,0.0,0.0,0.0,0.0,0.0,0.0,0.0,0.0,0.0,0.0,0.0,0.0,0.0,0.0,0.0,0.0,0.0,0.0,0.0,0.0,0.0,0.0,0.0,0.0,0.0,0.0,0.0,0.0,0.0,0.0,0.0,0.0,0.0,0.0,0.0,0.0,0.0,0.0,0.0,0.0,0.0,0.0,0.0,0.0,0.0,0.0,0.0,0.0,0.0,0.0,0.0,0.0,0.0,0.0,0.0,0.0,0.0,0.0,0.0,0.0,0.0,0.0,0.0,0.0,0.0,0.0,0.0,0.0,0.0,0.0,0.0,0.0,0.0,0.0,0.0,0.0,0.0,0.0,0.0,0.0,0.0,0.0,0.0,0.0,0.0,0.0,0.0,0.0,0.0,0.0,0.0,0.0,0.0,0.0,0.0,0.0,0.0,0.0,0.0,0.0,0.0,0.0,0.0,0.0,0.0,0.0,0.0,0.0,0.0,0.0,0.0,0.0,0.0,0.0,0.0,0.0,0.0,0.0,0.0,0.0,0.0,0.0,0.0,0.0,0.0,0.0,0.0,0.0,0.0,0.0,0.0,0.0,0.0,0.0,0.0,0.0,0.0,0.0,0.0,0.0,0.0,0.0,0.0,0.0,0.0,0.0,0.0,0.0,0.0,0.0,0.0,0.0,0.0,0.0,0.0,0.0,0.0,0.0,0.0,0.0,0.0,0.0,0.0,0.0,0.0,0.0,0.0,0.0,0.0,0.0,0.0,0.0,0.0,0.0,0.0,0.0,0.0,0.0,0.0,0.0,0.0,0.0,0.0,0.0,0.0,0.0,0.0,-7.8511,0.0,0.0,0.0,0.0,0.0,0.0,0.0,0.0,0.0,0.0,0.0,0.0,0.0,0.0,0.0,0.0,0.0,0.0,0.0,0.0,0.0,0.0,0.0,0.0,0.0,0.0,0.0,0.0,0.0,0.0,0.0,0.0,0.0,0.0,0.0,0.0,0.0,0.0,0.0,0.0,0.0,0.0,0.0,0.0,0.0,0.0,0.0,0.0,0.0,0.0,0.0,0.0,0.0,0.0,0.0,0.0,0.0,0.0,0.0,0.0,0.0,0.0,0.0,0.0,0.0,0.0,0.0,0.0,0.0,0.0,0.0,0.0,0.0,0.0,0.0,0.0,0.0,0.0,0.0,0.0,0.0,0.0,0.0,0.0,0.0,0.0,0.0,0.0,0.0,0.0,0.0,0.0,0.0,0.0,0.0,0.0,0.0,0.0,0.0,0.0,0.0,0.0,0.0,0.0,0.0,0.0,0.0,0.0,0.0,0.0,-7.8511,-7.8511,-7.8511,-7.8511,-7.8511,0.0,0.0,0.0,0.0,0.0,0.0,0.0,0.0,0.0,0.0,0.0,0.0,0.0,0.0,0.0,0.0,0.0,0.0,0.0,0.0,0.0,0.0,0.0,0.0,0.0,0.0,0.0,0.0,0.0,0.0,0.0,0.0,0.0,0.0,0.0,0.0,0.0,0.0,0.0,0.0,0.0,0.0,0.0,0.0,0.0,0.0,0.0,0.0,0.0,0.0,0.0,0.0,0.0,0.0,0.0,0.0,0.0,0.0,0.0,0.0,0.0,0.0,0.0,0.0,0.0,0.0,0.0,0.0,0.0,0.0,0.0,0.0,0.0,0.0,0.0,0.0,0.0,0.0,0.0,0.0,0.0,0.0,0.0,0.0,0.0,0.0,0.0,0.0,0.0,0.0,0.0,0.0,0.0,0.0,0.0,0.0,0.0,0.0,0.0,0.0,0.0,0.0,0.0,0.0,0.0,0.0,0.0,0.0,0.0,0.0,0.0,0.0,-7.8511,-7.8511,-7.8511,0.0,0.0,0.0,0.0,0.0,0.0,0.0,0.0,0.0,0.0,0.0,0.0,0.0,0.0,0.0,0.0,0.0,0.0,0.0,0.0,0.0,0.0,0.0,0.0,0.0,0.0,0.0,0.0,0.0,0.0,0.0,0.0,0.0,0.0,0.0,0.0,0.0,0.0,0.0,0.0,0.0,0.0,0.0,0.0,0.0,0.0,0.0,0.0,0.0,0.0,0.0,0.0,0.0,0.0,0.0,0.0,0.0,0.0,0.0,0.0,0.0,0.0,0.0,0.0,0.0,0.0,0.0,0.0,0.0,0.0,0.0,0.0,0.0,0.0,0.0,0.0,0.0,0.0,0.0,0.0,0.0,0.0,0.0,0.0,0.0,0.0,0.0,0.0,0.0,0.0,0.0,0.0,0.0,0.0,0.0,0.0,0.0,0.0,0.0,0.0,0.0,0.0,0.0,0.0,0.0,0.0,0.0,0.0,0.0,0.0,-7.8511,-7.8511,-7.8511,0.0,-7.8511,0.0,0.0,0.0,0.0,0.0,0.0,0.0,0.0,0.0,0.0,0.0,0.0,0.0,0.0,0.0,0.0,0.0,0.0,0.0,0.0,0.0,0.0,0.0,0.0,0.0,0.0,0.0,0.0,0.0,0.0,0.0,0.0,0.0,0.0,0.0,0.0,0.0,0.0,0.0,0.0,0.0,0.0,0.0,0.0,0.0,0.0,0.0,0.0,0.0,0.0,0.0,0.0,0.0,0.0,0.0,0.0,0.0,0.0,0.0,0.0,0.0,0.0,0.0,0.0,0.0,0.0,0.0,0.0,0.0,0.0,0.0,0.0,0.0,0.0,0.0,0.0,0.0,0.0,0.0,0.0,0.0,0.0,0.0,0.0,0.0,0.0,0.0,0.0,0.0,0.0,0.0,0.0,0.0,0.0,0.0,0.0,0.0,0.0,0.0,0.0,0.0,0.0,0.0,0.0,0.0,0.0,0.0,0.0,0.0,0.0,-7.8511,-7.8511,-7.8511,-7.8511,0.0,0.0,0.0,0.0,0.0,0.0,0.0,0.0,0.0,0.0,0.0,0.0,0.0,0.0,0.0,0.0,0.0,0.0,0.0,0.0,0.0,0.0,0.0,0.0,0.0,0.0,0.0,0.0,0.0,0.0,0.0,0.0,0.0,0.0,0.0,0.0,0.0,0.0,0.0,0.0,0.0,0.0,0.0,0.0,0.0,0.0,0.0,0.0,0.0,0.0,0.0,0.0,0.0,0.0,0.0,0.0,0.0,0.0,0.0,0.0,0.0,0.0,0.0,0.0,0.0,0.0,0.0,0.0,0.0,0.0,0.0,0.0,0.0,0.0,0.0,0.0,0.0,0.0,0.0,0.0,0.0,0.0,0.0,0.0,0.0,0.0,0.0,0.0,0.0,0.0,0.0,0.0,0.0,0.0,0.0,0.0,0.0,0.0,0.0,0.0,0.0,0.0,0.0,0.0,0.0,0.0,0.0,0.0,0.0,0.0,-7.8511,-7.8511,-7.8511,-7.8511,-7.8511,-7.8511,0.0,0.0,0.0,0.0,0.0,0.0,0.0,0.0,0.0,0.0,0.0,0.0,0.0,0.0,0.0,0.0,0.0,0.0,0.0,0.0,0.0,0.0,0.0,0.0,0.0,0.0,0.0,0.0,0.0,0.0,0.0,0.0,0.0,0.0,0.0,0.0,0.0,0.0,0.0,0.0,0.0,0.0,0.0,0.0,0.0,0.0,0.0,0.0,0.0,0.0,0.0,0.0,0.0,0.0,0.0,0.0,0.0,0.0,0.0,0.0,0.0,0.0,0.0,0.0,0.0,0.0,0.0,0.0,0.0,0.0,0.0,0.0,0.0,0.0,0.0,0.0,0.0,0.0,0.0,0.0,0.0,0.0,0.0,0.0,0.0,0.0,0.0,0.0,0.0,0.0,0.0,0.0,0.0,0.0,0.0,0.0,0.0,0.0,0.0,0.0,0.0,0.0,0.0,0.0,0.0,0.0,0.0,0.0,-7.8511,-7.8511,-7.8511,-7.8511,-7.8511,-7.8511,0.0,0.0,0.0,0.0,0.0,0.0,0.0,0.0,0.0,0.0,0.0,0.0,0.0,0.0,0.0,0.0,0.0,0.0,0.0,0.0,0.0,0.0,0.0,0.0,0.0,0.0,0.0,0.0,0.0,0.0,0.0,0.0,0.0,0.0,0.0,0.0,0.0,0.0,0.0,0.0,0.0,0.0,0.0,0.0,0.0,0.0,0.0,0.0,0.0,0.0,0.0,0.0,0.0,0.0,0.0,0.0,0.0,0.0,0.0,0.0,0.0,0.0,0.0,0.0,0.0,0.0,0.0,0.0,0.0,0.0,0.0,0.0,0.0,0.0,0.0,0.0,0.0,0.0,0.0,0.0,0.0,0.0,0.0,0.0,0.0,0.0,0.0,0.0,0.0,0.0,0.0,0.0,0.0,0.0,0.0,0.0,0.0,0.0,0.0,0.0,0.0,0.0,0.0,0.0,0.0,0.0,0.0,0.0,0.0,-7.8511,-7.8511,-7.8511,-7.8511,-7.8511,-7.8511,0.0,0.0,0.0,0.0,0.0,0.0,0.0,0.0,0.0,0.0,0.0,0.0,0.0,0.0,0.0,0.0,0.0,0.0,0.0,0.0,0.0,0.0,0.0,0.0,0.0,0.0,0.0,0.0,0.0,0.0,0.0,0.0,0.0,0.0,0.0,0.0,0.0,0.0,0.0,0.0,0.0,0.0,0.0,0.0,0.0,0.0,0.0,0.0,0.0,0.0,0.0,0.0,0.0,0.0,0.0,0.0,0.0,0.0,0.0,0.0,0.0,0.0,0.0,0.0,0.0,0.0,0.0,0.0,0.0,0.0,0.0,0.0,0.0,0.0,0.0,0.0,0.0,0.0,0.0,0.0,0.0,0.0,0.0,0.0,0.0,0.0,0.0,0.0,0.0,0.0,0.0,0.0,0.0,0.0,0.0,0.0,0.0,0.0,0.0,0.0,0.0,0.0,0.0,0.0,0.0,0.0,0.0,0.0,0.0,-7.8511,0.0,-7.8511,-7.8511,-7.8511,-7.8511,0.0,0.0,0.0,0.0,0.0,0.0,0.0,0.0,0.0,0.0,0.0,0.0,0.0,0.0,0.0,0.0,0.0,0.0,0.0,0.0,0.0,0.0,0.0,0.0,0.0,0.0,0.0,0.0,0.0,0.0,0.0,0.0,0.0,0.0,0.0,0.0,0.0,0.0,0.0,0.0,0.0,0.0,0.0,0.0,0.0,0.0,0.0,0.0,0.0,0.0,0.0,0.0,0.0,0.0,0.0,0.0,0.0,0.0,0.0,0.0,0.0,0.0,0.0,0.0,0.0,0.0,0.0,0.0,0.0,0.0,0.0,0.0,0.0,0.0,0.0,0.0,0.0,0.0,0.0,0.0,0.0,0.0,0.0,0.0,0.0,0.0,0.0,0.0,0.0,0.0,0.0,0.0,0.0,0.0,0.0,0.0,0.0,0.0,0.0,0.0,0.0,0.0,0.0,0.0,0.0,0.0,0.0,0.0,-7.8511,-7.8511,-7.8511,-7.8511,-7.8511,-7.8511,-7.8511,0.0,0.0,0.0,0.0,0.0,0.0,0.0,0.0,0.0,0.0,0.0,0.0,0.0,0.0,0.0,0.0,0.0,0.0,0.0,0.0,0.0,0.0,0.0,0.0,0.0,0.0,0.0,0.0,0.0,0.0,0.0,0.0,0.0,0.0,0.0,0.0,0.0,0.0,0.0,0.0,0.0,0.0,0.0,0.0,0.0,0.0,0.0,0.0,0.0,0.0,0.0,0.0,0.0,0.0,0.0,0.0,0.0,0.0,0.0,0.0,0.0,0.0,0.0,0.0,0.0,0.0,0.0,0.0,0.0,0.0,0.0,0.0,0.0,0.0,0.0,0.0,0.0,0.0,0.0,0.0,0.0,0.0,0.0,0.0,0.0,0.0,0.0,0.0,0.0,0.0,0.0,0.0,0.0,0.0,0.0,0.0,0.0,0.0,0.0,0.0,0.0,0.0,0.0,0.0,0.0,0.0,0.0,0.0,0.0,-7.8511,-7.8511,-7.8511,-7.8511,-7.8511,-7.8511,0.0,0.0,0.0,0.0,0.0,0.0,0.0,0.0,0.0,0.0,0.0,0.0,0.0,0.0,0.0,0.0,0.0,0.0,0.0,0.0,0.0,0.0,0.0,0.0,0.0,0.0,0.0,0.0,0.0,0.0,0.0,0.0,0.0,0.0,0.0,0.0,0.0,0.0,0.0,0.0,0.0,0.0,0.0,0.0,0.0,0.0,0.0,0.0,0.0,0.0,0.0,0.0,0.0,0.0,0.0,0.0,0.0,0.0,0.0,0.0,0.0,0.0,0.0,0.0,0.0,0.0,0.0,0.0,0.0,0.0,0.0,0.0,0.0,0.0,0.0,0.0,0.0,0.0,0.0,0.0,0.0,0.0,0.0,0.0,0.0,0.0,0.0,0.0,0.0,0.0,0.0,0.0,0.0,0.0,0.0,0.0,0.0,0.0,0.0,0.0,0.0,0.0,0.0,0.0,0.0,0.0,0.0,0.0,0.0,-7.8511,-7.8511,-7.8511,-7.8511,-7.8511,-7.8511,-7.8511,0.0,0.0,0.0,0.0,0.0,0.0,0.0,0.0,0.0,0.0,0.0,0.0,0.0,0.0,0.0,0.0,0.0,0.0,0.0,0.0,0.0,0.0,0.0,0.0,0.0,0.0,0.0,0.0,0.0,0.0,0.0,0.0,0.0,0.0,0.0,0.0,0.0,0.0,0.0,0.0,0.0,0.0,0.0,0.0,0.0,0.0,0.0,0.0,0.0,0.0,0.0,0.0,0.0,0.0,0.0,0.0,0.0,0.0,0.0,0.0,0.0,0.0,0.0,0.0,0.0,0.0,0.0,0.0,0.0,0.0,0.0,0.0,0.0,0.0,0.0,0.0,0.0,0.0,0.0,0.0,0.0,0.0,0.0,0.0,0.0,0.0,0.0,0.0,0.0,0.0,0.0,0.0,0.0,0.0,0.0,0.0,0.0,0.0,0.0,0.0,0.0,0.0,0.0,0.0,0.0,0.0,0.0,0.0,-7.8511,-7.8511,-7.8511,-7.8511,-7.8511,-7.8511,0.0,0.0,0.0,0.0,0.0,0.0,0.0,0.0,0.0,0.0,0.0,0.0,0.0,0.0,0.0,0.0,0.0,0.0,0.0,0.0,0.0,0.0,0.0,0.0,0.0,0.0,0.0,0.0,0.0,0.0,0.0,0.0,0.0,0.0,0.0,0.0,0.0,0.0,0.0,0.0,0.0,0.0,0.0,0.0,0.0,0.0,0.0,0.0,0.0,0.0,0.0,0.0,0.0,0.0,0.0,0.0,0.0,0.0,0.0,0.0,0.0,0.0,0.0,0.0,0.0,0.0,0.0,0.0,0.0,0.0,0.0,0.0,0.0,0.0,0.0,0.0,0.0,0.0,0.0,0.0,0.0,0.0,0.0,0.0,0.0,0.0,0.0,0.0,0.0,0.0,0.0,0.0,0.0,0.0,0.0,0.0,0.0,0.0,0.0,0.0,0.0,0.0,0.0,0.0,0.0,0.0,0.0,0.0,0.0,-7.8511,-7.8511,-7.8511,-7.8511,-7.8511,-7.8511,0.0,0.0,0.0,0.0,0.0,0.0,0.0,0.0,0.0,0.0,0.0,0.0,0.0,0.0,0.0,0.0,0.0,0.0,0.0,0.0,0.0,0.0,0.0,0.0,0.0,0.0,0.0,0.0,0.0,0.0,0.0,0.0,0.0,0.0,0.0,0.0,0.0,0.0,0.0,0.0,0.0,0.0,0.0,0.0,0.0,0.0,0.0,0.0,0.0,0.0,0.0,0.0,0.0,0.0,0.0,0.0,0.0,0.0,0.0,0.0,0.0,0.0,0.0,0.0,0.0,0.0,0.0,0.0,0.0,0.0,0.0,0.0,0.0,0.0,0.0,0.0,0.0,0.0,0.0,0.0,0.0,0.0,0.0,0.0,0.0,0.0,0.0,0.0,0.0,0.0,0.0,0.0,0.0,0.0,0.0,0.0,0.0,0.0,0.0,0.0,0.0,0.0,0.0,0.0,0.0,0.0,0.0,0.0,-7.8511,-7.8511,-7.8511,-7.8511,-7.8511,-7.8511,-7.8511,0.0,0.0,0.0,0.0,0.0,0.0,0.0,0.0,0.0,0.0,0.0,0.0,0.0,0.0,0.0,0.0,0.0,0.0,0.0,0.0,0.0,0.0,0.0,0.0,0.0,0.0,0.0,0.0,0.0,0.0,0.0,0.0,0.0,0.0,0.0,0.0,0.0,0.0,0.0,0.0,0.0,0.0,0.0,0.0,0.0,0.0,0.0,0.0,0.0,0.0,0.0,0.0,0.0,0.0,0.0,0.0,0.0,0.0,0.0,0.0,0.0,0.0,0.0,0.0,0.0,0.0,0.0,0.0,0.0,0.0,0.0,0.0,0.0,0.0,0.0,0.0,0.0,0.0,0.0,0.0,0.0,0.0,0.0,0.0,0.0,0.0,0.0,0.0,0.0,0.0,0.0,0.0,0.0,0.0,0.0,0.0,0.0,0.0,0.0,0.0,0.0,0.0,0.0,0.0,0.0,0.0,0.0,0.0,-7.8511,-7.8511,-7.8511,-7.8511,-7.8511,-7.8511,-7.8511,0.0,0.0,0.0,0.0,0.0,0.0,0.0,0.0,0.0,0.0,0.0,0.0,0.0,0.0,0.0,0.0,0.0,0.0,0.0,0.0,0.0,0.0,0.0,0.0,0.0,0.0,0.0,0.0,0.0,0.0,0.0,0.0,0.0,0.0,0.0,0.0,0.0,0.0,0.0,0.0,0.0,0.0,0.0,0.0,0.0,0.0,0.0,0.0,0.0,0.0,0.0,0.0,0.0,0.0,0.0,0.0,0.0,0.0,0.0,0.0,0.0,0.0,0.0,0.0,0.0,0.0,0.0,0.0,0.0,0.0,0.0,0.0,0.0,0.0,0.0,0.0,0.0,0.0,0.0,0.0,0.0,0.0,0.0,0.0,0.0,0.0,0.0,0.0,0.0,0.0,0.0,0.0,0.0,0.0,0.0,0.0,0.0,0.0,0.0,0.0,0.0,0.0,0.0,0.0,0.0,0.0,0.0,0.0,-7.8511,-7.8511,-7.8511,-7.8511,-7.8511,-7.8511,-7.8511,0.0,0.0,0.0,0.0,0.0,0.0,0.0,0.0,0.0,0.0,0.0,0.0,0.0,0.0,0.0,0.0,0.0,0.0,0.0,0.0,0.0,0.0,0.0,0.0,0.0,0.0,0.0,0.0,0.0,0.0,0.0,0.0,0.0,0.0,0.0,0.0,0.0,0.0,0.0,0.0,0.0,0.0,0.0,0.0,0.0,0.0,0.0,0.0,-7.6523,0.0,0.0,0.0,0.0,0.0,0.0,0.0,0.0,0.0,0.0,0.0,0.0,0.0,0.0,0.0,0.0,0.0,0.0,0.0,0.0,0.0,0.0,0.0,0.0,0.0,0.0,0.0,0.0,0.0,0.0,0.0,0.0,0.0,0.0,0.0,0.0,0.0,0.0,0.0,0.0,0.0,0.0,0.0,0.0,0.0,0.0,0.0,0.0,0.0,0.0,0.0,0.0,0.0,0.0,0.0,0.0,0.0,0.0,0.0,-7.8511,-7.8511,-7.8511,-7.8511,-7.8511,-7.8511,-7.8511,0.0,0.0,0.0,0.0,0.0,0.0,0.0,0.0,0.0,0.0,0.0,0.0,0.0,0.0,0.0,0.0,0.0,0.0,0.0,0.0,0.0,0.0,0.0,0.0,0.0,0.0,0.0,0.0,0.0,0.0,0.0,0.0,0.0,0.0,0.0,0.0,0.0,0.0,0.0,0.0,0.0,0.0,0.0,0.0,0.0,0.0,0.0,0.0,0.0,0.0,0.0,0.0,0.0,0.0,0.0,0.0,0.0,0.0,0.0,0.0,0.0,0.0,0.0,0.0,0.0,0.0,0.0,0.0,0.0,0.0,0.0,0.0,0.0,0.0,0.0,0.0,0.0,0.0,0.0,0.0,0.0,0.0,0.0,0.0,0.0,0.0,0.0,0.0,0.0,0.0,0.0,0.0,0.0,0.0,0.0,0.0,0.0,0.0,0.0,0.0,0.0,0.0,0.0,0.0,0.0,0.0,0.0,-7.8511,-7.8564,-7.8511,-7.8511,-7.8511,-7.8511,-7.8511,-7.8511,-7.8511,0.0,0.0,0.0,0.0,0.0,0.0,0.0,0.0,0.0,0.0,0.0,0.0,0.0,0.0,0.0,0.0,0.0,0.0,0.0,0.0,0.0,0.0,0.0,0.0,0.0,0.0,0.0,0.0,0.0,0.0,0.0,0.0,0.0,0.0,0.0,0.0,0.0,0.0,-7.5993,-7.5993,0.0,0.0,0.0,0.0,0.0,0.0,0.0,0.0,-7.5098,0.0,0.0,0.0,0.0,0.0,0.0,0.0,0.0,0.0,0.0,0.0,0.0,0.0,0.0,0.0,0.0,0.0,0.0,0.0,0.0,0.0,0.0,0.0,0.0,0.0,0.0,0.0,0.0,0.0,0.0,0.0,0.0,0.0,0.0,0.0,0.0,0.0,0.0,0.0,0.0,0.0,0.0,0.0,0.0,0.0,0.0,0.0,0.0,0.0,0.0,0.0,0.0,0.0,0.0,0.0,0.0,-7.8511,-7.8724,-7.8724,-7.8511,-7.8724,-7.8724,-7.8511,-7.8511,-7.8511,-7.8511,0.0,0.0,0.0,0.0,0.0,0.0,0.0,0.0,0.0,0.0,0.0,0.0,0.0,0.0,0.0,0.0,0.0,0.0,0.0,0.0,0.0,0.0,0.0,0.0,0.0,0.0,0.0,0.0,0.0,0.0,0.0,0.0,0.0,0.0,0.0,0.0,0.0,0.0,0.0,-7.4553,-7.4469,0.0,0.0,0.0,0.0,0.0,0.0,0.0,0.0,-7.4686,0.0,0.0,0.0,0.0,0.0,0.0,0.0,0.0,0.0,0.0,0.0,0.0,0.0,0.0,0.0,0.0,0.0,0.0,0.0,0.0,0.0,0.0,0.0,0.0,0.0,0.0,0.0,0.0,0.0,0.0,0.0,0.0,0.0,0.0,0.0,0.0,0.0,0.0,0.0,0.0,0.0,0.0,0.0,0.0,0.0,0.0,0.0,0.0,0.0,0.0,0.0,0.0,0.0,0.0,0.0,-7.8511,-7.8617,-7.8617,-7.8511,-7.8617,-7.8617,-7.8511,-7.8511,-7.8511,0.0,0.0,0.0,0.0,0.0,0.0,0.0,0.0,0.0,0.0,0.0,0.0,0.0,0.0,0.0,0.0,0.0,0.0,0.0,0.0,0.0,0.0,0.0,0.0,0.0,0.0,0.0,0.0,0.0,0.0,0.0,0.0,0.0,0.0,0.0,0.0,0.0,0.0,0.0,0.0,-7.4221,-7.4221,-7.4221,0.0,0.0,0.0,0.0,0.0,0.0,-7.4221,-7.4354,0.0,0.0,0.0,0.0,0.0,0.0,0.0,0.0,0.0,0.0,0.0,0.0,0.0,0.0,0.0,0.0,0.0,0.0,0.0,0.0,0.0,0.0,0.0,0.0,0.0,0.0,0.0,0.0,0.0,0.0,0.0,0.0,0.0,0.0,0.0,0.0,0.0,0.0,0.0,0.0,0.0,0.0,0.0,0.0,0.0,0.0,0.0,0.0,0.0,0.0,0.0,0.0,0.0,0.0,0.0,-7.8511,-7.8564,-7.8564,-7.8511,-7.8564,-7.8564,-7.8511,-7.8511,-7.8511,0.0,0.0,0.0,0.0,0.0,0.0,0.0,0.0,0.0,0.0,0.0,0.0,0.0,0.0,0.0,0.0,0.0,0.0,0.0,0.0,0.0,0.0,0.0,0.0,0.0,0.0,0.0,0.0,0.0,0.0,0.0,0.0,0.0,0.0,0.0,0.0,0.0,0.0,0.0,0.0,0.0,-7.4221,-7.4221,-7.4221,0.0,0.0,0.0,0.0,-7.4221,-7.4221,0.0,0.0,0.0,0.0,0.0,0.0,0.0,0.0,0.0,0.0,0.0,0.0,0.0,0.0,0.0,0.0,0.0,0.0,0.0,0.0,0.0,0.0,0.0,0.0,0.0,0.0,0.0,0.0,0.0,0.0,0.0,0.0,0.0,0.0,0.0,0.0,0.0,0.0,0.0,0.0,0.0,0.0,0.0,0.0,0.0,0.0,0.0,0.0,0.0,0.0,0.0,0.0,0.0,0.0,0.0,0.0,-7.8511,-7.8724,-7.8724,-7.8511,-7.8724,-7.8691,-7.8511,-7.8511,-7.8511,0.0,0.0,0.0,0.0,0.0,0.0,0.0,0.0,0.0,0.0,0.0,0.0,0.0,0.0,0.0,0.0,0.0,0.0,0.0,0.0,0.0,0.0,0.0,0.0,0.0,0.0,0.0,0.0,0.0,0.0,0.0,0.0,0.0,0.0,0.0,0.0,0.0,0.0,0.0,0.0,0.0,-7.4221,-7.4221,-7.4221,-7.4221,0.0,0.0,-7.4221,-7.4221,-7.4221,0.0,0.0,0.0,0.0,0.0,0.0,0.0,0.0,0.0,0.0,0.0,0.0,0.0,0.0,0.0,0.0,0.0,0.0,0.0,0.0,0.0,0.0,0.0,0.0,0.0,0.0,0.0,0.0,0.0,0.0,0.0,0.0,0.0,0.0,0.0,0.0,0.0,0.0,0.0,0.0,0.0,0.0,0.0,0.0,0.0,0.0,0.0,0.0,0.0,0.0,0.0,0.0,0.0,0.0,0.0,-7.8511,-7.8511,-7.8617,-7.8617,-7.8511,-7.8617,-7.8617,-7.8511,-7.8511,-7.8511,0.0,0.0,0.0,0.0,0.0,0.0,0.0,0.0,0.0,0.0,0.0,0.0,0.0,0.0,0.0,0.0,0.0,0.0,0.0,0.0,0.0,0.0,0.0,0.0,0.0,0.0,0.0,0.0,0.0,0.0,0.0,0.0,0.0,0.0,0.0,0.0,0.0,0.0,0.0,0.0,0.0,0.0,-7.4221,-7.4221,0.0,0.0,0.0,-7.4221,-7.4221,0.0,0.0,0.0,0.0,0.0,0.0,0.0,0.0,0.0,0.0,0.0,0.0,0.0,0.0,0.0,0.0,0.0,0.0,0.0,0.0,0.0,0.0,0.0,0.0,0.0,0.0,0.0,0.0,0.0,0.0,0.0,0.0,0.0,0.0,0.0,0.0,0.0,0.0,0.0,0.0,0.0,0.0,0.0,0.0,0.0,0.0,0.0,0.0,0.0,0.0,0.0,0.0,0.0,0.0,0.0,0.0,0.0,-7.8511,-7.8511,-7.8444,-7.8246,-7.8246,-7.8246,-7.8246,-7.8047,0.0,0.0,0.0,0.0,0.0,0.0,0.0,0.0,0.0,0.0,0.0,0.0,0.0,0.0,0.0,0.0,0.0,0.0,0.0,0.0,0.0,0.0,0.0,0.0,0.0,0.0,0.0,-7.5827,0.0,0.0,0.0,0.0,0.0,0.0,0.0,0.0,0.0,0.0,0.0,0.0,0.0,0.0,-7.4221,-7.4221,-7.4221,-7.4221,0.0,0.0,-7.4322,-7.4372,-7.4573,-7.4573,0.0,0.0,0.0,0.0,0.0,0.0,0.0,0.0,0.0,0.0,0.0,0.0,0.0,0.0,0.0,0.0,0.0,0.0,0.0,0.0,0.0,0.0,0.0,0.0,0.0,0.0,0.0,0.0,0.0,0.0,0.0,0.0,0.0,0.0,0.0,0.0,0.0,0.0,0.0,0.0,0.0,0.0,0.0,0.0,0.0,0.0,0.0,0.0,0.0,0.0,0.0,0.0,0.0,0.0,0.0,-7.8511,-7.8511,-7.8179,-7.7517,-7.7484,-7.7484,-7.7484,-7.6821,-7.6788,0.0,0.0,0.0,0.0,0.0,0.0,0.0,0.0,0.0,0.0,0.0,0.0,0.0,0.0,0.0,0.0,0.0,0.0,0.0,0.0,0.0,0.0,0.0,0.0,0.0,0.0,0.0,0.0,0.0,0.0,0.0,0.0,0.0,0.0,0.0,0.0,0.0,0.0,0.0,0.0,0.0,-7.4221,-7.4221,-7.4221,-7.4272,0.0,0.0,-7.4705,-7.4919,-7.4968,-7.487,-7.4656,0.0,0.0,0.0,0.0,0.0,0.0,0.0,0.0,0.0,0.0,0.0,0.0,0.0,0.0,0.0,0.0,0.0,0.0,0.0,0.0,0.0,0.0,0.0,0.0,0.0,0.0,0.0,0.0,0.0,0.0,0.0,0.0,0.0,0.0,0.0,0.0,0.0,0.0,0.0,0.0,0.0,0.0,0.0,0.0,0.0,0.0,0.0,0.0,0.0,0.0,0.0,0.0,0.0,-7.7848,-7.7848,-7.7384,-7.702,-7.6755,-7.6722,-7.6722,-7.6722,-7.6457,-7.6457,0.0,0.0,0.0,0.0,0.0,0.0,0.0,0.0,0.0,0.0,0.0,0.0,0.0,0.0,0.0,0.0,0.0,0.0,0.0,0.0,0.0,0.0,0.0,0.0,0.0,0.0,0.0,0.0,-7.4387,-7.4221,-7.4221,0.0,0.0,0.0,0.0,0.0,0.0,0.0,0.0,0.0,0.0,-7.4221,-7.4221,-7.4322,0.0,0.0,-7.4722,-7.4903,-7.4968,-7.5115,-7.5115,-7.487,-7.4968,0.0,0.0,0.0,0.0,0.0,0.0,0.0,0.0,0.0,0.0,0.0,0.0,0.0,0.0,0.0,0.0,0.0,0.0,0.0,0.0,0.0,0.0,0.0,0.0,0.0,0.0,0.0,0.0,0.0,0.0,0.0,0.0,0.0,0.0,0.0,0.0,0.0,0.0,0.0,0.0,0.0,0.0,0.0,0.0,0.0,0.0,0.0,0.0,0.0,0.0,0.0,0.0,-7.7318,-7.7086,-7.6556,-7.6192,-7.5993,-7.5993,-7.5993,-7.5993,-7.5794,-7.5761,0.0,0.0,0.0,0.0,0.0,0.0,0.0,0.0,0.0,0.0,0.0,0.0,0.0,0.0,0.0,0.0,0.0,0.0,0.0,0.0,0.0,0.0,0.0,0.0,0.0,0.0,0.0,0.0,-7.4221,-7.4221,-7.4221,0.0,0.0,0.0,0.0,0.0,0.0,0.0,0.0,0.0,0.0,-7.4221,-7.4322,-7.4473,-7.4622,-7.4771,-7.4968,-7.5115,-7.5179,-7.5325,-7.5373,-7.5131,0.0,0.0,0.0,0.0,0.0,0.0,0.0,0.0,0.0,0.0,0.0,0.0,0.0,0.0,0.0,0.0,0.0,0.0,0.0,0.0,0.0,0.0,0.0,0.0,0.0,0.0,0.0,-7.8511,0.0,0.0,-7.8511,0.0,0.0,0.0,0.0,0.0,0.0,0.0,0.0,0.0,0.0,0.0,0.0,0.0,0.0,0.0,0.0,0.0,0.0,0.0,0.0,0.0,0.0,-7.702,-7.6357,-7.6291,-7.596,-7.533,-7.5349,-7.5297,-7.5264,-7.4652,-7.4619,-7.5264,0.0,0.0,0.0,0.0,0.0,0.0,0.0,0.0,0.0,0.0,0.0,0.0,0.0,0.0,0.0,0.0,0.0,0.0,0.0,0.0,0.0,0.0,0.0,0.0,0.0,0.0,-7.4221,-7.4221,-7.4221,0.0,0.0,0.0,0.0,0.0,0.0,0.0,0.0,0.0,0.0,-7.4221,-7.4322,-7.4556,-7.4606,-7.4771,-7.5179,-7.5277,-7.5373,-7.5662,-7.5709,-7.5614,0.0,0.0,0.0,0.0,0.0,0.0,0.0,0.0,0.0,0.0,0.0,0.0,0.0,0.0,0.0,0.0,0.0,0.0,0.0,0.0,0.0,0.0,0.0,0.0,0.0,0.0,0.0,-7.7351,-7.7782,0.0,0.0,0.0,0.0,0.0,0.0,0.0,0.0,0.0,0.0,0.0,-7.7782,-7.7782,0.0,0.0,0.0,0.0,0.0,0.0,0.0,0.0,0.0,0.0,0.0,0.0,-7.586,-7.5595,-7.5132,-7.4767,-7.4586,-7.4535,-7.4586,-7.4586,-7.4303,-7.4321,-7.4586,0.0,0.0,0.0,0.0,0.0,0.0,0.0,0.0,0.0,0.0,0.0,0.0,0.0,0.0,0.0,0.0,0.0,0.0,0.0,0.0,0.0,0.0,0.0,0.0,0.0,-7.4221,0.0,0.0,0.0,0.0,0.0,0.0,0.0,0.0,0.0,0.0,0.0,-7.4221,-7.4221,-7.4322,-7.4506,-7.4606,-7.487,-7.5131,0.0,0.0,0.0,0.0,0.0,0.0,0.0,0.0,0.0,0.0,0.0,0.0,0.0,0.0,-7.5407,-7.5067,-7.5051,-7.5018,-7.5179,0.0,0.0,0.0,0.0,0.0,0.0,0.0,0.0,0.0,0.0,0.0,0.0,0.0,0.0,-7.6589,0.0,-7.702,0.0,0.0,0.0,0.0,0.0,0.0,0.0,0.0,-7.7749,-7.7484,-7.7053,-7.702,-7.6788,0.0,-7.6291,-7.6821,0.0,0.0,0.0,0.0,0.0,0.0,0.0,0.0,-7.5183,-7.49,-7.4453,-7.4221,-7.4221,-7.4221,-7.4221,-7.4221,-7.4221,-7.4221,-7.4221,-7.4221,-7.4221,0.0,0.0,0.0,0.0,0.0,0.0,0.0,0.0,0.0,0.0,0.0,0.0,0.0,0.0,0.0,0.0,0.0,0.0,0.0,0.0,0.0,0.0,0.0,-7.4221,0.0,0.0,0.0,0.0,0.0,0.0,0.0,0.0,0.0,-7.4221,-7.4221,-7.4221,-7.4322,-7.4506,-7.4656,-7.4821,0.0,0.0,0.0,0.0,0.0,0.0,0.0,-7.5608,-7.5371,-7.554,-7.5676,-7.5676,-7.5676,-7.5676,-7.5676,0.0,0.0,-7.531,-7.5228,-7.5277,-7.5422,-7.547,-7.5614,-7.6101,-7.6253,-7.6485,0.0,0.0,0.0,0.0,0.0,0.0,0.0,0.0,-7.6225,-7.6225,0.0,-7.6258,0.0,0.0,0.0,0.0,-7.6324,-7.6357,0.0,0.0,-7.6357,-7.6324,-7.6291,-7.6291,-7.6258,-7.6258,-7.6192,-7.6225,-7.6225,-7.6225,0.0,0.0,0.0,0.0,0.0,0.0,-7.49,-7.4255,-7.4221,-7.4221,-7.4221,-7.4221,-7.4221,-7.4221,-7.4221,-7.4221,-7.4221,-7.4221,-7.4221,-7.4221,-7.4221,0.0,0.0,0.0,0.0,0.0,0.0,0.0,0.0,0.0,0.0,0.0,0.0,0.0,0.0,0.0,0.0,0.0,0.0,0.0,0.0,-7.4221,0.0,0.0,0.0,0.0,0.0,0.0,0.0,0.0,0.0,0.0,-7.4221,-7.4221,-7.4322,-7.4556,0.0,0.0,0.0,0.0,-7.5388,-7.5594,-7.5642,-7.5405,-7.4695,-7.5168,-7.5371,-7.4695,0.0,0.0,-7.5608,-7.5608,-7.5574,-7.5608,-7.554,-7.5608,-7.5574,-7.556,-7.5662,-7.5709,-7.5757,-7.6054,-7.6895,-7.7219,-7.7711,-7.5725,0.0,0.0,0.0,0.0,-7.5205,-7.5105,-7.5054,-7.4869,-7.5098,-7.5595,-7.5562,0.0,0.0,0.0,0.0,0.0,0.0,-7.6291,-7.6291,-7.6291,-7.6059,-7.5562,-7.5562,-7.5297,-7.48,-7.48,-7.4767,-7.4767,-7.4767,-7.5065,-7.5562,0.0,0.0,0.0,0.0,-7.442,-7.4221,-7.4221,-7.4221,-7.4221,-7.4221,-7.4221,-7.4221,-7.4221,-7.4221,-7.4221,-7.4221,-7.4221,-7.4221,-7.4221,0.0,0.0,0.0,0.0,0.0,0.0,0.0,0.0,0.0,0.0,0.0,0.0,0.0,0.0,0.0,0.0,0.0,0.0,0.0,-7.4221,-7.4221,-7.4221,0.0,0.0,0.0,0.0,0.0,0.0,0.0,0.0,0.0,-7.4423,-7.4473,-7.4523,0.0,0.0,-7.5131,-7.5277,-7.547,-7.5411,-7.4999,-7.4931,0.0,-7.3916,-7.3984,-7.4052,-7.3849,-7.3984,-7.4119,-7.4119,-7.4119,-7.4119,-7.4119,-7.4119,-7.4119,-7.4187,-7.4999,-7.5608,-7.5723,-7.6241,-7.6759,-7.7041,-7.7624,-7.8189,-7.5614,-7.547,-7.5373,-7.5179,-7.4968,-7.4722,-7.4556,-7.4423,-7.4272,-7.4487,-7.4833,-7.4833,-7.5065,-7.5463,-7.5463,0.0,0.0,0.0,-7.5463,-7.5463,-7.5463,-7.5231,-7.4867,-7.4833,-7.4602,-7.4221,-7.4221,-7.4221,-7.4221,-7.4221,-7.4453,-7.4884,0.0,0.0,-7.4221,-7.4221,-7.4221,-7.4221,-7.4221,-7.4221,-7.4221,-7.3906,-7.3608,-7.3343,-7.3608,-7.374,-7.374,-7.4038,-7.4221,-7.4221,-7.4221,-7.4221,0.0,0.0,0.0,0.0,0.0,0.0,0.0,0.0,0.0,0.0,0.0,-7.4221,0.0,0.0,0.0,0.0,-7.4221,-7.4221,-7.4221,-7.4221,0.0,0.0,0.0,0.0,0.0,0.0,0.0,-7.4322,-7.4372,-7.4373,-7.4272,-7.4386,-7.4536,-7.4837,-7.4862,-7.4888,-7.4984,0.0,-7.4661,-7.4221,-7.4153,-7.3916,-7.3172,-7.3308,-7.3477,-7.3477,-7.3477,-7.3477,-7.3477,-7.3477,-7.3477,-7.3477,-7.3477,-7.3477,-7.3477,-7.45,-7.5216,-7.489,-7.5263,-7.5776,-7.61,-7.6857,-7.7568,-7.5642,-7.5709,-7.5422,-7.5228,-7.5018,-7.4722,-7.4506,-7.4272,-7.4221,-7.4221,-7.4221,-7.4221,-7.4221,-7.4221,-7.4221,0.0,-7.4221,-7.4221,-7.4221,-7.4221,-7.4221,-7.4221,-7.4221,-7.4221,-7.4221,-7.4221,-7.4221,-7.4221,-7.4221,-7.4221,-7.4221,-7.4221,-7.4221,-7.4221,-7.4221,-7.4105,-7.4155,-7.4122,-7.4005,-7.4056,-7.4005,-7.3376,-7.268,-7.2051,-7.268,-7.3011,-7.3045,-7.3641,-7.4056,-7.4005,-7.4005,-7.4089,-7.4122,0.0,0.0,0.0,0.0,0.0,0.0,0.0,0.0,0.0,0.0,0.0,0.0,0.0,0.0,0.0,-7.4221,0.0,-7.4221,-7.4221,0.0,0.0,0.0,-7.4221,-7.4272,-7.4272,-7.4339,-7.4506,0.0,0.0,-7.3782,-7.397,-7.4383,-7.5056,-7.4599,-7.4208,-7.4478,-7.395,-7.3477,-7.3409,-7.3409,-7.3138,-7.2462,-7.28,-7.3172,-7.3172,-7.3308,-7.3206,-7.3206,-7.324,-7.3274,-7.3206,-7.3308,-7.3274,-7.3274,-7.3877,-7.4233,-7.3446,-7.3764,-7.4172,-7.5094,-7.5977,-7.6816,-7.5202,-7.5676,-7.5614,-7.5566,-7.5518,-7.5115,-7.487,-7.4771,-7.4372,-7.4221,-7.4221,-7.4221,-7.4221,-7.4221,-7.4221,-7.4221,-7.4221,-7.4221,-7.4221,-7.4221,-7.4221,-7.4221,-7.4221,-7.4221,-7.4221,-7.4221,-7.4221,-7.4221,-7.4221,-7.4221,-7.4221,-7.4221,-7.4221,-7.4221,-7.4138,-7.3641,-7.3376,-7.3343,-7.2813,-7.2515,-7.2515,-7.2349,-7.2183,-7.2018,-7.2183,-7.2283,-7.2283,-7.2415,-7.2515,-7.2515,-7.2515,-7.2746,-7.3343,-7.2813,0.0,0.0,0.0,0.0,0.0,0.0,0.0,0.0,0.0,-7.4221,-7.4221,0.0,-7.4221,0.0,-7.4221,-7.4221,-7.4221,-7.4221,0.0,0.0,-7.4473,-7.4606,-7.4771,-7.4821,-7.4587,-7.4067,-7.4001,-7.383,-7.3332,-7.3326,-7.3487,-7.3891,-7.3756,-7.3701,-7.3747,-7.3612,-7.3274,-7.2766,-7.2665,-7.2394,-7.1785,-7.1718,-7.1887,-7.1819,-7.1853,-7.1819,-7.1819,-7.1853,-7.1853,-7.1819,-7.1853,-7.1853,-7.1853,-7.1999,-7.2089,-7.2067,-7.4279,-7.6517,-7.6753,-7.7439,-7.8099,-7.4559,-7.5202,-7.5202,-7.5357,-7.5518,-7.5164,-7.487,-7.4622,-7.4322,-7.4221,-7.4221,-7.4221,-7.4221,-7.4221,-7.4221,-7.4221,-7.4221,-7.4221,-7.4221,-7.4221,-7.4221,-7.4221,-7.4221,-7.4221,-7.4221,-7.4221,-7.4221,-7.4221,-7.4188,-7.384,-7.3707,-7.3674,-7.3376,-7.321,-7.321,-7.3144,-7.2945,-7.2614,-7.2216,-7.1852,-7.1521,-7.1521,-7.1355,-7.1024,-7.1355,-7.1521,-7.1521,-7.1819,-7.2018,-7.2018,-7.2018,-7.2183,-7.2581,-7.225,-7.2183,0.0,0.0,0.0,0.0,0.0,0.0,0.0,0.0,0.0,0.0,0.0,-7.4221,-7.4221,-7.4221,-7.4221,-7.4221,-7.4322,-7.4423,-7.4606,-7.4372,-7.4319,-7.4466,-7.4165,-7.3845,-7.3539,-7.3472,-7.3298,-7.2873,-7.2772,-7.273,-7.2563,-7.2529,-7.2631,-7.2902,-7.2766,-7.236,-7.1988,-7.1921,-7.1819,-7.1345,-7.1312,-7.1312,-7.1312,-7.1312,-7.1312,-7.1312,-7.1312,-7.1312,-7.1312,-7.1312,-7.1312,-7.1312,-7.1634,-7.183,-7.2193,-7.3938,-7.5462,-7.5301,-7.6217,-7.7091,-7.3781,-7.4458,-7.4559,-7.4823,-7.5142,-7.5048,-7.4722,-7.4272,-7.4221,-7.4221,-7.4221,-7.4221,-7.4221,-7.4221,-7.4221,-7.4221,-7.4221,-7.4221,-7.4221,-7.4221,-7.4221,-7.4221,-7.4221,-7.4221,-7.4221,-7.4221,-7.4221,-7.4188,-7.4056,-7.3409,-7.3078,-7.2945,-7.2316,-7.1951,-7.1885,-7.2515,-7.2515,-7.1885,-7.1852,-7.1554,-7.0924,-7.0991,-7.0693,-6.9997,-7.056,-7.0858,-7.0759,-7.1388,-7.172,-7.172,-7.172,-7.1753,-7.1852,-7.1786,-7.1753,0.0,-7.1786,0.0,0.0,0.0,0.0,0.0,0.0,0.0,0.0,-7.4221,-7.4221,-7.4221,-7.4122,-7.4038,-7.4038,-7.4223,-7.4306,-7.4322,-7.4001,-7.3744,-7.3759,-7.3189,-7.2882,-7.3003,-7.3016,-7.284,-7.2315,-7.2259,-7.1988,-7.1515,-7.1447,-7.165,-7.2056,-7.1785,-7.1413,-7.1312,-7.1312,-7.1379,-7.1312,-7.1312,-7.1312,-7.1312,-7.1312,-7.1312,-7.1312,-7.1312,-7.1312,-7.1312,-7.1312,-7.1312,-7.1312,-7.1873,-7.2279,-7.227,-7.306,-7.3547,-7.3223,-7.4213,-7.5045,-7.3037,-7.3747,-7.4356,-7.4553,-7.445,-7.4847,-7.4821,-7.4506,-7.4272,-7.4221,-7.4221,-7.4221,-7.4221,-7.4221,-7.4221,-7.4221,-7.4221,-7.4221,-7.4221,-7.4221,-7.4221,-7.4221,-7.4221,-7.4221,-7.4221,-7.4221,-7.4221,-7.3873,-7.331,-7.3177,-7.2813,-7.2216,-7.2084,-7.1686,-7.1156,0.0,0.0,0.0,-7.1123,-7.1057,-7.0924,-7.1488,-7.1421,-7.0726,-7.0825,0.0,-7.0063,-7.0129,-7.0229,-7.0229,-7.0229,0.0,0.0,0.0,0.0,0.0,0.0,0.0,0.0,0.0,0.0,0.0,-7.1985,-7.2912,-7.4089,-7.4221,-7.4221,-7.4188,-7.3641,-7.331,-7.331,-7.3027,-7.2904,-7.3031,-7.317,-7.3339,-7.3493,-7.3405,-7.3181,-7.2573,-7.2505,-7.2281,-7.1639,-7.1515,-7.1481,-7.1345,-7.1312,-7.1345,-7.1515,-7.1413,-7.1312,-7.1312,-7.1312,-7.1312,-7.1312,-7.1312,-7.1312,-7.1312,-7.1312,-7.1312,-7.1312,-7.1312,-7.1312,-7.1312,-7.1312,-7.1312,-7.1312,-7.1412,-7.16,-7.1546,-7.2228,-7.2914,-7.3442,-7.4376,-7.5118,-7.2293,-7.2969,-7.3202,-7.3588,0.0,-7.4217,-7.4289,-7.4372,-7.4272,-7.4221,-7.4221,-7.4221,-7.4221,-7.4221,-7.4221,-7.4221,-7.4221,-7.4221,-7.4221,-7.4221,-7.4221,-7.4221,-7.4221,-7.4221,-7.4221,-7.4188,-7.3807,-7.3475,-7.3111,-7.2746,-7.2382,-7.2018,-7.2018,-7.1819,-7.1455,-7.1455,-7.1256,-7.0891,-7.1256,-7.1455,-7.1455,-7.1455,-7.1289,-7.0891,-7.056,0.0,0.0,0.0,0.0,0.0,0.0,0.0,0.0,-7.014,0.0,-7.0328,-7.0234,-7.0129,-6.9988,-7.0415,-7.0828,-7.1084,-7.1636,-7.2316,-7.3045,-7.3111,-7.3111,-7.3078,-7.278,-7.263,-7.2745,-7.2607,-7.2663,-7.2834,-7.2847,-7.2831,-7.2902,-7.2631,-7.2293,-7.1954,-7.1853,-7.1718,-7.1345,-7.1312,-7.1312,-7.1312,-7.1312,-7.1312,-7.1312,-7.1312,-7.1312,-7.1312,-7.1312,-7.1312,-7.1312,-7.1312,-7.1312,-7.1312,-7.1312,-7.1312,-7.1312,-7.1312,-7.1312,-7.1312,-7.1312,-7.1312,-7.1356,-7.16,-7.1873,-7.196,-7.2575,-7.32,-7.376,-7.4489,-7.5227,-7.165,-7.2179,-7.2052,-7.2559,-7.351,-7.3487,-7.3758,-7.4221,0.0,0.0,0.0,-7.4221,-7.4221,-7.4221,-7.4221,-7.4221,-7.4221,-7.4221,-7.4221,-7.4221,-7.4221,-7.4221,-7.4221,-7.4221,-7.4221,-7.4188,-7.3575,-7.3243,-7.3078,-7.2481,-7.2117,-7.2018,-7.2018,-7.2018,-7.2018,-7.2117,-7.1885,-7.1355,-7.1885,-7.2183,-7.2183,-7.172,-7.1421,-7.1322,-7.0693,-7.0328,-7.0196,-7.0196,-7.0129,-6.9997,-6.9997,-6.9931,-6.9798,-7.0035,-7.0082,-6.9893,-7.0236,-7.0456,-7.027,-7.041,-7.0597,-7.1028,-7.1386,-7.172,-7.1951,-7.2018,-7.2018,-7.2018,-7.1885,-7.1917,-7.2159,-7.2248,-7.2418,-7.2687,-7.2426,-7.2191,-7.2157,-7.1718,-7.1379,-7.1312,-7.1345,-7.1312,-7.1312,-7.1312,-7.1312,-7.1312,-7.1312,-7.1312,-7.1312,-7.1312,-7.1312,-7.1312,-7.1312,-7.1312,-7.1312,-7.1481,-7.1481,-7.1582,-7.165,-7.1684,-7.1684,-7.1718,-7.1718,-7.1819,-7.1718,-7.1842,-7.1953,-7.2526,-7.287,-7.2912,-7.3584,-7.4221,-7.4299,-7.4879,-7.5621,-7.1379,-7.147,-7.1816,-7.2128,-7.2304,-7.3135,-7.3725,-7.4188,-7.4221,-7.4221,-7.4221,-7.4221,-7.4221,-7.4221,-7.4221,-7.4221,-7.4221,-7.4221,-7.4221,-7.4221,-7.4221,-7.4221,-7.4221,-7.4221,-7.4221,-7.4221,-7.4072,-7.3707,-7.3144,-7.2978,-7.2647,-7.2084,-7.2018,-7.2018,-7.2051,-7.2647,-7.2912,-7.2813,-7.2912,-7.2945,-7.2945,-7.3442,-7.3409,-7.2813,-7.268,-7.2349,-7.172,-7.1686,-7.1388,-7.0792,-7.0726,-7.0461,-6.9831,-7.0068,-7.0176,-7.0129,-7.041,-7.0469,-7.0423,-7.0316,-7.0196,-7.0026,-7.003,-7.0626,-7.1885,-7.2018,-7.2018,-7.1985,-7.1421,-7.1154,-7.1361,-7.1111,-7.101,-7.124,-7.1413,-7.1481,-7.1515,-7.1413,-7.1312,-7.1312,-7.1312,-7.1312,-7.1312,-7.1312,-7.1312,-7.1312,-7.1515,-7.1379,-7.1447,-7.1312,-7.1312,-7.1312,-7.1312,-7.1312,-7.1515,-7.1887,-7.2191,-7.2259,-7.2732,-7.3003,-7.2969,-7.3003,-7.3003,-7.3105,-7.3037,-7.3357,-7.3915,-7.4377,-7.4369,-7.442,-7.5142,-7.578,-7.579,-7.645,-7.6692,-7.1052,-7.1074,-7.1056,-7.1239,-7.1707,-7.2825,-7.3376,-7.3641,-7.4005,-7.4221,-7.4221,-7.4221,-7.4221,-7.4221,-7.4221,-7.4221,-7.4221,-7.4221,-7.4221,-7.4221,-7.4221,-7.4221,-7.4221,-7.4221,-7.4221,-7.4138,-7.3773,-7.3442,-7.3111,-7.3111,-7.2912,-7.2647,-7.2978,-7.3177,-7.321,-7.3508,-7.3707,-7.3674,-7.3674,-7.3674,-7.3674,-7.3608,-7.3442,-7.3111,-7.2746,-7.2349,-7.2018,-7.2018,-7.1852,-7.1521,-7.1488,-7.1355,-7.1024,-7.1232,-7.1161,-7.0619,-7.0884,-7.0857,-7.0363,-7.0223,-7.0129,-7.0035,-6.9893,-7.0111,-7.0951,-7.0921,-7.084,-7.0984,-7.0685,-7.0676,-7.1051,-7.0888,-7.0825,-7.1052,-7.1222,-7.1312,-7.1312,-7.1312,-7.1312,-7.1312,-7.1312,-7.1312,-7.1312,-7.1312,-7.1481,-7.1819,-7.2191,-7.2462,-7.2462,-7.2496,-7.2326,-7.2022,-7.2225,-7.2462,-7.2496,-7.2732,-7.2969,-7.3003,-7.324,-7.3443,-7.3477,-7.3523,-7.3523,-7.3477,-7.3523,-7.3661,-7.4172,-7.4503,-7.4896,-7.5506,-7.6238,-7.6869,-7.7401,-7.7845,-7.7811,-7.0825,-7.0779,-7.0363,-7.0562,-7.128,-7.2215,-7.2713,-7.2912,-7.3608,-7.3939,-7.3939,-7.4105,-7.4221,-7.4221,-7.4221,-7.4221,-7.4221,-7.4221,-7.4221,-7.4221,-7.4221,-7.4221,-7.4221,-7.4221,-7.4221,-7.4155,-7.3608,-7.3343,-7.3343,-7.3343,-7.3343,-7.3409,-7.3906,-7.4221,-7.4221,-7.4221,-7.4221,-7.4221,-7.4221,-7.4221,-7.4188,-7.3608,-7.3343,-7.331,-7.2813,-7.2515,-7.2481,-7.2515,-7.2415,-7.2283,-7.225,-7.2183,-7.2018,-7.2262,-7.2045,-7.1368,-7.1604,-7.1512,-7.079,-7.0723,-7.0723,-7.0676,-7.0581,-7.0581,-7.0723,-7.0581,-7.0367,-7.029,-7.0303,-7.049,-7.0812,-7.087,-7.1007,-7.1267,-7.1481,-7.1616,-7.1582,-7.1718,-7.1785,-7.1785,-7.1819,-7.1853,-7.1819,-7.1819,-7.2056,-7.2597,-7.3138,-7.3443,-7.3477,-7.3578,-7.3477,-7.3172,-7.3274,-7.3375,-7.3477,-7.3646,-7.3713,-7.3747,-7.3916,-7.4086,-7.4132,-7.4157,-7.4354,-7.4514,-7.4628,-7.5022,-7.5043,-7.5535,-7.6294,-7.7027,-7.7847,-7.8528,-7.9107,-7.9248,-7.9029,-7.0515,-7.0515,-7.027,-7.0467,-7.0906,-7.1057,-7.1521,-7.2183,-7.2912,-7.321,-7.3343,-7.3873,-7.4221,-7.4221,-7.4221,-7.4221,-7.4221,-7.4221,-7.4221,-7.4221,-7.4221,-7.4221,-7.4221,-7.4221,-7.4221,-7.4221,-7.4072,-7.4005,-7.4005,-7.4038,-7.4038,-7.4122,-7.4188,-7.4221,-7.4221,-7.4221,-7.4221,-7.4221,-7.4221,-7.4221,-7.4221,-7.4105,-7.4122,-7.4072,-7.4005,-7.4023,-7.3923,-7.4023,-7.3641,-7.3078,-7.3011,-7.2713,-7.2117,-7.2295,-7.2359,-7.2259,-7.2467,-7.2481,-7.2223,-7.2367,-7.2314,-7.2271,-7.23,-7.2443,-7.2491,-7.2477,-7.1908,-7.0904,-7.0536,-7.0742,-7.087,-7.0983,-7.1175,-7.1503,-7.1954,-7.2293,-7.236,-7.2902,-7.3274,-7.3308,-7.3105,-7.3274,-7.3105,-7.3172,-7.3274,-7.3341,-7.3612,-7.3747,-7.3781,-7.4153,-7.4492,-7.4289,-7.3984,-7.3612,-7.368,-7.4086,-7.4424,-7.4559,-7.508,-7.533,-7.5485,-7.6074,-7.671,-7.6386,-7.712,-7.7685,-7.8341,-7.9234,-7.8974,-7.8879,-7.9635,-8.0623,-8.0803,-8.073,-8.0259,-7.0316,-7.0316,-7.0082,-7.0059,-7.0262,-7.0693,-7.1322,-7.2051,-7.278,-7.3343,-7.374,-7.4089,-7.4221,-7.4221,-7.4221,-7.4221,-7.4221,-7.4221,-7.4221,-7.4221,-7.4221,-7.4221,-7.4221,-7.4221,-7.4221,-7.4221,-7.4221,-7.4221,-7.4221,-7.4221,-7.4221,-7.4221,-7.4221,-7.4221,-7.4221,-7.4221,-7.4221,-7.4221,-7.4221,-7.4221,-7.4221,-7.4221,-7.4221,-7.4221,-7.4221,-7.4221,-7.4221,-7.4221,-7.4038,-7.3773,-7.374,-7.3608,-7.331,-7.3376,-7.326,-7.2828,-7.2607,-7.2471,-7.2374,-7.2615,-7.2711,-7.2649,-7.2744,-7.2854,-7.2949,-7.2996,-7.2741,-7.241,-7.2102,-7.2148,-7.238,-7.246,-7.2505,-7.2631,-7.2902,-7.3037,-7.3037,-7.3308,-7.3477,-7.3477,-7.3477,-7.3477,-7.3544,-7.3883,-7.4119,-7.4221,-7.4458,-7.4695,-7.4796,-7.5067,-7.5202,-7.5236,-7.4965,-7.483,-7.4796,-7.4999,-7.5236,-7.5364,-7.5956,-7.6531,-7.6622,-7.7273,-7.7848,-7.7848,-7.8273,-7.8606,-7.8618,-7.8973,-7.9054,-7.9604,-8.04,-8.1092,-8.1092,-8.1092,-8.073,-7.0082,-7.0068,-7.0092,-7.0096,-7.0163,-7.0891,-7.1521,-7.2084,-7.278,-7.3409,-7.3873,-7.4072,-7.4221,-7.4221,-7.4221,-7.4221,-7.4221,-7.4221,-7.4221,-7.4221,-7.4221,-7.4221,-7.4221,-7.4221,-7.4221,-7.4221,-7.4221,-7.4221,-7.4221,-7.4221,-7.4221,-7.4255,-7.437,-7.452,-7.4502,-7.4635,-7.4767,-7.4767,-7.4767,-7.4767,-7.4767,-7.4767,-7.4568,-7.4255,-7.4221,-7.4221,-7.4221,-7.4221,-7.4221,-7.4221,-7.4221,-7.4221,-7.4221,-7.4272,-7.409,-7.3691,-7.3307,-7.312,-7.312,-7.3313,-7.3457,-7.3457,-7.3553,-7.3648,-7.3791,-7.3804,-7.3898,-7.4039,-7.3898,-7.3797,-7.3464,-7.3477,-7.3477,-7.351,-7.3646,-7.3781,-7.3815,-7.3916,-7.4153,-7.4086,-7.4221,-7.4086,-7.4187,-7.4559,-7.4897,-7.4965,-7.5337,-7.5676,-7.5676,-7.5642,-7.5676,-7.5676,-7.5676,-7.5642,-7.5676,-7.5608,-7.5676,-7.5913,-7.6392,-7.6996,-7.7219,-7.8012,-7.877,-7.877,-7.8933,-7.9214,-7.9679,-7.9487,-7.9249,-7.9985,-8.0657,-8.1092,-8.1092,-8.1092,-8.1092,-6.9846,-6.9978,-7.056,-7.0825,-7.0891,-7.162,-7.1985,-7.2117,-7.2813,-7.3144,-7.3343,-7.3906,-7.4221,-7.4221,-7.4221,-7.4221,-7.4221,-7.4221,-7.4221,-7.4221,-7.4221,-7.4221,-7.4221,-7.4221,-7.4221,-7.4221,-7.4221,-7.4255,-7.4255,-7.4255,-7.4221,-7.4288,-7.4951,-7.5231,-7.5297,-7.5794,-7.6159,-7.6059,-7.6059,-7.6125,-7.6159,-7.6159,-7.5496,-7.4436,-7.4255,-7.4321,-7.4255,-7.4221,-7.4221,-7.4221,-7.4221,-7.4221,-7.4221,-7.4423,-7.4589,-7.477,-7.4835,-7.4835,-7.4768,-7.4944,-7.5041,-7.5157,-7.5214,-7.5493,-7.5324,-7.5324,-7.5324,-7.554,-7.5357,-7.4931,-7.3883,-7.3747,-7.368,-7.368,-7.4187,-7.4525,-7.4559,-7.5067,-7.554,-7.5506,-7.5405,-7.5337,-7.5473,-7.5608,-7.5574,-7.554,-7.5642,-7.5676,-7.5676,-7.5676,-7.5676,-7.5676,-7.5676,-7.5676,-7.5676,-7.5676,-7.5676,-7.5865,-7.6392,-7.7175,-7.7746,-7.8308,-7.9089,-7.9834,-8.0213,-8.051,-8.0876,-8.0912,-8.0731,-8.0912,-8.0876,-8.1092,-8.1092,-8.1092,-8.1092,-7.0792,-7.1223,-7.1488,-7.162,-7.1653,-7.1885,-7.2283,-7.2713,-7.2978,-7.3376,-7.3773,-7.4072,-7.4221,-7.4221,-7.4221,-7.4221,-7.4221,-7.4221,-7.4221,-7.4221,-7.4221,-7.4221,-7.4221,-7.4221,-7.4221,-7.4221,-7.4221,-7.4453,-7.4918,-7.4918,-7.5098,-7.5529,-7.5794,-7.5927,-7.5993,-7.6192,-7.6291,-7.6324,-7.6291,-7.6291,-7.6357,-7.6291,-7.6026,-7.5595,-7.5562,-7.533,-7.4951,-7.4918,-7.4719,-7.4255,-7.4221,-7.4221,-7.4221,-7.4272,-7.4372,-7.4523,-7.4821,-7.5051,-7.5018,-7.5373,-7.5566,-7.5566,-7.5662,-7.5676,-7.5676,-7.5676,-7.5676,-7.5676,-7.5676,-7.5371,-7.51,-7.4897,-7.4897,-7.4931,-7.5134,-7.527,-7.5337,-7.554,-7.5676,-7.5676,-7.5676,-7.5676,-7.5676,-7.5676,-7.5676,-7.5676,-7.5676,-7.5676,-7.5676,-7.5676,-7.5676,-7.5676,-7.5676,-7.5676,-7.5676,-7.5676,-7.5723,-7.596,-7.6439,-7.7273,-7.8012,-7.8911,-7.9747,-8.0541,-8.1093,-8.131,-8.1419,-8.1382,-8.1418,-8.1346,-8.1309,-8.1454,-8.1092,-8.1418,-8.1346,-7.1554,-7.2018,-7.2283,-7.2382,-7.2382,-7.2614,-7.2978,-7.3442,-7.3475,-7.374,-7.4155,-7.4221,-7.4221,-7.4221,-7.4221,-7.4221,-7.4221,-7.4221,-7.4221,-7.4221,-7.4221,-7.4221,-7.4221,-7.4221,-7.4221,-7.4288,-7.4436,-7.49,-7.5529,-7.5628,-7.586,-7.6258,-7.6523,-7.6689,-7.6689,-7.6887,-7.702,-7.702,-7.702,-7.7053,-7.702,-7.702,-7.702,-7.702,-7.702,-7.6556,-7.5662,-7.5628,-7.5397,-7.4933,-7.4867,-7.4818,-7.4721,-7.4755,-7.4705,-7.4656,-7.5018,-7.5262,-7.5228,-7.5518,-7.5676,-7.5676,-7.5676,-7.5676,-7.5676,-7.5676,-7.5676,-7.5676,-7.5676,-7.5676,-7.5676,-7.5676,-7.5676,-7.5676,-7.5676,-7.5676,-7.5676,-7.5676,-7.5676,-7.5676,-7.5676,-7.5676,-7.5676,-7.5676,-7.5676,-7.5676,-7.5676,-7.5676,-7.5676,-7.5676,-7.5676,-7.5676,-7.5676,-7.5676,-7.5954,-7.6326,-7.6082,-7.6237,-7.6794,-7.7588,-7.856,-7.9493,-8.0417,-8.12,-8.1635,-8.178,-8.1853,-8.1853,-8.1853,-8.1817,-8.207,-8.236,-8.2143,-8.1998,-8.1925,-7.2018,-7.2216,-7.2813,-7.3111,-7.3177,-7.3707,-7.4105,-7.4072,-7.4155,-7.4155,-7.4221,-7.4221,-7.4221,-7.4221,-7.4221,-7.4221,-7.4221,-7.4221,-7.4221,-7.4221,-7.4221,-7.4221,-7.4221,-7.4321,-7.4387,-7.4453,-7.4966,-7.5628,-7.6291,-7.6324,-7.639,-7.6523,-7.7152,-7.7417,-7.7417,-7.798,-7.8378,-7.8345,-7.8279,-7.8378,-7.8511,-7.8345,-7.8312,-7.8378,-7.8345,-7.7749,-7.6424,-7.6357,-7.6258,-7.6192,-7.6159,-7.6063,-7.5721,-7.5823,-7.5788,-7.5482,-7.5619,-7.5729,-7.5763,-7.5831,-7.5946,-7.5946,-7.5811,-7.5946,-7.6014,-7.5946,-7.5946,-7.598,-7.5946,-7.5845,-7.5912,-7.5946,-7.5845,-7.5676,-7.5676,-7.5676,-7.5676,-7.5676,-7.5676,-7.5676,-7.5676,-7.5676,-7.5676,-7.5676,-7.5676,-7.5676,-7.5676,-7.5676,-7.5676,-7.5676,-7.5676,-7.5777,-7.6103,-7.6407,-7.6731,-7.6973,-7.6731,-7.6629,-7.7353,-7.8154,-7.9262,-8.0261,-8.121,-8.2031,-8.2577,-8.2722,-8.2722,-8.2758,-8.2867,-8.2903,-8.3157,-8.312,-8.2939,-8.2758,-8.2686,-7.3045,-7.3508,-7.374,-7.384,-7.3873,-7.4122,-7.4221,-7.4221,-7.4221,-7.4221,-7.4221,-7.4221,-7.4221,-7.4221,-7.4221,-7.4221,-7.4221,-7.4221,-7.4221,-7.4221,-7.4221,-7.4255,-7.4321,-7.4701,-7.5165,-7.5595,-7.586,-7.6357,-7.6954,-7.7086,-7.7285,-7.7782,-7.8047,-7.8179,-7.8146,-7.8411,-7.8511,-7.8511,-7.8511,-7.8511,-7.8511,-7.8511,-7.8511,-7.8511,-7.8511,-7.8279,-7.7848,-7.7351,-7.6854,-7.639,-7.6291,-7.6329,-7.642,-7.654,-7.6558,-7.6659,-7.6873,-7.7021,-7.7021,-7.7134,-7.7232,-7.7266,-7.7232,-7.7266,-7.7266,-7.7232,-7.7198,-7.7232,-7.7266,-7.7266,-7.7266,-7.7266,-7.6826,-7.5811,-7.5676,-7.5777,-7.5845,-7.5777,-7.5676,-7.5676,-7.5676,-7.5676,-7.5709,-7.5743,-7.5811,-7.5811,-7.5811,-7.5811,-7.5743,-7.594,-7.598,-7.6386,-7.6897,-7.764,-7.819,-7.8885,-7.9153,-7.8757,-7.8919,-7.9181,-8.0158,-8.1083,-8.2001,-8.2895,-8.3445,-8.3627,-8.3627,-8.3664,-8.3809,-8.3664,-8.3591,-8.3555,-8.3483,-8.3519,-8.3555,-7.3773,-7.4188,-7.4221,-7.4221,-7.4221,-7.4221,-7.4221,-7.4221,-7.4221,-7.4221,-7.4221,-7.4221,-7.4221,-7.4221,-7.4221,-7.4221,-7.4204,-7.4436,-7.4568,-7.4619,-7.4619,-7.4652,-7.4752,-7.533,-7.6026,-7.6622,-7.6722,-7.7119,-7.7782,-7.7848,-7.8047,-7.8444,-7.8511,-7.8511,-7.8511,-7.8511,-7.8511,-7.8511,-7.8511,-7.8511,-7.8511,-7.8511,-7.8511,-7.8511,-7.8511,-7.8511,-7.8477,-7.808,-7.7616,-7.7219,-7.7119,-7.7125,-7.7082,-7.7189,-7.7294,-7.7262,-7.753,-7.7696,-7.7729,-7.7859,-7.801,-7.801,-7.801,-7.7976,-7.7976,-7.801,-7.801,-7.801,-7.7942,-7.801,-7.7976,-7.7976,-7.7502,-7.669,-7.6589,-7.6555,-7.6555,-7.6555,-7.6589,-7.6623,-7.6623,-7.6555,-7.6555,-7.6555,-7.6555,-7.6555,-7.6555,-7.6555,-7.6651,-7.6938,-7.7339,-7.7874,-7.8603,-7.9297,-7.9867,-8.0683,-8.1571,-8.1232,-8.0852,-8.0935,-8.1358,-8.2063,-8.2858,-8.4013,-8.4714,-8.4786,-8.4786,-8.4678,-8.4714,-8.4424,-8.4243,-8.4533,-8.4714,-8.4642,-8.4569,-7.4221,-7.4221,-7.4221,-7.4221,-7.4221,-7.4221,-7.4221,-7.4221,-7.4221,-7.4221,-7.4221,-7.4221,-7.4221,-7.4221,-7.4321,-7.442,-7.442,-7.5032,-7.533,-7.5363,-7.543,-7.5496,-7.5595,-7.6125,-7.6755,-7.7384,-7.7484,-7.7848,-7.8378,-7.8411,-7.8511,-7.8511,-7.8511,-7.8511,-7.8511,-7.8511,-7.8511,-7.8511,-7.8511,-7.8511,-7.8511,-7.8511,-7.8511,-7.8511,-7.8511,-7.8511,-7.8511,-7.8444,-7.8444,-7.8477,-7.8345,-7.8014,-7.7722,-7.7974,-7.7964,-7.7597,-7.7882,-7.8148,-7.8179,-7.8348,-7.8314,-7.8348,-7.8348,-7.8111,-7.8314,-7.8416,-7.8416,-7.8382,-7.8314,-7.828,-7.828,-7.8314,-7.8213,-7.8111,-7.7841,-7.7773,-7.7942,-7.7874,-7.7705,-7.7807,-7.7942,-7.7942,-7.7773,-7.7773,-7.7807,-7.7807,-7.7739,-7.772,-7.8074,-7.8366,-7.9166,-7.9817,-8.0351,-8.1059,-8.1626,-8.2584,-8.3406,-8.3294,-8.2913,-8.2821,-8.2807,-8.3355,-8.3797,-8.4917,-8.5547,-8.5692,-8.5692,-8.5438,-8.5402,-8.533,-8.5438,-8.5837,-8.5764,-8.5475,-8.5293,-7.4221,-7.4221,-7.4221,-7.4221,-7.4221,-7.4221,-7.4221,-7.4221,-7.4221,-7.4221,-7.4221,-7.4221,-7.4255,-7.4288,-7.4818,-7.5017,-7.5165,-7.5728,-7.6026,-7.6125,-7.6622,-7.6821,-7.6854,-7.702,-7.7484,-7.8113,-7.8146,-7.8345,-7.8511,-7.8511,-7.8511,-7.8511,-7.8511,-7.8511,-7.8511,-7.8511,-7.8511,-7.8511,-7.8511,-7.8511,-7.8511,-7.8511,-7.8511,-7.8511,-7.8511,-7.8511,-7.8511,-7.8511,-7.8511,-7.8511,-7.8511,-7.8551,-7.8445,-7.8569,-7.8697,-7.8958,-7.9162,-7.9365,-7.9516,-7.9566,-7.9566,-7.96,-7.9464,-7.96,-7.9634,-7.96,-7.96,-7.96,-7.96,-7.9566,-7.9566,-7.9566,-7.9566,-7.9464,-7.872,-7.8111,-7.8111,-7.801,-7.801,-7.801,-7.8077,-7.8111,-7.8145,-7.8111,-7.8111,-7.8111,-7.8194,-7.8356,-7.8893,-7.9452,-8.0143,-8.1235,-8.1973,-8.2749,-8.3524,-8.4561,-8.5167,-8.5206,-8.5021,-8.4871,-8.484,-8.4987,-8.5283,-8.5801,-8.5728,-8.5837,-8.5837,-8.5764,-8.5873,-8.5909,-8.5909,-8.5909,-8.5909,-8.5728,-8.5728,-7.4221,-7.4221,-7.4221,-7.4221,-7.4221,-7.4221,-7.4221,-7.4221,-7.4221,-7.4221,-7.4288,-7.4586,-7.4686,-7.4752,-7.5363,-7.5695,-7.5794,-7.6457,-7.6755,-7.6887,-7.7517,-7.7815,-7.7848,-7.7914,-7.8113,-7.8444,-7.8511,-7.8511,-7.8511,-7.8511,-7.8511,-7.8511,-7.8511,-7.8511,-7.8511,-7.8511,-7.8511,-7.8511,-7.8511,-7.8511,-7.8511,-7.8511,-7.8511,-7.8511,-7.8511,-7.8511,-7.8511,-7.8511,-7.8511,-7.8511,-7.8511,-7.8564,-7.8724,-7.883,-7.9094,-7.9407,-7.9647,-7.987,-8.0006,-8.0158,-8.0209,-8.0175,-8.0209,-8.0209,-8.0175,-8.0209,-8.0209,-8.0141,-8.0209,-8.0209,-8.0209,-8.0209,-8.0209,-8.004,-7.9431,-7.8923,-7.8923,-7.8957,-7.8923,-7.8923,-7.8923,-7.8923,-7.8889,-7.8889,-7.8889,-7.8957,-7.9058,-7.9288,-7.9644,-8.0293,-8.1081,-8.218,-8.3401,-8.4215,-8.4518,-8.5276,-8.5576,-8.5725,-8.5799,-8.5909,-8.5909,-8.5909,-8.5909,-8.5873,-8.5909,-8.5909,-8.5909,-8.5909,-8.5909,-8.5909,-8.5909,-8.5909,-8.5909,-8.5909,-8.5909,-7.4221,-7.4221,-7.4221,-7.4221,-7.4221,-7.4221,-7.4221,-7.4221,-7.4221,-7.4288,-7.4487,-7.4999,-7.5231,-7.543,-7.6092,-7.6424,-7.6457,-7.7185,-7.745,-7.7715,-7.8113,-7.8411,-7.8378,-7.8378,-7.8444,-7.8511,-7.8511,-7.8511,-7.8511,-7.8511,-7.8511,-7.8511,-7.8511,-7.8511,-7.8511,-7.8511,-7.8511,-7.8511,-7.8511,-7.8511,-7.8511,-7.8511,-7.8511,-7.8511,-7.8511,-7.8511,-7.8511,-7.8511,-7.8511,-7.8511,-7.8511,-7.8511,-7.8564,-7.8724,-7.8883,-7.9041,-7.944,-7.975,-7.9853,-8.0057,-8.0209,-8.0209,-8.0209,-8.0209,-8.0209,-8.0209,-8.0209,-8.0209,-8.0209,-8.0209,-8.0209,-8.0209,-8.0209,-8.0175,-8.0107,-8.0175,-8.0209,-8.0209,-8.0209,-8.0209,-8.0141,-8.0175,-8.0209,-8.0209,-8.0141,-7.965,-7.9867,-8.0292,-8.0897,-8.1722,-8.2374,-8.3031,-8.433,-8.5648,-8.5723,-8.5835,-8.5835,-8.5873,-8.5873,-8.5909,-8.5909,-8.5909,-8.5909,-8.5909,-8.5909,-8.5909,-8.5909,-8.5909,-8.5909,-8.5909,-8.5909,-8.5909,-8.5909,-8.5909,-8.5909,-7.4221,-7.4221,-7.4221,-7.4221,-7.4221,-7.4221,-7.4221,-7.4221,-7.4221,-7.4502,-7.4966,-7.5282,-7.5628,-7.6125,-7.6821,-7.7185,-7.7252,-7.7881,-7.8279,-7.8312,-7.8411,-7.8511,-7.8511,-7.8511,-7.8511,-7.8511,-7.8511,-7.8511,-7.8511,-7.8511,-7.8511,-7.8511,-7.8511,-7.8511,-7.8511,-7.8511,-7.8511,-7.8511,-7.8511,-7.8511,-7.8511,-7.8511,-7.8511,-7.8511,-7.8511,-7.8511,-7.8511,-7.8511,-7.8511,-7.8511,-7.8511,-7.8511,-7.8511,-7.8564,-7.8671,-7.8936,-7.9232,-7.9544,-7.9801,-8.0006,-8.0209,-8.0209,-8.0209,-8.0209,-8.0209,-8.0209,-8.0209,-8.0209,-8.0209,-8.0209,-8.0209,-8.0209,-8.0209,-8.0209,-8.0209,-8.0209,-8.0209,-8.0209,-8.0209,-8.0209,-8.0209,-8.0209,-8.0209,-8.0209,-8.0259,-8.0276,-8.069,-8.116,-8.1944,-8.2865,-8.3427,-8.3812,-8.4752,-8.5871,-8.5909,-8.5909,-8.5909,-8.5909,-8.5909,-8.5909,-8.5909,-8.5909,-8.5909,-8.5909,-8.5909,-8.5909,-8.5909,-8.5909,-8.5909,-8.5909,-8.5909,-8.5909,-8.5909,-8.5909,-8.5909,-7.4221,-7.4221,-7.4221,-7.4221,-7.4221,-7.4221,-7.4221,-7.4237,-7.4568,-7.49,-7.5397,-7.5894,-7.649,-7.6887,-7.7583,-7.7947,-7.798,-7.8312,-7.8511,-7.8511,-7.8511,-7.8511,-7.8511,-7.8511,-7.8511,-7.8511,-7.8511,-7.8511,-7.8511,-7.8511,-7.8511,-7.8511,-7.8511,-7.8511,-7.8511,-7.8511,-7.8511,-7.8511,-7.8511,-7.8511,-7.8511,-7.8511,-7.8511,-7.8511,-7.8511,-7.8511,-7.8511,-7.8511,-7.8511,-7.8511,-7.8511,-7.8511,-7.8511,-7.8511,-7.8564,-7.8724,-7.8988,-7.9284,-7.9596,-7.9853,-8.0057,-8.0209,-8.0209,-8.0209,-8.0209,-8.0209,-8.0209,-8.0209,-8.0209,-8.0209,-8.0209,-8.0209,-8.0209,-8.0209,-8.0209,-8.0209,-8.0209,-8.0209,-8.0209,-8.0209,-8.0209,-8.0209,-8.0209,-8.0209,-8.0259,-8.0326,-8.1048,-8.1556,-8.1944,-8.2865,-8.3854,-8.4431,-8.5261,-8.5835,-8.5909,-8.5909,-8.5909,-8.5909,-8.5909,-8.5909,-8.5909,-8.5909,-8.5909,-8.5909,-8.5909,-8.5909,-8.5909,-8.5909,-8.5909,-8.5909,-8.5909,-8.5909,-8.5909,-8.5909,-8.5909,-7.4221,-7.4221,-7.4221,-7.4221,-7.4221,-7.4221,-7.4321,-7.4469,-7.505,-7.5397,-7.5794,-7.6954,-7.7318,-7.7682,-7.8179,-7.8477,-7.8511,-7.8424,-7.8511,-7.8511,-7.8511,-7.8511,-7.8511,-7.8511,-7.8511,-7.8511,-7.8511,-7.8511,-7.8511,-7.8511,-7.8511,-7.8511,-7.8511,-7.8511,-7.8511,-7.8511,-7.8511,-7.8511,-7.8511,-7.8511,-7.8511,-7.8511,-7.8511,-7.8511,-7.8511,-7.8511,-7.8511,-7.8511,-7.8511,-7.8511,-7.8511,-7.8511,-7.8511,-7.8511,-7.8511,-7.8564,-7.8883,-7.9198,-7.9544,-7.975,-8.0006,-8.0209,-8.0209,-8.0209,-8.0209,-8.0209,-8.0209,-8.0209,-8.0209,-8.0209,-8.0209,-8.0209,-8.0209,-8.0209,-8.0209,-8.0209,-8.0209,-8.0209,-8.0209,-8.0209,-8.0209,-8.0209,-8.0209,-8.0209,-8.0309,-8.0526,-8.1256,-8.1932,-8.2313,-8.3086,-8.4225,-8.4711,-8.5339,-8.5797,-8.5909,-8.5909,-8.5909,-8.5909,-8.5909,-8.5909,-8.5909,-8.5909,-8.5909,-8.5909,-8.5909,-8.5909,-8.5909,-8.5909,-8.5909,-8.5909,-8.5909,-8.5909,-8.5909,-8.5909,-8.5909,-7.4221,-7.4221,-7.4221,-7.4221,-7.4221,-7.4221,-7.4535,-7.5065,-7.5282,-7.596,-7.6987,-7.7318,-7.7815,-7.8212,-7.8411,-7.8511,-7.8511,-7.8511,-7.8511,-7.8511,-7.8511,-7.8511,-7.8511,-7.8511,-7.8511,-7.8511,-7.8511,-7.8511,-7.8511,-7.8511,-7.8511,-7.8511,-7.8511,-7.8511,-7.8511,-7.8511,-7.8511,-7.8511,-7.8511,-7.8511,-7.8511,-7.8511,-7.8511,-7.8511,-7.8511,-7.8511,-7.8511,-7.8511,-7.8511,-7.8511,-7.8511,-7.8511,-7.8511,-7.8511,-7.8617,-7.883,-7.9127,-7.9388,-7.9699,-7.9955,-8.0074,-8.0209,-8.0209,-8.0209,-8.0209,-8.0209,-8.0209,-8.0209,-8.0209,-8.0209,-8.0209,-8.0209,-8.0209,-8.0209,-8.0209,-8.0209,-8.0209,-8.0276,-8.0225,-8.0175,-8.0209,-8.0209,-8.0209,-8.0259,-8.0376,-8.0853,-8.1792,-8.2313,-8.2676,-8.3727,-8.5028,-8.5261,-8.53,-8.5682,-8.5909,-8.5909,-8.5909,-8.5909,-8.5909,-8.5909,-8.5909,-8.5909,-8.5909,-8.5909,-8.5909,-8.5909,-8.5909,-8.5909,-8.5909,-8.5909,-8.5909,-8.5909,-8.5909,-8.5909,-8.5909,-7.4221,-7.4221,-7.4221,-7.4221,-7.4221,-7.4221,-7.4652,-7.5297,-7.5662,-7.6424,-7.7285,-7.7815,-7.8179,-7.8444,-7.8511,-7.8511,-7.8511,-7.8511,-7.8511,-7.8511,-7.8511,-7.8511,-7.8511,-7.8511,-7.8511,-7.8511,-7.8511,-7.8511,-7.8511,-7.8511,-7.8511,-7.8511,-7.8511,-7.8511,-7.8511,-7.8511,-7.8511,-7.8511,-7.8511,-7.8511,-7.8511,-7.8511,-7.8511,-7.8511,-7.8511,-7.8511,-7.8511,-7.8511,-7.8511,-7.8511,-7.8511,-7.8564,-7.8671,-7.8724,-7.8777,-7.8936,-7.9232,-7.9544,-7.975,-7.9955,-8.0057,-8.0209,-8.0209,-8.0209,-8.0209,-8.0209,-8.0209,-8.0209,-8.0209,-8.0209,-8.0209,-8.0209,-8.0209,-8.0209,-8.0209,-8.0209,-8.0326,-8.0641,-8.0641,-8.0426,-8.0376,-8.0326,-8.0209,-8.0276,-8.0476,-8.116,-8.2222,-8.2811,-8.3165,-8.4267,-8.5608,-8.5608,-8.5531,-8.5682,-8.5909,-8.5909,-8.5909,-8.5909,-8.5909,-8.5909,-8.5909,-8.5909,-8.5909,-8.5909,-8.5909,-8.5909,-8.5909,-8.5909,-8.5909,-8.5909,-8.5909,-8.5909,-8.5909,-8.5909,-8.5909,-7.4221,-7.4221,-7.4221,-7.4221,-7.4255,-7.4387,-7.4833,-7.5529,-7.6225,-7.6954,-7.7682,-7.8212,-7.8477,-7.8511,-7.8511,-7.8511,-7.8511,-7.8511,-7.8511,-7.8511,-7.8511,-7.8511,-7.8511,-7.8511,-7.8511,-7.8511,-7.8511,-7.8511,-7.8511,-7.8511,-7.8511,-7.8511,-7.8511,-7.8511,-7.8511,-7.8511,-7.8511,-7.8511,-7.8511,-7.8511,-7.8511,-7.8511,-7.8511,-7.8511,-7.8511,-7.8511,-7.8511,-7.8511,-7.8511,-7.8511,-7.8511,-7.8617,-7.8883,-7.8988,-7.9041,-7.9094,-7.9336,-7.9596,-7.9801,-7.9904,-8.0057,-8.0209,-8.0209,-8.0209,-8.0209,-8.0209,-8.0209,-8.0209,-8.0209,-8.0209,-8.0209,-8.0209,-8.0209,-8.0209,-8.0209,-8.0326,-8.069,-8.1048,-8.1304,-8.1097,-8.0789,-8.0542,-8.0442,-8.0804,-8.1048,-8.1886,-8.2909,-8.377,-8.4225,-8.4908,-8.5797,-8.5835,-8.5871,-8.5833,-8.5909,-8.5909,-8.5909,-8.5909,-8.5909,-8.5909,-8.5909,-8.5909,-8.5909,-8.5909,-8.5909,-8.5909,-8.5909,-8.5909,-8.5909,-8.5909,-8.5909,-8.5909,-8.5909,-8.5909,-8.5909,-7.4221,-7.4221,-7.4221,-7.4221,-7.4321,-7.4884,-7.5529,-7.6258,-7.692,-7.7715,-7.8279,-7.8444,-7.8511,-7.8511,-7.8511,-7.8511,-7.8511,-7.8511,-7.8511,-7.8511,-7.8511,-7.8511,-7.8511,-7.8511,-7.8511,-7.8511,-7.8511,-7.8511,-7.8511,-7.8511,-7.8511,-7.8511,-7.8511,-7.8511,-7.8511,-7.8511,-7.8511,-7.8511,-7.8511,-7.8511,-7.8511,-7.8511,-7.8511,-7.8511,-7.8511,-7.8511,-7.8511,-7.8511,-7.8511,-7.8511,-7.8511,-7.8617,-7.8883,-7.9232,-7.944,-7.9647,-7.975,-7.9853,-8.0107,-8.0107,-8.0107,-8.0209,-8.0209,-8.0209,-8.0209,-8.0209,-8.0209,-8.0209,-8.0209,-8.0209,-8.0209,-8.0209,-8.0209,-8.0276,-8.0426,-8.0804,-8.1304,-8.1991,-8.2222,-8.2268,-8.2084,-8.1304,-8.0853,-8.1304,-8.1792,-8.2641,-8.3521,-8.4349,-8.5028,-8.5531,-8.5909,-8.5909,-8.5909,-8.5909,-8.5909,-8.5909,-8.5909,-8.5909,-8.5909,-8.5909,-8.5909,-8.5909,-8.5909,-8.5909,-8.5909,-8.5909,-8.5909,-8.5909,-8.5909,-8.5909,-8.5909,-8.5909,-8.5909,-8.5909,-8.5909,-7.4221,-7.4221,-7.4221,-7.4453,-7.4851,-7.5216,-7.5927,-7.6854,-7.7285,-7.7848,-7.8411,-7.8511,-7.8511,-7.8511,-7.8511,-7.8511,-7.8511,-7.8511,-7.8511,-7.8511,-7.8511,-7.8511,-7.8511,-7.8511,-7.8511,-7.8511,-7.8511,-7.8511,-7.8511,-7.8511,-7.8511,-7.8511,-7.8511,-7.8511,-7.8511,-7.8511,-7.8511,-7.8511,-7.8511,-7.8511,-7.8511,-7.8511,-7.8511,-7.8511,-7.8511,-7.8511,-7.8511,-7.8511,-7.8511,-7.8511,-7.8511,-7.8617,-7.8883,-7.9198,-7.9492,-7.975,-7.9955,-8.0107,-8.0175,-8.0209,-8.0209,-8.0209,-8.0209,-8.0209,-8.0209,-8.0209,-8.0209,-8.0209,-8.0209,-8.0209,-8.0209,-8.0209,-8.0542,-8.0789,-8.0902,-8.1603,-8.2222,-8.2909,-8.3348,-8.3391,-8.3348,-8.2641,-8.2084,-8.2359,-8.2676,-8.2954,-8.3727,-8.4431,-8.5028,-8.5453,-8.5721,-8.5909,-8.5909,-8.5909,-8.5909,-8.5909,-8.5909,-8.5909,-8.5909,-8.5909,-8.5909,-8.5909,-8.5909,-8.5909,-8.5909,-8.5909,-8.5909,-8.5909,-8.5909,-8.5909,-8.5909,-8.5909,-8.5909,-8.5909,-8.5909,-7.4221,-7.4221,-7.4221,-7.4652,-7.5297,-7.543,-7.6225,-7.7351,-7.7616,-7.8014,-7.8411,-7.8511,-7.8511,-7.8511,-7.8511,-7.8511,-7.8511,-7.8511,-7.8511,-7.8511,-7.8511,-7.8511,-7.8511,-7.8511,-7.8511,-7.8511,-7.8511,-7.8511,-7.8511,-7.8511,-7.8511,-7.8511,-7.8511,-7.8511,-7.8511,-7.8511,-7.8511,-7.8511,-7.8511,-7.8511,-7.8511,-7.8511,-7.8511,-7.8511,-7.8511,-7.8511,-7.8511,-7.8511,-7.8511,-7.8511,-7.8511,-7.8671,-7.9041,-7.9284,-7.9596,-7.9853,-8.0107,-8.0158,-8.0209,-8.0209,-8.0209,-8.0209,-8.0209,-8.0209,-8.0209,-8.0209,-8.0209,-8.0209,-8.0209,-8.0209,-8.0259,-8.0376,-8.0902,-8.14,-8.1792,-8.2496,-8.313,-8.3727,-8.4308,-8.4513,-8.4513,-8.4431,-8.3974,-8.3812,-8.3727,-8.3599,-8.3981,-8.4595,-8.5067,-8.5492,-8.5682,-8.5909,-8.5909,-8.5909,-8.5909,-8.5909,-8.5909,-8.5909,-8.5909,-8.5909,-8.5909,-8.5909,-8.5909,-8.5909,-8.5909,-8.5909,-8.5909,-8.5909,-8.5909,-8.5909,-8.5909,-8.5909,-8.5909,-8.5909,-8.5909,-7.4221,-7.4221,-7.4171,-7.4635,-7.5363,-7.5993,-7.6689,-7.755,-7.8146,-7.8411,-7.8511,-7.8511,-7.8511,-7.8511,-7.8511,-7.8511,-7.8511,-7.8511,-7.8511,-7.8511,-7.8511,-7.8511,-7.8511,-7.8511,-7.8511,-7.8511,-7.8511,-7.8511,-7.8511,-7.8511,-7.8511,-7.8511,-7.8511,-7.8511,-7.8511,-7.8511,-7.8511,-7.8511,-7.8511,-7.8511,-7.8511,-7.8511,-7.8511,-7.8511,-7.8511,-7.8511,-7.8511,-7.8511,-7.8511,-7.8511,-7.8511,-7.8724,-7.9094,-7.9336,-7.9596,-7.9955,-8.0158,-8.0209,-8.0209,-8.0209,-8.0209,-8.0209,-8.0209,-8.0209,-8.0209,-8.0209,-8.0209,-8.0209,-8.0209,-8.0209,-8.0476,-8.0902,-8.1352,-8.1944,-8.2541,-8.3427,-8.3939,-8.4267,-8.4832,-8.5492,-8.5531,-8.5261,-8.5222,-8.4908,-8.4671,-8.4472,-8.4711,-8.5339,-8.5453,-8.5759,-8.5797,-8.5909,-8.5909,-8.5909,-8.5909,-8.5909,-8.5909,-8.5909,-8.5909,-8.5909,-8.5909,-8.5909,-8.5909,-8.5909,-8.5909,-8.5909,-8.5909,-8.5909,-8.5909,-8.5909,-8.5909,-8.5909,-8.5909,-8.5909,-8.5909,-7.4487,-7.4867,-7.4918,-7.5264,-7.596,-7.6689,-7.7417,-7.8047,-7.8411,-7.8511,-7.8511,-7.8511,-7.8511,-7.8511,-7.8511,-7.8511,-7.8511,-7.8511,-7.8511,-7.8511,-7.8511,-7.8511,-7.8511,-7.8511,-7.8511,-7.8511,-7.8511,-7.8511,-7.8511,-7.8511,-7.8511,-7.8511,-7.8511,-7.8511,-7.8511,-7.8511,-7.8511,-7.8511,-7.8511,-7.8511,-7.8511,-7.8511,-7.8511,-7.8511,-7.8511,-7.8511,-7.8511,-7.8511,-7.8511,-7.8511,-7.8511,-7.8777,-7.9146,-7.9336,-7.9596,-7.9955,-8.0074,-8.0209,-8.0209,-8.0209,-8.0209,-8.0209,-8.0209,-8.0209,-8.0209,-8.0209,-8.0209,-8.0209,-8.0209,-8.0209,-8.0326,-8.1048,-8.1792,-8.245,-8.334,-8.4267,-8.4752,-8.5028,-8.5222,-8.5721,-8.5835,-8.5721,-8.5759,-8.5759,-8.5569,-8.5417,-8.5721,-8.5909,-8.5909,-8.5909,-8.5909,-8.5909,-8.5909,-8.5909,-8.5909,-8.5909,-8.5909,-8.5909,-8.5909,-8.5909,-8.5909,-8.5909,-8.5909,-8.5909,-8.5909,-8.5909,-8.5909,-8.5909,-8.5909,-8.5909,-8.5909,-8.5909,-8.5909,-8.5909,-8.5909,-7.48,-7.5297,-7.5728,-7.6192,-7.6689,-7.7185,-7.7848,-7.8444,-7.8511,-7.8511,-7.8511,-7.8511,-7.8511,-7.8511,-7.8511,-7.8511,-7.8511,-7.8511,-7.8511,-7.8511,-7.8511,-7.8511,-7.8511,-7.8511,-7.8511,-7.8511,-7.8511,-7.8511,-7.8511,-7.8511,-7.8511,-7.8511,-7.8511,-7.8511,-7.8511,-7.8511,-7.8511,-7.8511,-7.8511,-7.8511,-7.8511,-7.8511,-7.8511,-7.8511,-7.8511,-7.8511,-7.8511,-7.8511,-7.8564,-7.8617,-7.8671,-7.883,-7.9094,-7.9407,-7.9647,-7.9904,-8.0057,-8.0209,-8.0209,-8.0209,-8.0209,-8.0209,-8.0209,-8.0209,-8.0209,-8.0209,-8.0209,-8.0209,-8.0209,-8.0259,-8.0326,-8.1304,-8.2176,-8.2865,-8.4225,-8.5182,-8.5414,-8.5644,-8.5682,-8.5909,-8.5909,-8.5909,-8.5909,-8.5909,-8.5835,-8.5682,-8.5759,-8.5909,-8.5909,-8.5909,-8.5909,-8.5909,-8.5909,-8.5909,-8.5909,-8.5909,-8.5909,-8.5909,-8.5909,-8.5909,-8.5909,-8.5909,-8.5909,-8.5909,-8.5909,-8.5909,-8.5909,-8.5945,-8.5945,-8.5909,-8.5909,-8.5909,-8.5909,-8.5909,-8.5909,-7.5264,-7.5463,-7.6755,-7.7318,-7.7384,-7.7417,-7.7848,-7.8477,-7.8511,-7.8511,-7.8511,-7.8511,-7.8511,-7.8511,-7.8511,-7.8511,-7.8511,-7.8511,-7.8511,-7.8511,-7.8511,-7.8511,-7.8511,-7.8511,-7.8511,-7.8511,-7.8511,-7.8511,-7.8511,-7.8709,-7.8643,-7.8709,-7.8842,-7.8776,-7.8577,-7.8544,-7.8544,-7.8544,-7.861,-7.861,-7.8511,-7.8511,-7.8511,-7.8511,-7.8511,-7.8511,-7.8564,-7.8564,-7.8671,-7.8883,-7.8883,-7.9146,-7.9596,-7.9699,-7.9853,-8.0124,-8.0158,-8.0209,-8.0209,-8.0209,-8.0209,-8.0209,-8.0209,-8.0209,-8.0209,-8.0209,-8.0209,-8.0209,-8.0326,-8.0326,-8.0853,-8.1757,-8.2686,-8.3556,-8.4868,-8.5608,-8.5797,-8.5909,-8.5909,-8.5909,-8.5909,-8.5909,-8.5909,-8.5909,-8.5909,-8.5871,-8.5909,-8.5909,-8.5909,-8.5909,-8.5909,-8.5909,-8.5909,-8.5909,-8.5909,-8.5909,-8.5909,-8.5909,-8.5909,-8.5909,-8.5909,-8.5909,-8.5909,-8.5909,-8.609,-8.6271,-8.6126,-8.5982,-8.6199,-8.638,-8.5982,-8.5909,-8.5909,-8.5909,-8.5909,-7.5562,-7.6059,-7.702,-7.7715,-7.8113,-7.8146,-7.8312,-7.8477,-7.8511,-7.8511,-7.8511,-7.8511,-7.8511,-7.8511,-7.8511,-7.8511,-7.8511,-7.8511,-7.8511,-7.8511,-7.8511,-7.8511,-7.8511,-7.8511,-7.8511,-7.8511,-7.8511,-7.8577,-7.8511,-7.8974,-7.9239,-7.9306,-7.9604,-7.967,-7.9537,-7.9571,-7.9802,-7.9339,-7.9206,-7.9074,-7.861,-7.8544,-7.8511,-7.8511,-7.8511,-7.8617,-7.8777,-7.8777,-7.8936,-7.9179,-7.9232,-7.944,-7.975,-7.9853,-7.9955,-8.0158,-8.0209,-8.0209,-8.0209,-8.0209,-8.0209,-8.0259,-8.0209,-8.0209,-8.0209,-8.0209,-8.0209,-8.0326,-8.0641,-8.0804,-8.1413,-8.2865,-8.3812,-8.4148,-8.5067,-8.5608,-8.5909,-8.5909,-8.5909,-8.5909,-8.5909,-8.5909,-8.5909,-8.5909,-8.5909,-8.5909,-8.5909,-8.5909,-8.5909,-8.5909,-8.5909,-8.5909,-8.5909,-8.5909,-8.5909,-8.6018,-8.609,-8.609,-8.6018,-8.5909,-8.5909,-8.6163,-8.6126,-8.6271,-8.6452,-8.6634,-8.6706,-8.6778,-8.6923,-8.6923,-8.6597,-8.609,-8.5909,-8.5909,-8.5909,-7.6059,-7.6755,-7.7484,-7.808,-7.8477,-7.8511,-7.8511,-7.8511,-7.8511,-7.8511,-7.8511,-7.8511,-7.8511,-7.8511,-7.8511,-7.8511,-7.8511,-7.8511,-7.8511,-7.8511,-7.8511,-7.8511,-7.8511,-7.8544,-7.8511,-7.8577,-7.8809,-7.8941,-7.9007,-7.967,-7.9935,-8.0167,-8.0697,-8.073,-8.0598,-8.0564,-8.0399,-7.9968,-7.9769,-7.9372,-7.892,-7.8742,-7.8564,-7.8617,-7.8671,-7.8777,-7.8988,-7.9094,-7.9198,-7.944,-7.9596,-7.9647,-7.9853,-8.0006,-8.0057,-8.0158,-8.0209,-8.0376,-8.0641,-8.0276,-8.0426,-8.074,-8.0426,-8.0209,-8.0209,-8.0209,-8.0209,-8.0426,-8.0902,-8.1304,-8.1839,-8.3427,-8.4148,-8.4472,-8.5147,-8.5759,-8.5909,-8.5909,-8.5909,-8.5909,-8.5909,-8.5909,-8.5909,-8.5909,-8.5909,-8.5909,-8.5909,-8.5945,-8.6018,-8.6018,-8.6018,-8.6018,-8.6018,-8.6054,-8.6126,-8.6308,-8.6308,-8.6271,-8.638,-8.6452,-8.6778,-8.7177,-8.6887,-8.6706,-8.7141,-8.7467,-8.7539,-8.7648,-8.772,-8.7575,-8.7285,-8.6742,-8.609,-8.6018,-8.6126,-7.6755,-7.7484,-7.8212,-7.8477,-7.8511,-7.8511,-7.8511,-7.8511,-7.8511,-7.8511,-7.8511,-7.8511,-7.8511,-7.8511,-7.8511,-7.8511,-7.8511,-7.8511,-7.8511,-7.8511,-7.8511,-7.8511,-7.8523,-7.8556,-7.8742,-7.8908,-7.9206,-7.967,-7.9736,-8.0366,-8.073,-8.0962,-8.1525,-8.1658,-8.1558,-8.1326,-8.0995,-8.0697,-8.0366,-7.9902,-7.9384,-7.9028,-7.887,-7.8843,-7.8936,-7.9094,-7.9251,-7.944,-7.9544,-7.9699,-7.9801,-7.9955,-8.0107,-8.0225,-8.0225,-8.0376,-8.0476,-8.1048,-8.1366,-8.0951,-8.1014,-8.1495,-8.1,-8.0492,-8.0209,-8.0209,-8.0209,-8.0426,-8.0838,-8.1256,-8.1804,-8.2909,-8.3981,-8.463,-8.5378,-8.5721,-8.5871,-8.5909,-8.5909,-8.5909,-8.5909,-8.5909,-8.5909,-8.5909,-8.6126,-8.6235,-8.6308,-8.6489,-8.6489,-8.6271,-8.6271,-8.6271,-8.6271,-8.6199,-8.638,-8.6851,-8.6959,-8.7068,-8.743,-8.7611,-8.7899,-8.7935,-8.7648,-8.7611,-8.7971,-8.8297,-8.8626,-8.8589,-8.8444,-8.8263,-8.8082,-8.7575,-8.6959,-8.6597,-8.6561,-7.7219,-7.7484,-7.8212,-7.8511,-7.8511,-7.8511,-7.8511,-7.8511,-7.8511,-7.8511,-7.8511,-7.8511,-7.8511,-7.8511,-7.8511,-7.8511,-7.8511,-7.8511,-7.8511,-7.8544,-7.861,-7.8544,-7.8656,-7.8987,-7.9206,-7.9571,-7.9935,-8.0399,-8.0564,-8.1128,-8.1823,-8.2287,-8.232,-8.2486,-8.2453,-8.2353,-8.1923,-8.1492,-8.1161,-8.0564,-7.9989,-7.9633,-7.9395,-7.9222,-7.9246,-7.9507,-7.975,-7.9801,-7.9921,-8.0074,-8.0074,-8.0209,-8.0209,-8.0804,-8.1352,-8.213,-8.2268,-8.2359,-8.2541,-8.2359,-8.2268,-8.245,-8.2222,-8.1352,-8.074,-8.0376,-8.0426,-8.0789,-8.14,-8.1991,-8.2641,-8.3599,-8.4431,-8.5147,-8.5721,-8.5797,-8.5909,-8.5909,-8.5909,-8.5945,-8.5945,-8.6126,-8.609,-8.6235,-8.6416,-8.6597,-8.6778,-8.6959,-8.7032,-8.6851,-8.6742,-8.6778,-8.6923,-8.6996,-8.7358,-8.7754,-8.779,-8.7899,-8.8297,-8.8478,-8.8444,-8.8408,-8.8261,-8.8405,-8.8843,-8.9386,-8.9929,-8.9712,-8.935,-8.9133,-8.8951,-8.8408,-8.7901,-8.7503,-8.7249,-7.7583,-7.7881,-7.8345,-7.8511,-7.8511,-7.8511,-7.8511,-7.8511,-7.8511,-7.8511,-7.8511,-7.8511,-7.8511,-7.8511,-7.8511,-7.8511,-7.8511,-7.8511,-7.8511,-7.8577,-7.8809,-7.892,-7.9152,-7.9637,-7.9968,-8.0299,-8.0697,-8.1128,-8.1326,-8.1823,-8.2519,-8.2751,-8.2883,-8.2883,-8.2817,-8.2751,-8.2618,-8.2254,-8.1823,-8.1315,-8.0861,-8.046,-8.0088,-7.9872,-7.9947,-8.0173,-8.0476,-8.0526,-8.0641,-8.0853,-8.0951,-8.1063,-8.1111,-8.1651,-8.2222,-8.2855,-8.29,-8.3086,-8.3348,-8.3086,-8.3217,-8.3383,-8.3288,-8.245,-8.1898,-8.1603,-8.1556,-8.1698,-8.245,-8.313,-8.3812,-8.4513,-8.5147,-8.5835,-8.5871,-8.5909,-8.5909,-8.5909,-8.5945,-8.5945,-8.6126,-8.6344,-8.6489,-8.6634,-8.6887,-8.7285,-8.7539,-8.7648,-8.7684,-8.7573,-8.7539,-8.7539,-8.7718,-8.7935,-8.8297,-8.855,-8.8662,-8.8843,-8.9277,-8.935,-8.9096,-8.9169,-8.935,-8.9459,-8.9603,-9.0074,-9.04,-9.0473,-9.0219,-8.9966,-8.9785,-8.9495,-8.8951,-8.8336,-8.8155,-7.7914,-7.8424,-7.8511,-7.8511,-7.8511,-7.8511,-7.8511,-7.8511,-7.8511,-7.8511,-7.8511,-7.8511,-7.8511,-7.8511,-7.8511,-7.8511,-7.8511,-7.8511,-7.8676,-7.8643,-7.9173,-7.9504,-7.9869,-8.0399,-8.073,-8.1028,-8.1426,-8.1889,-8.2055,-8.2419,-8.2718,-8.2883,-8.2883,-8.2883,-8.2883,-8.2883,-8.2784,-8.2684,-8.2343,-8.1901,-8.1857,-8.1521,-8.119,-8.1184,-8.1224,-8.1375,-8.1744,-8.1802,-8.178,-8.2026,-8.2222,-8.2359,-8.2496,-8.2631,-8.3042,-8.3576,-8.3826,-8.4265,-8.4623,-8.4485,-8.4527,-8.4414,-8.3982,-8.398,-8.3939,-8.2771,-8.2405,-8.2496,-8.3086,-8.3564,-8.419,-8.4792,-8.5417,-8.5797,-8.5909,-8.5909,-8.5909,-8.609,-8.6452,-8.6561,-8.6923,-8.7104,-8.7177,-8.7358,-8.772,-8.808,-8.8336,-8.8372,-8.8589,-8.8553,-8.8333,-8.8372,-8.8734,-8.8988,-8.9024,-8.9241,-8.9422,-8.9712,-9.0038,-9.0183,-8.9893,-9.0147,-9.0545,-9.0364,-9.011,-9.0328,-9.0581,-9.0581,-9.0581,-9.0473,-9.0364,-9.0509,-9.0038,-8.9277,-8.9096,-7.8345,-7.8511,-7.8511,-7.8511,-7.8511,-7.8511,-7.8511,-7.8511,-7.8511,-7.8511,-7.8511,-7.8511,-7.8511,-7.8511,-7.8511,-7.8544,-7.861,-7.8709,-7.8854,-7.9272,-7.9703,-8.0167,-8.0498,-8.1161,-8.1492,-8.179,-8.2154,-8.2552,-8.2585,-8.2784,-8.2883,-8.2883,-8.2883,-8.2883,-8.2883,-8.2883,-8.2883,-8.2883,-8.2932,-8.2611,-8.2485,-8.2556,-8.2441,-8.2785,-8.3011,-8.3252,-8.3474,-8.3596,-8.3211,-8.2951,-8.2855,-8.3174,-8.3692,-8.3939,-8.4431,-8.5096,-8.549,-8.5826,-8.6153,-8.6289,-8.6545,-8.6845,-8.6841,-8.6913,-8.6184,-8.4215,-8.3279,-8.3454,-8.3748,-8.4249,-8.4656,-8.5251,-8.5675,-8.5865,-8.6054,-8.6054,-8.6054,-8.6489,-8.6996,-8.7322,-8.7681,-8.7901,-8.7974,-8.8227,-8.8553,-8.8807,-8.9024,-8.9241,-8.9712,-8.9821,-8.9386,-8.9386,-8.9821,-9.0038,-8.9929,-8.9821,-8.9966,-9.011,-9.0364,-9.0509,-9.0618,-9.0618,-9.0618,-9.0618,-9.0545,-9.0618,-9.0618,-9.0618,-9.0618,-9.0618,-9.0618,-9.0618,-9.0618,-9.0002,-9.0074,-7.8511,-7.8511,-7.8511,-7.8511,-7.8511,-7.8511,-7.8511,-7.8511,-7.8511,-7.8511,-7.8511,-7.8511,-7.8511,-7.8511,-7.8511,-7.8809,-7.8908,-7.9007,-7.9504,-7.9968,-8.0432,-8.0863,-8.1359,-8.1889,-8.2188,-8.2453,-8.2618,-8.285,-8.2883,-8.2883,-8.2883,-8.2883,-8.2883,-8.2883,-8.2883,-8.2883,-8.2883,-8.2883,-8.3377,-8.3624,-8.349,-8.3795,-8.4216,-8.4633,-8.4959,-8.5203,-8.5278,-8.5348,-8.5135,-8.4632,-8.4541,-8.4474,-8.4895,-8.5028,-8.5516,-8.615,-8.6663,-8.7177,-8.7575,-8.7974,-8.8297,-8.8333,-8.8224,-8.7772,-8.7739,-8.5994,-8.5918,-8.6041,-8.6117,-8.6517,-8.6517,-8.6944,-8.7058,-8.7175,-8.7213,-8.7213,-8.7249,-8.743,-8.7684,-8.779,-8.8263,-8.8734,-8.8915,-8.935,-8.9603,-8.9748,-8.9893,-8.9857,-9.0364,-9.0618,-9.0292,-9.0147,-9.04,-9.0545,-9.0364,-9.0328,-9.04,-9.0545,-9.0618,-9.0618,-9.0618,-9.0618,-9.0618,-9.0618,-9.0618,-9.0618,-9.0618,-9.0618,-9.0618,-9.0618,-9.0618,-9.0618,-9.0618,-9.0618,-9.0509,-7.8511,-7.8511,-7.8511,-7.8511,-7.8511,-7.8511,-7.8511,-7.8511,-7.8511,-7.8511,-7.8511,-7.8511,-7.8511,-7.8511,-7.8676,-7.914,-7.9471,-7.967,-8.0167,-8.0829,-8.1393,-8.1658,-8.2022,-8.2519,-8.2684,-8.2751,-8.285,-8.2883,-8.2883,-8.2883,-8.2883,-8.2883,-8.2883,-8.2883,-8.2883,-8.2883,-8.294,-8.3377,-8.4022,-8.4982,-8.5344,-8.5634,-8.6047,-8.6464,-8.6818,-8.6913,-8.7052,-8.7097,-8.7139,-8.6704,-8.6281,-8.6177,-8.6171,-8.6333,-8.6588,-8.7141,-8.7503,-8.7937,-8.83,-8.8662,-8.8734,-8.8662,-8.8478,-8.8478,-8.8478,-8.8439,-8.8327,-8.8291,-8.833,-8.8077,-8.8077,-8.8077,-8.8116,-8.8116,-8.8116,-8.8224,-8.83,-8.8372,-8.8408,-8.8442,-8.8951,-8.9495,-8.9785,-9.0255,-9.04,-9.0545,-9.0618,-9.0618,-9.0618,-9.0618,-9.0473,-9.0364,-9.0509,-9.0581,-9.0618,-9.0618,-9.0618,-9.0618,-9.0618,-9.0618,-9.0618,-9.0618,-9.0618,-9.0618,-9.0618,-9.0618,-9.0618,-9.0618,-9.0618,-9.0618,-9.0618,-9.0618,-9.0618,-9.0618,-9.0618,-7.8511,-7.8511,-7.8511,-7.8511,-7.8511,-7.8511,-7.8511,-7.8511,-7.8511,-7.8511,-7.8511,-7.8511,-7.8511,-7.8544,-7.9206,-7.967,-7.9968,-8.0266,-8.0896,-8.1591,-8.1856,-8.2221,-8.2519,-8.2751,-8.285,-8.2883,-8.2883,-8.2883,-8.2883,-8.2883,-8.2883,-8.2883,-8.2883,-8.2883,-8.2916,-8.2996,-8.3299,-8.3838,-8.4755,-8.5717,-8.69,-8.7316,-8.7609,-8.8108,-8.8596,-8.8768,-8.887,-8.8931,-8.8498,-8.81,-8.7732,-8.7634,-8.7495,-8.7467,-8.7684,-8.7974,-8.8336,-8.877,-8.9133,-8.9567,-8.964,-8.9785,-8.9785,-8.9821,-8.9857,-8.9857,-8.9745,-8.9564,-8.9347,-8.8586,-8.8442,-8.8442,-8.8442,-8.8442,-8.8442,-8.8807,-8.9024,-8.9169,-8.9314,-8.9603,-9.0002,-9.0219,-9.0255,-9.0509,-9.0509,-9.0618,-9.0618,-9.0618,-9.0618,-9.0618,-9.0618,-9.0618,-9.0618,-9.0618,-9.0618,-9.0618,-9.0618,-9.0618,-9.0618,-9.0618,-9.0618,-9.0618,-9.0618,-9.0618,-9.0618,-9.0618,-9.0618,-9.0618,-9.0618,-9.0618,-9.0618,-9.0618,-9.0618,-9.0618,-9.0618]},{"header":{"parameterUnit":"m.s-1","parameterCategory":1,"la1":31.0,"la2":29.5877,"lo1":-88.7671,"lo2":-86.6584,"dy":0.0162,"dx":0.0185,"nx":115,"ny":88,"refTime":"2023-02-23T18:00:00:Z","depth":0,"parameterNumber":3,"parameterNumberName":"V-component_of_WINDS"},"data":[0.0,0.0,0.0,0.0,0.0,0.0,0.0,0.0,0.0,0.0,0.0,0.0,0.0,0.0,0.0,0.0,0.0,0.0,0.0,0.0,0.0,0.0,0.0,0.0,0.0,0.0,0.0,0.0,0.0,0.0,0.0,0.0,0.0,0.0,0.0,0.0,0.0,0.0,0.0,0.0,0.0,0.0,0.0,0.0,0.0,0.0,0.0,0.0,0.0,0.0,0.0,0.0,0.0,0.0,0.0,0.0,0.0,0.0,0.0,0.0,0.0,0.0,0.0,0.0,0.0,0.0,0.0,0.0,0.0,0.0,0.0,0.0,0.0,0.0,0.0,0.0,0.0,0.0,0.0,0.0,0.0,0.0,0.0,0.0,0.0,0.0,0.0,0.0,0.0,0.0,0.0,0.0,0.0,0.0,0.0,0.0,0.0,0.0,0.0,0.0,0.0,0.0,0.0,0.0,0.0,0.0,0.0,0.0,0.0,0.0,0.0,0.0,0.0,0.0,0.0,0.0,0.0,0.0,0.0,0.0,0.0,0.0,0.0,0.0,0.0,0.0,0.0,0.0,0.0,0.0,0.0,0.0,0.0,0.0,0.0,0.0,0.0,0.0,0.0,0.0,0.0,0.0,0.0,0.0,0.0,0.0,0.0,0.0,0.0,0.0,0.0,0.0,0.0,0.0,0.0,0.0,0.0,0.0,0.0,0.0,0.0,0.0,0.0,0.0,0.0,0.0,0.0,0.0,0.0,0.0,0.0,0.0,0.0,0.0,0.0,0.0,0.0,0.0,0.0,0.0,0.0,0.0,0.0,0.0,0.0,0.0,0.0,0.0,0.0,0.0,0.0,0.0,0.0,0.0,0.0,0.0,0.0,0.0,0.0,0.0,0.0,0.0,0.0,0.0,0.0,0.0,0.0,0.0,0.0,0.0,0.0,0.0,0.0,0.0,0.0,0.0,0.0,0.0,0.0,0.0,0.0,0.0,0.0,0.0,0.0,0.0,0.0,0.0,0.0,0.0,0.0,0.0,0.0,0.0,0.0,0.0,0.0,0.0,0.0,0.0,0.0,0.0,0.0,0.0,0.0,0.0,0.0,0.0,0.0,0.0,0.0,0.0,0.0,0.0,0.0,0.0,0.0,0.0,0.0,0.0,0.0,0.0,0.0,0.0,0.0,0.0,0.0,0.0,0.0,0.0,0.0,0.0,0.0,0.0,0.0,0.0,0.0,0.0,0.0,0.0,0.0,0.0,0.0,0.0,0.0,0.0,0.0,0.0,0.0,0.0,0.0,0.0,0.0,0.0,0.0,0.0,0.0,0.0,0.0,0.0,0.0,0.0,0.0,0.0,0.0,0.0,0.0,0.0,0.0,0.0,0.0,0.0,0.0,0.0,0.0,0.0,0.0,0.0,0.0,0.0,0.0,0.0,0.0,0.0,0.0,0.0,0.0,0.0,0.0,0.0,0.0,0.0,0.0,0.0,0.0,0.0,0.0,0.0,0.0,0.0,0.0,0.0,0.0,0.0,0.0,0.0,0.0,0.0,0.0,0.0,0.0,0.0,0.0,0.0,0.0,0.0,0.0,0.0,0.0,0.0,0.0,0.0,0.0,0.0,0.0,0.0,0.0,0.0,0.0,0.0,0.0,0.0,0.0,0.0,0.0,0.0,0.0,0.0,0.0,0.0,0.0,0.0,0.0,0.0,0.0,0.0,0.0,0.0,0.0,0.0,0.0,0.0,0.0,0.0,0.0,0.0,0.0,0.0,0.0,0.0,0.0,0.0,0.0,0.0,0.0,0.0,0.0,0.0,0.0,0.0,0.0,0.0,0.0,0.0,0.0,0.0,0.0,0.0,0.0,0.0,0.0,0.0,0.0,0.0,0.0,0.0,0.0,0.0,0.0,0.0,0.0,0.0,0.0,0.0,0.0,0.0,0.0,0.0,0.0,0.0,0.0,0.0,0.0,0.0,0.0,0.0,0.0,0.0,0.0,0.0,0.0,0.0,0.0,0.0,0.0,0.0,0.0,0.0,0.0,0.0,0.0,0.0,0.0,0.0,0.0,0.0,0.0,0.0,0.0,0.0,0.0,0.0,0.0,0.0,0.0,0.0,0.0,0.0,0.0,0.0,0.0,0.0,0.0,0.0,0.0,0.0,0.0,0.0,0.0,0.0,0.0,0.0,0.0,0.0,0.0,0.0,0.0,0.0,0.0,0.0,0.0,0.0,0.0,0.0,0.0,0.0,0.0,0.0,0.0,0.0,0.0,0.0,0.0,0.0,0.0,0.0,0.0,0.0,0.0,0.0,0.0,0.0,0.0,0.0,0.0,0.0,0.0,0.0,0.0,0.0,0.0,0.0,0.0,0.0,0.0,0.0,0.0,0.0,0.0,0.0,0.0,0.0,0.0,0.0,0.0,0.0,0.0,0.0,0.0,0.0,0.0,0.0,0.0,0.0,0.0,0.0,0.0,0.0,0.0,0.0,0.0,0.0,0.0,0.0,0.0,0.0,0.0,0.0,0.0,0.0,0.0,0.0,0.0,0.0,0.0,0.0,0.0,0.0,0.0,0.0,0.0,0.0,0.0,0.0,0.0,0.0,0.0,0.0,0.0,0.0,0.0,0.0,0.0,0.0,0.0,0.0,0.0,0.0,0.0,0.0,0.0,0.0,0.0,0.0,0.0,0.0,0.0,0.0,0.0,0.0,0.0,0.0,0.0,0.0,0.0,0.0,0.0,0.0,0.0,0.0,0.0,0.0,0.0,0.0,0.0,0.0,0.0,0.0,0.0,0.0,0.0,0.0,0.0,0.0,0.0,0.0,0.0,0.0,0.0,0.0,0.0,0.0,0.0,0.0,0.0,0.0,0.0,0.0,0.0,0.0,0.0,0.0,0.0,0.0,0.0,0.0,0.0,0.0,0.0,0.0,0.0,0.0,0.0,0.0,0.0,0.0,0.0,0.0,0.0,0.0,0.0,0.0,0.0,0.0,0.0,0.0,0.0,0.0,0.0,0.0,0.0,0.0,0.0,0.0,0.0,0.0,0.0,0.0,0.0,0.0,0.0,0.0,0.0,0.0,0.0,0.0,0.0,0.0,0.0,0.0,0.0,0.0,0.0,0.0,0.0,0.0,0.0,0.0,0.0,0.0,0.0,0.0,0.0,0.0,0.0,0.0,0.0,0.0,0.0,0.0,0.0,0.0,0.0,0.0,0.0,0.0,0.0,0.0,0.0,0.0,0.0,0.0,0.0,0.0,0.0,0.0,0.0,0.0,0.0,0.0,0.0,0.0,0.0,0.0,0.0,0.0,0.0,0.0,0.0,0.0,0.0,0.0,0.0,0.0,0.0,0.0,0.0,0.0,0.0,0.0,0.0,0.0,0.0,0.0,0.0,0.0,0.0,0.0,0.0,0.0,0.0,0.0,0.0,0.0,0.0,0.0,0.0,0.0,0.0,0.0,0.0,0.0,0.0,0.0,0.0,0.0,0.0,0.0,0.0,0.0,0.0,0.0,0.0,0.0,0.0,0.0,0.0,0.0,0.0,0.0,0.0,0.0,0.0,0.0,0.0,0.0,0.0,0.0,0.0,0.0,0.0,0.0,0.0,0.0,0.0,0.0,0.0,0.0,0.0,0.0,0.0,0.0,0.0,0.0,0.0,0.0,0.0,0.0,0.0,0.0,0.0,0.0,0.0,0.0,0.0,0.0,0.0,0.0,0.0,0.0,0.0,0.0,0.0,0.0,0.0,0.0,0.0,0.0,0.0,0.0,0.0,0.0,0.0,0.0,0.0,0.0,0.0,0.0,0.0,0.0,0.0,0.0,0.0,0.0,0.0,0.0,0.0,0.0,0.0,0.0,0.0,0.0,0.0,0.0,0.0,0.0,0.0,0.0,0.0,0.0,0.0,0.0,0.0,0.0,0.0,0.0,0.0,0.0,0.0,0.0,0.0,0.0,0.0,0.0,0.0,0.0,0.0,0.0,0.0,0.0,0.0,0.0,0.0,0.0,0.0,0.0,0.0,0.0,0.0,0.0,0.0,0.0,0.0,0.0,0.0,0.0,0.0,0.0,0.0,0.0,0.0,0.0,0.0,0.0,0.0,0.0,0.0,0.0,0.0,0.0,0.0,0.0,0.0,0.0,0.0,0.0,0.0,0.0,0.0,0.0,0.0,0.0,0.0,0.0,0.0,0.0,0.0,0.0,0.0,0.0,0.0,0.0,0.0,0.0,0.0,0.0,0.0,0.0,0.0,0.0,0.0,0.0,0.0,0.0,0.0,0.0,-4.9059,0.0,0.0,0.0,0.0,0.0,0.0,0.0,0.0,0.0,0.0,0.0,0.0,0.0,0.0,0.0,0.0,0.0,0.0,0.0,0.0,0.0,0.0,0.0,0.0,0.0,0.0,0.0,0.0,0.0,0.0,0.0,0.0,0.0,0.0,0.0,0.0,0.0,0.0,0.0,0.0,0.0,0.0,0.0,0.0,0.0,0.0,0.0,0.0,0.0,0.0,0.0,0.0,0.0,0.0,0.0,0.0,0.0,0.0,0.0,0.0,0.0,0.0,0.0,0.0,0.0,0.0,0.0,0.0,0.0,0.0,0.0,0.0,0.0,0.0,0.0,0.0,0.0,0.0,0.0,0.0,0.0,0.0,0.0,0.0,0.0,0.0,0.0,0.0,0.0,0.0,0.0,0.0,0.0,0.0,0.0,0.0,0.0,0.0,0.0,0.0,0.0,0.0,0.0,0.0,0.0,0.0,0.0,0.0,0.0,0.0,-4.9059,-4.9059,-4.9059,-4.9059,-4.9059,0.0,0.0,0.0,0.0,0.0,0.0,0.0,0.0,0.0,0.0,0.0,0.0,0.0,0.0,0.0,0.0,0.0,0.0,0.0,0.0,0.0,0.0,0.0,0.0,0.0,0.0,0.0,0.0,0.0,0.0,0.0,0.0,0.0,0.0,0.0,0.0,0.0,0.0,0.0,0.0,0.0,0.0,0.0,0.0,0.0,0.0,0.0,0.0,0.0,0.0,0.0,0.0,0.0,0.0,0.0,0.0,0.0,0.0,0.0,0.0,0.0,0.0,0.0,0.0,0.0,0.0,0.0,0.0,0.0,0.0,0.0,0.0,0.0,0.0,0.0,0.0,0.0,0.0,0.0,0.0,0.0,0.0,0.0,0.0,0.0,0.0,0.0,0.0,0.0,0.0,0.0,0.0,0.0,0.0,0.0,0.0,0.0,0.0,0.0,0.0,0.0,0.0,0.0,0.0,0.0,0.0,0.0,0.0,0.0,0.0,0.0,0.0,-4.9059,-4.9059,-4.9059,0.0,0.0,0.0,0.0,0.0,0.0,0.0,0.0,0.0,0.0,0.0,0.0,0.0,0.0,0.0,0.0,0.0,0.0,0.0,0.0,0.0,0.0,0.0,0.0,0.0,0.0,0.0,0.0,0.0,0.0,0.0,0.0,0.0,0.0,0.0,0.0,0.0,0.0,0.0,0.0,0.0,0.0,0.0,0.0,0.0,0.0,0.0,0.0,0.0,0.0,0.0,0.0,0.0,0.0,0.0,0.0,0.0,0.0,0.0,0.0,0.0,0.0,0.0,0.0,0.0,0.0,0.0,0.0,0.0,0.0,0.0,0.0,0.0,0.0,0.0,0.0,0.0,0.0,0.0,0.0,0.0,0.0,0.0,0.0,0.0,0.0,0.0,0.0,0.0,0.0,0.0,0.0,0.0,0.0,0.0,0.0,0.0,0.0,0.0,0.0,0.0,0.0,0.0,0.0,0.0,0.0,0.0,0.0,0.0,0.0,-4.9059,-4.9059,-4.9059,0.0,-4.9059,0.0,0.0,0.0,0.0,0.0,0.0,0.0,0.0,0.0,0.0,0.0,0.0,0.0,0.0,0.0,0.0,0.0,0.0,0.0,0.0,0.0,0.0,0.0,0.0,0.0,0.0,0.0,0.0,0.0,0.0,0.0,0.0,0.0,0.0,0.0,0.0,0.0,0.0,0.0,0.0,0.0,0.0,0.0,0.0,0.0,0.0,0.0,0.0,0.0,0.0,0.0,0.0,0.0,0.0,0.0,0.0,0.0,0.0,0.0,0.0,0.0,0.0,0.0,0.0,0.0,0.0,0.0,0.0,0.0,0.0,0.0,0.0,0.0,0.0,0.0,0.0,0.0,0.0,0.0,0.0,0.0,0.0,0.0,0.0,0.0,0.0,0.0,0.0,0.0,0.0,0.0,0.0,0.0,0.0,0.0,0.0,0.0,0.0,0.0,0.0,0.0,0.0,0.0,0.0,0.0,0.0,0.0,0.0,0.0,0.0,-4.9059,-4.9059,-4.9059,-4.9059,0.0,0.0,0.0,0.0,0.0,0.0,0.0,0.0,0.0,0.0,0.0,0.0,0.0,0.0,0.0,0.0,0.0,0.0,0.0,0.0,0.0,0.0,0.0,0.0,0.0,0.0,0.0,0.0,0.0,0.0,0.0,0.0,0.0,0.0,0.0,0.0,0.0,0.0,0.0,0.0,0.0,0.0,0.0,0.0,0.0,0.0,0.0,0.0,0.0,0.0,0.0,0.0,0.0,0.0,0.0,0.0,0.0,0.0,0.0,0.0,0.0,0.0,0.0,0.0,0.0,0.0,0.0,0.0,0.0,0.0,0.0,0.0,0.0,0.0,0.0,0.0,0.0,0.0,0.0,0.0,0.0,0.0,0.0,0.0,0.0,0.0,0.0,0.0,0.0,0.0,0.0,0.0,0.0,0.0,0.0,0.0,0.0,0.0,0.0,0.0,0.0,0.0,0.0,0.0,0.0,0.0,0.0,0.0,0.0,0.0,-4.9059,-4.9059,-4.9059,-4.9059,-4.9059,-4.9059,0.0,0.0,0.0,0.0,0.0,0.0,0.0,0.0,0.0,0.0,0.0,0.0,0.0,0.0,0.0,0.0,0.0,0.0,0.0,0.0,0.0,0.0,0.0,0.0,0.0,0.0,0.0,0.0,0.0,0.0,0.0,0.0,0.0,0.0,0.0,0.0,0.0,0.0,0.0,0.0,0.0,0.0,0.0,0.0,0.0,0.0,0.0,0.0,0.0,0.0,0.0,0.0,0.0,0.0,0.0,0.0,0.0,0.0,0.0,0.0,0.0,0.0,0.0,0.0,0.0,0.0,0.0,0.0,0.0,0.0,0.0,0.0,0.0,0.0,0.0,0.0,0.0,0.0,0.0,0.0,0.0,0.0,0.0,0.0,0.0,0.0,0.0,0.0,0.0,0.0,0.0,0.0,0.0,0.0,0.0,0.0,0.0,0.0,0.0,0.0,0.0,0.0,0.0,0.0,0.0,0.0,0.0,0.0,-4.9059,-4.9059,-4.9059,-4.9059,-4.9059,-4.9059,0.0,0.0,0.0,0.0,0.0,0.0,0.0,0.0,0.0,0.0,0.0,0.0,0.0,0.0,0.0,0.0,0.0,0.0,0.0,0.0,0.0,0.0,0.0,0.0,0.0,0.0,0.0,0.0,0.0,0.0,0.0,0.0,0.0,0.0,0.0,0.0,0.0,0.0,0.0,0.0,0.0,0.0,0.0,0.0,0.0,0.0,0.0,0.0,0.0,0.0,0.0,0.0,0.0,0.0,0.0,0.0,0.0,0.0,0.0,0.0,0.0,0.0,0.0,0.0,0.0,0.0,0.0,0.0,0.0,0.0,0.0,0.0,0.0,0.0,0.0,0.0,0.0,0.0,0.0,0.0,0.0,0.0,0.0,0.0,0.0,0.0,0.0,0.0,0.0,0.0,0.0,0.0,0.0,0.0,0.0,0.0,0.0,0.0,0.0,0.0,0.0,0.0,0.0,0.0,0.0,0.0,0.0,0.0,0.0,-4.9059,-4.9059,-4.9059,-4.9059,-4.9059,-4.9059,0.0,0.0,0.0,0.0,0.0,0.0,0.0,0.0,0.0,0.0,0.0,0.0,0.0,0.0,0.0,0.0,0.0,0.0,0.0,0.0,0.0,0.0,0.0,0.0,0.0,0.0,0.0,0.0,0.0,0.0,0.0,0.0,0.0,0.0,0.0,0.0,0.0,0.0,0.0,0.0,0.0,0.0,0.0,0.0,0.0,0.0,0.0,0.0,0.0,0.0,0.0,0.0,0.0,0.0,0.0,0.0,0.0,0.0,0.0,0.0,0.0,0.0,0.0,0.0,0.0,0.0,0.0,0.0,0.0,0.0,0.0,0.0,0.0,0.0,0.0,0.0,0.0,0.0,0.0,0.0,0.0,0.0,0.0,0.0,0.0,0.0,0.0,0.0,0.0,0.0,0.0,0.0,0.0,0.0,0.0,0.0,0.0,0.0,0.0,0.0,0.0,0.0,0.0,0.0,0.0,0.0,0.0,0.0,0.0,-4.9059,0.0,-4.9059,-4.9059,-4.9059,-4.9059,0.0,0.0,0.0,0.0,0.0,0.0,0.0,0.0,0.0,0.0,0.0,0.0,0.0,0.0,0.0,0.0,0.0,0.0,0.0,0.0,0.0,0.0,0.0,0.0,0.0,0.0,0.0,0.0,0.0,0.0,0.0,0.0,0.0,0.0,0.0,0.0,0.0,0.0,0.0,0.0,0.0,0.0,0.0,0.0,0.0,0.0,0.0,0.0,0.0,0.0,0.0,0.0,0.0,0.0,0.0,0.0,0.0,0.0,0.0,0.0,0.0,0.0,0.0,0.0,0.0,0.0,0.0,0.0,0.0,0.0,0.0,0.0,0.0,0.0,0.0,0.0,0.0,0.0,0.0,0.0,0.0,0.0,0.0,0.0,0.0,0.0,0.0,0.0,0.0,0.0,0.0,0.0,0.0,0.0,0.0,0.0,0.0,0.0,0.0,0.0,0.0,0.0,0.0,0.0,0.0,0.0,0.0,0.0,-4.9059,-4.9059,-4.9059,-4.9059,-4.9059,-4.9059,-4.9059,0.0,0.0,0.0,0.0,0.0,0.0,0.0,0.0,0.0,0.0,0.0,0.0,0.0,0.0,0.0,0.0,0.0,0.0,0.0,0.0,0.0,0.0,0.0,0.0,0.0,0.0,0.0,0.0,0.0,0.0,0.0,0.0,0.0,0.0,0.0,0.0,0.0,0.0,0.0,0.0,0.0,0.0,0.0,0.0,0.0,0.0,0.0,0.0,0.0,0.0,0.0,0.0,0.0,0.0,0.0,0.0,0.0,0.0,0.0,0.0,0.0,0.0,0.0,0.0,0.0,0.0,0.0,0.0,0.0,0.0,0.0,0.0,0.0,0.0,0.0,0.0,0.0,0.0,0.0,0.0,0.0,0.0,0.0,0.0,0.0,0.0,0.0,0.0,0.0,0.0,0.0,0.0,0.0,0.0,0.0,0.0,0.0,0.0,0.0,0.0,0.0,0.0,0.0,0.0,0.0,0.0,0.0,0.0,0.0,-4.9059,-4.9059,-4.9059,-4.9059,-4.9059,-4.9059,0.0,0.0,0.0,0.0,0.0,0.0,0.0,0.0,0.0,0.0,0.0,0.0,0.0,0.0,0.0,0.0,0.0,0.0,0.0,0.0,0.0,0.0,0.0,0.0,0.0,0.0,0.0,0.0,0.0,0.0,0.0,0.0,0.0,0.0,0.0,0.0,0.0,0.0,0.0,0.0,0.0,0.0,0.0,0.0,0.0,0.0,0.0,0.0,0.0,0.0,0.0,0.0,0.0,0.0,0.0,0.0,0.0,0.0,0.0,0.0,0.0,0.0,0.0,0.0,0.0,0.0,0.0,0.0,0.0,0.0,0.0,0.0,0.0,0.0,0.0,0.0,0.0,0.0,0.0,0.0,0.0,0.0,0.0,0.0,0.0,0.0,0.0,0.0,0.0,0.0,0.0,0.0,0.0,0.0,0.0,0.0,0.0,0.0,0.0,0.0,0.0,0.0,0.0,0.0,0.0,0.0,0.0,0.0,0.0,-4.9059,-4.9059,-4.9059,-4.9059,-4.9059,-4.9059,-4.9059,0.0,0.0,0.0,0.0,0.0,0.0,0.0,0.0,0.0,0.0,0.0,0.0,0.0,0.0,0.0,0.0,0.0,0.0,0.0,0.0,0.0,0.0,0.0,0.0,0.0,0.0,0.0,0.0,0.0,0.0,0.0,0.0,0.0,0.0,0.0,0.0,0.0,0.0,0.0,0.0,0.0,0.0,0.0,0.0,0.0,0.0,0.0,0.0,0.0,0.0,0.0,0.0,0.0,0.0,0.0,0.0,0.0,0.0,0.0,0.0,0.0,0.0,0.0,0.0,0.0,0.0,0.0,0.0,0.0,0.0,0.0,0.0,0.0,0.0,0.0,0.0,0.0,0.0,0.0,0.0,0.0,0.0,0.0,0.0,0.0,0.0,0.0,0.0,0.0,0.0,0.0,0.0,0.0,0.0,0.0,0.0,0.0,0.0,0.0,0.0,0.0,0.0,0.0,0.0,0.0,0.0,0.0,0.0,-4.9059,-4.9059,-4.9059,-4.9059,-4.9059,-4.9059,0.0,0.0,0.0,0.0,0.0,0.0,0.0,0.0,0.0,0.0,0.0,0.0,0.0,0.0,0.0,0.0,0.0,0.0,0.0,0.0,0.0,0.0,0.0,0.0,0.0,0.0,0.0,0.0,0.0,0.0,0.0,0.0,0.0,0.0,0.0,0.0,0.0,0.0,0.0,0.0,0.0,0.0,0.0,0.0,0.0,0.0,0.0,0.0,0.0,0.0,0.0,0.0,0.0,0.0,0.0,0.0,0.0,0.0,0.0,0.0,0.0,0.0,0.0,0.0,0.0,0.0,0.0,0.0,0.0,0.0,0.0,0.0,0.0,0.0,0.0,0.0,0.0,0.0,0.0,0.0,0.0,0.0,0.0,0.0,0.0,0.0,0.0,0.0,0.0,0.0,0.0,0.0,0.0,0.0,0.0,0.0,0.0,0.0,0.0,0.0,0.0,0.0,0.0,0.0,0.0,0.0,0.0,0.0,0.0,-4.9059,-4.9059,-4.9059,-4.9059,-4.9059,-4.9059,0.0,0.0,0.0,0.0,0.0,0.0,0.0,0.0,0.0,0.0,0.0,0.0,0.0,0.0,0.0,0.0,0.0,0.0,0.0,0.0,0.0,0.0,0.0,0.0,0.0,0.0,0.0,0.0,0.0,0.0,0.0,0.0,0.0,0.0,0.0,0.0,0.0,0.0,0.0,0.0,0.0,0.0,0.0,0.0,0.0,0.0,0.0,0.0,0.0,0.0,0.0,0.0,0.0,0.0,0.0,0.0,0.0,0.0,0.0,0.0,0.0,0.0,0.0,0.0,0.0,0.0,0.0,0.0,0.0,0.0,0.0,0.0,0.0,0.0,0.0,0.0,0.0,0.0,0.0,0.0,0.0,0.0,0.0,0.0,0.0,0.0,0.0,0.0,0.0,0.0,0.0,0.0,0.0,0.0,0.0,0.0,0.0,0.0,0.0,0.0,0.0,0.0,0.0,0.0,0.0,0.0,0.0,0.0,-4.9059,-4.9059,-4.9059,-4.9059,-4.9059,-4.9059,-4.9059,0.0,0.0,0.0,0.0,0.0,0.0,0.0,0.0,0.0,0.0,0.0,0.0,0.0,0.0,0.0,0.0,0.0,0.0,0.0,0.0,0.0,0.0,0.0,0.0,0.0,0.0,0.0,0.0,0.0,0.0,0.0,0.0,0.0,0.0,0.0,0.0,0.0,0.0,0.0,0.0,0.0,0.0,0.0,0.0,0.0,0.0,0.0,0.0,0.0,0.0,0.0,0.0,0.0,0.0,0.0,0.0,0.0,0.0,0.0,0.0,0.0,0.0,0.0,0.0,0.0,0.0,0.0,0.0,0.0,0.0,0.0,0.0,0.0,0.0,0.0,0.0,0.0,0.0,0.0,0.0,0.0,0.0,0.0,0.0,0.0,0.0,0.0,0.0,0.0,0.0,0.0,0.0,0.0,0.0,0.0,0.0,0.0,0.0,0.0,0.0,0.0,0.0,0.0,0.0,0.0,0.0,0.0,0.0,-4.9059,-4.9059,-4.9059,-4.9059,-4.9059,-4.9059,-4.9059,0.0,0.0,0.0,0.0,0.0,0.0,0.0,0.0,0.0,0.0,0.0,0.0,0.0,0.0,0.0,0.0,0.0,0.0,0.0,0.0,0.0,0.0,0.0,0.0,0.0,0.0,0.0,0.0,0.0,0.0,0.0,0.0,0.0,0.0,0.0,0.0,0.0,0.0,0.0,0.0,0.0,0.0,0.0,0.0,0.0,0.0,0.0,0.0,0.0,0.0,0.0,0.0,0.0,0.0,0.0,0.0,0.0,0.0,0.0,0.0,0.0,0.0,0.0,0.0,0.0,0.0,0.0,0.0,0.0,0.0,0.0,0.0,0.0,0.0,0.0,0.0,0.0,0.0,0.0,0.0,0.0,0.0,0.0,0.0,0.0,0.0,0.0,0.0,0.0,0.0,0.0,0.0,0.0,0.0,0.0,0.0,0.0,0.0,0.0,0.0,0.0,0.0,0.0,0.0,0.0,0.0,0.0,0.0,-4.9059,-4.9059,-4.9059,-4.9059,-4.9059,-4.9059,-4.9059,0.0,0.0,0.0,0.0,0.0,0.0,0.0,0.0,0.0,0.0,0.0,0.0,0.0,0.0,0.0,0.0,0.0,0.0,0.0,0.0,0.0,0.0,0.0,0.0,0.0,0.0,0.0,0.0,0.0,0.0,0.0,0.0,0.0,0.0,0.0,0.0,0.0,0.0,0.0,0.0,0.0,0.0,0.0,0.0,0.0,0.0,0.0,0.0,-4.7817,0.0,0.0,0.0,0.0,0.0,0.0,0.0,0.0,0.0,0.0,0.0,0.0,0.0,0.0,0.0,0.0,0.0,0.0,0.0,0.0,0.0,0.0,0.0,0.0,0.0,0.0,0.0,0.0,0.0,0.0,0.0,0.0,0.0,0.0,0.0,0.0,0.0,0.0,0.0,0.0,0.0,0.0,0.0,0.0,0.0,0.0,0.0,0.0,0.0,0.0,0.0,0.0,0.0,0.0,0.0,0.0,0.0,0.0,0.0,-4.9059,-4.9059,-4.9059,-4.9059,-4.9059,-4.9059,-4.9059,0.0,0.0,0.0,0.0,0.0,0.0,0.0,0.0,0.0,0.0,0.0,0.0,0.0,0.0,0.0,0.0,0.0,0.0,0.0,0.0,0.0,0.0,0.0,0.0,0.0,0.0,0.0,0.0,0.0,0.0,0.0,0.0,0.0,0.0,0.0,0.0,0.0,0.0,0.0,0.0,0.0,0.0,0.0,0.0,0.0,0.0,0.0,0.0,0.0,0.0,0.0,0.0,0.0,0.0,0.0,0.0,0.0,0.0,0.0,0.0,0.0,0.0,0.0,0.0,0.0,0.0,0.0,0.0,0.0,0.0,0.0,0.0,0.0,0.0,0.0,0.0,0.0,0.0,0.0,0.0,0.0,0.0,0.0,0.0,0.0,0.0,0.0,0.0,0.0,0.0,0.0,0.0,0.0,0.0,0.0,0.0,0.0,0.0,0.0,0.0,0.0,0.0,0.0,0.0,0.0,0.0,0.0,-4.9059,-4.8973,-4.9059,-4.9059,-4.9059,-4.9059,-4.9059,-4.9059,-4.9059,0.0,0.0,0.0,0.0,0.0,0.0,0.0,0.0,0.0,0.0,0.0,0.0,0.0,0.0,0.0,0.0,0.0,0.0,0.0,0.0,0.0,0.0,0.0,0.0,0.0,0.0,0.0,0.0,0.0,0.0,0.0,0.0,0.0,0.0,0.0,0.0,0.0,0.0,-4.7486,-4.7486,0.0,0.0,0.0,0.0,0.0,0.0,0.0,0.0,-4.6927,0.0,0.0,0.0,0.0,0.0,0.0,0.0,0.0,0.0,0.0,0.0,0.0,0.0,0.0,0.0,0.0,0.0,0.0,0.0,0.0,0.0,0.0,0.0,0.0,0.0,0.0,0.0,0.0,0.0,0.0,0.0,0.0,0.0,0.0,0.0,0.0,0.0,0.0,0.0,0.0,0.0,0.0,0.0,0.0,0.0,0.0,0.0,0.0,0.0,0.0,0.0,0.0,0.0,0.0,0.0,0.0,-4.9059,-4.8716,-4.8716,-4.9059,-4.8716,-4.8716,-4.9059,-4.9059,-4.9059,-4.9059,0.0,0.0,0.0,0.0,0.0,0.0,0.0,0.0,0.0,0.0,0.0,0.0,0.0,0.0,0.0,0.0,0.0,0.0,0.0,0.0,0.0,0.0,0.0,0.0,0.0,0.0,0.0,0.0,0.0,0.0,0.0,0.0,0.0,0.0,0.0,0.0,0.0,0.0,0.0,-4.6473,-4.6533,0.0,0.0,0.0,0.0,0.0,0.0,0.0,0.0,-4.6555,0.0,0.0,0.0,0.0,0.0,0.0,0.0,0.0,0.0,0.0,0.0,0.0,0.0,0.0,0.0,0.0,0.0,0.0,0.0,0.0,0.0,0.0,0.0,0.0,0.0,0.0,0.0,0.0,0.0,0.0,0.0,0.0,0.0,0.0,0.0,0.0,0.0,0.0,0.0,0.0,0.0,0.0,0.0,0.0,0.0,0.0,0.0,0.0,0.0,0.0,0.0,0.0,0.0,0.0,0.0,-4.9059,-4.8887,-4.8887,-4.9059,-4.8887,-4.8887,-4.9059,-4.9059,-4.9059,0.0,0.0,0.0,0.0,0.0,0.0,0.0,0.0,0.0,0.0,0.0,0.0,0.0,0.0,0.0,0.0,0.0,0.0,0.0,0.0,0.0,0.0,0.0,0.0,0.0,0.0,0.0,0.0,0.0,0.0,0.0,0.0,0.0,0.0,0.0,0.0,0.0,0.0,0.0,0.0,-4.6266,-4.6266,-4.6266,0.0,0.0,0.0,0.0,0.0,0.0,-4.6266,-4.6349,0.0,0.0,0.0,0.0,0.0,0.0,0.0,0.0,0.0,0.0,0.0,0.0,0.0,0.0,0.0,0.0,0.0,0.0,0.0,0.0,0.0,0.0,0.0,0.0,0.0,0.0,0.0,0.0,0.0,0.0,0.0,0.0,0.0,0.0,0.0,0.0,0.0,0.0,0.0,0.0,0.0,0.0,0.0,0.0,0.0,0.0,0.0,0.0,0.0,0.0,0.0,0.0,0.0,0.0,0.0,-4.9059,-4.8973,-4.8973,-4.9059,-4.8973,-4.8973,-4.9059,-4.9059,-4.9059,0.0,0.0,0.0,0.0,0.0,0.0,0.0,0.0,0.0,0.0,0.0,0.0,0.0,0.0,0.0,0.0,0.0,0.0,0.0,0.0,0.0,0.0,0.0,0.0,0.0,0.0,0.0,0.0,0.0,0.0,0.0,0.0,0.0,0.0,0.0,0.0,0.0,0.0,0.0,0.0,0.0,-4.6266,-4.6266,-4.6266,0.0,0.0,0.0,0.0,-4.6266,-4.6266,0.0,0.0,0.0,0.0,0.0,0.0,0.0,0.0,0.0,0.0,0.0,0.0,0.0,0.0,0.0,0.0,0.0,0.0,0.0,0.0,0.0,0.0,0.0,0.0,0.0,0.0,0.0,0.0,0.0,0.0,0.0,0.0,0.0,0.0,0.0,0.0,0.0,0.0,0.0,0.0,0.0,0.0,0.0,0.0,0.0,0.0,0.0,0.0,0.0,0.0,0.0,0.0,0.0,0.0,0.0,0.0,-4.9059,-4.8716,-4.8716,-4.9059,-4.8716,-4.8695,-4.9059,-4.9059,-4.9059,0.0,0.0,0.0,0.0,0.0,0.0,0.0,0.0,0.0,0.0,0.0,0.0,0.0,0.0,0.0,0.0,0.0,0.0,0.0,0.0,0.0,0.0,0.0,0.0,0.0,0.0,0.0,0.0,0.0,0.0,0.0,0.0,0.0,0.0,0.0,0.0,0.0,0.0,0.0,0.0,0.0,-4.6266,-4.6266,-4.6266,-4.6266,0.0,0.0,-4.6266,-4.6266,-4.6266,0.0,0.0,0.0,0.0,0.0,0.0,0.0,0.0,0.0,0.0,0.0,0.0,0.0,0.0,0.0,0.0,0.0,0.0,0.0,0.0,0.0,0.0,0.0,0.0,0.0,0.0,0.0,0.0,0.0,0.0,0.0,0.0,0.0,0.0,0.0,0.0,0.0,0.0,0.0,0.0,0.0,0.0,0.0,0.0,0.0,0.0,0.0,0.0,0.0,0.0,0.0,0.0,0.0,0.0,0.0,-4.9059,-4.9059,-4.8887,-4.8887,-4.9059,-4.8887,-4.8887,-4.9059,-4.9059,-4.9059,0.0,0.0,0.0,0.0,0.0,0.0,0.0,0.0,0.0,0.0,0.0,0.0,0.0,0.0,0.0,0.0,0.0,0.0,0.0,0.0,0.0,0.0,0.0,0.0,0.0,0.0,0.0,0.0,0.0,0.0,0.0,0.0,0.0,0.0,0.0,0.0,0.0,0.0,0.0,0.0,0.0,0.0,-4.6266,-4.6266,0.0,0.0,0.0,-4.6266,-4.6266,0.0,0.0,0.0,0.0,0.0,0.0,0.0,0.0,0.0,0.0,0.0,0.0,0.0,0.0,0.0,0.0,0.0,0.0,0.0,0.0,0.0,0.0,0.0,0.0,0.0,0.0,0.0,0.0,0.0,0.0,0.0,0.0,0.0,0.0,0.0,0.0,0.0,0.0,0.0,0.0,0.0,0.0,0.0,0.0,0.0,0.0,0.0,0.0,0.0,0.0,0.0,0.0,0.0,0.0,0.0,0.0,0.0,-4.9059,-4.9059,-4.9017,-4.8893,-4.8893,-4.8893,-4.8893,-4.8769,0.0,0.0,0.0,0.0,0.0,0.0,0.0,0.0,0.0,0.0,0.0,0.0,0.0,0.0,0.0,0.0,0.0,0.0,0.0,0.0,0.0,0.0,0.0,0.0,0.0,0.0,0.0,-4.7382,0.0,0.0,0.0,0.0,0.0,0.0,0.0,0.0,0.0,0.0,0.0,0.0,0.0,0.0,-4.6266,-4.6266,-4.6266,-4.6266,0.0,0.0,-4.6104,-4.6023,-4.5698,-4.5698,0.0,0.0,0.0,0.0,0.0,0.0,0.0,0.0,0.0,0.0,0.0,0.0,0.0,0.0,0.0,0.0,0.0,0.0,0.0,0.0,0.0,0.0,0.0,0.0,0.0,0.0,0.0,0.0,0.0,0.0,0.0,0.0,0.0,0.0,0.0,0.0,0.0,0.0,0.0,0.0,0.0,0.0,0.0,0.0,0.0,0.0,0.0,0.0,0.0,0.0,0.0,0.0,0.0,0.0,0.0,-4.9059,-4.9059,-4.8852,-4.8438,-4.8417,-4.8417,-4.8417,-4.8003,-4.7982,0.0,0.0,0.0,0.0,0.0,0.0,0.0,0.0,0.0,0.0,0.0,0.0,0.0,0.0,0.0,0.0,0.0,0.0,0.0,0.0,0.0,0.0,0.0,0.0,0.0,0.0,0.0,0.0,0.0,0.0,0.0,0.0,0.0,0.0,0.0,0.0,0.0,0.0,0.0,0.0,0.0,-4.6266,-4.6266,-4.6266,-4.6185,0.0,0.0,-4.5556,-4.5127,-4.5046,-4.5209,-4.5637,0.0,0.0,0.0,0.0,0.0,0.0,0.0,0.0,0.0,0.0,0.0,0.0,0.0,0.0,0.0,0.0,0.0,0.0,0.0,0.0,0.0,0.0,0.0,0.0,0.0,0.0,0.0,0.0,0.0,0.0,0.0,0.0,0.0,0.0,0.0,0.0,0.0,0.0,0.0,0.0,0.0,0.0,0.0,0.0,0.0,0.0,0.0,0.0,0.0,0.0,0.0,0.0,0.0,-4.8645,-4.8645,-4.8355,-4.8127,-4.7962,-4.7941,-4.7941,-4.7941,-4.7775,-4.7775,0.0,0.0,0.0,0.0,0.0,0.0,0.0,0.0,0.0,0.0,0.0,0.0,0.0,0.0,0.0,0.0,0.0,0.0,0.0,0.0,0.0,0.0,0.0,0.0,0.0,0.0,0.0,0.0,-4.637,-4.6266,-4.6266,0.0,0.0,0.0,0.0,0.0,0.0,0.0,0.0,0.0,0.0,-4.6266,-4.6266,-4.6104,0.0,0.0,-4.5454,-4.5229,-4.5046,-4.48,-4.48,-4.5209,-4.5046,0.0,0.0,0.0,0.0,0.0,0.0,0.0,0.0,0.0,0.0,0.0,0.0,0.0,0.0,0.0,0.0,0.0,0.0,0.0,0.0,0.0,0.0,0.0,0.0,0.0,0.0,0.0,0.0,0.0,0.0,0.0,0.0,0.0,0.0,0.0,0.0,0.0,0.0,0.0,0.0,0.0,0.0,0.0,0.0,0.0,0.0,0.0,0.0,0.0,0.0,0.0,0.0,-4.8314,-4.8169,-4.7838,-4.761,-4.7486,-4.7486,-4.7486,-4.7486,-4.7361,-4.7341,0.0,0.0,0.0,0.0,0.0,0.0,0.0,0.0,0.0,0.0,0.0,0.0,0.0,0.0,0.0,0.0,0.0,0.0,0.0,0.0,0.0,0.0,0.0,0.0,0.0,0.0,0.0,0.0,-4.6266,-4.6266,-4.6266,0.0,0.0,0.0,0.0,0.0,0.0,0.0,0.0,0.0,0.0,-4.6266,-4.6104,-4.5861,-4.5617,-4.5372,-4.5046,-4.48,-4.4616,-4.437,-4.4288,-4.4698,0.0,0.0,0.0,0.0,0.0,0.0,0.0,0.0,0.0,0.0,0.0,0.0,0.0,0.0,0.0,0.0,0.0,0.0,0.0,0.0,0.0,0.0,0.0,0.0,0.0,0.0,0.0,-4.9059,0.0,0.0,-4.9059,0.0,0.0,0.0,0.0,0.0,0.0,0.0,0.0,0.0,0.0,0.0,0.0,0.0,0.0,0.0,0.0,0.0,0.0,0.0,0.0,0.0,0.0,-4.8127,-4.7713,-4.7672,-4.7465,-4.7072,-4.6969,-4.7051,-4.703,-4.6535,-4.6514,-4.703,0.0,0.0,0.0,0.0,0.0,0.0,0.0,0.0,0.0,0.0,0.0,0.0,0.0,0.0,0.0,0.0,0.0,0.0,0.0,0.0,0.0,0.0,0.0,0.0,0.0,0.0,-4.6266,-4.6266,-4.6266,0.0,0.0,0.0,0.0,0.0,0.0,0.0,0.0,0.0,0.0,-4.6266,-4.6104,-4.58,-4.5719,-4.5372,-4.4616,-4.4452,-4.4288,-4.3793,-4.3711,-4.3876,0.0,0.0,0.0,0.0,0.0,0.0,0.0,0.0,0.0,0.0,0.0,0.0,0.0,0.0,0.0,0.0,0.0,0.0,0.0,0.0,0.0,0.0,0.0,0.0,0.0,0.0,0.0,-4.8334,-4.8603,0.0,0.0,0.0,0.0,0.0,0.0,0.0,0.0,0.0,0.0,0.0,-4.8603,-4.8603,0.0,0.0,0.0,0.0,0.0,0.0,0.0,0.0,0.0,0.0,0.0,0.0,-4.7403,-4.7237,-4.6947,-4.672,-4.6493,-4.6575,-4.6493,-4.6493,-4.643,-4.6328,-4.6493,0.0,0.0,0.0,0.0,0.0,0.0,0.0,0.0,0.0,0.0,0.0,0.0,0.0,0.0,0.0,0.0,0.0,0.0,0.0,0.0,0.0,0.0,0.0,0.0,0.0,-4.6266,0.0,0.0,0.0,0.0,0.0,0.0,0.0,0.0,0.0,0.0,0.0,-4.6266,-4.6266,-4.6104,-4.5881,-4.5719,-4.5209,-4.4698,0.0,0.0,0.0,0.0,0.0,0.0,0.0,0.0,0.0,0.0,0.0,0.0,0.0,0.0,-4.4307,-4.4882,-4.4984,-4.4964,-4.4616,0.0,0.0,0.0,0.0,0.0,0.0,0.0,0.0,0.0,0.0,0.0,0.0,0.0,0.0,-4.7858,0.0,-4.8127,0.0,0.0,0.0,0.0,0.0,0.0,0.0,0.0,-4.8583,-4.8417,-4.8148,-4.8127,-4.7982,0.0,-4.7672,-4.8003,0.0,0.0,0.0,0.0,0.0,0.0,0.0,0.0,-4.6865,-4.6803,-4.6411,-4.6266,-4.6266,-4.6266,-4.6266,-4.6266,-4.6266,-4.6266,-4.6266,-4.6266,-4.6266,0.0,0.0,0.0,0.0,0.0,0.0,0.0,0.0,0.0,0.0,0.0,0.0,0.0,0.0,0.0,0.0,0.0,0.0,0.0,0.0,0.0,0.0,0.0,-4.6266,0.0,0.0,0.0,0.0,0.0,0.0,0.0,0.0,0.0,-4.6266,-4.6266,-4.6266,-4.6104,-4.5881,-4.5637,-4.5291,0.0,0.0,0.0,0.0,0.0,0.0,0.0,-4.3652,-4.3516,-4.3613,-4.3691,-4.3691,-4.3691,-4.3691,-4.3691,0.0,0.0,-4.4472,-4.4534,-4.4452,-4.4205,-4.4123,-4.3876,-4.2946,-4.2595,-4.2178,0.0,0.0,0.0,0.0,0.0,0.0,0.0,0.0,-4.7631,-4.7631,0.0,-4.7651,0.0,0.0,0.0,0.0,-4.7693,-4.7713,0.0,0.0,-4.7713,-4.7693,-4.7672,-4.7672,-4.7651,-4.7651,-4.761,-4.7631,-4.7631,-4.7631,0.0,0.0,0.0,0.0,0.0,0.0,-4.6803,-4.6287,-4.6266,-4.6266,-4.6266,-4.6266,-4.6266,-4.6266,-4.6266,-4.6266,-4.6266,-4.6266,-4.6266,-4.6266,-4.6266,0.0,0.0,0.0,0.0,0.0,0.0,0.0,0.0,0.0,0.0,0.0,0.0,0.0,0.0,0.0,0.0,0.0,0.0,0.0,0.0,-4.6266,0.0,0.0,0.0,0.0,0.0,0.0,0.0,0.0,0.0,0.0,-4.6266,-4.6266,-4.6104,-4.58,0.0,0.0,0.0,0.0,-4.4186,-4.3754,-4.3672,-4.3535,-4.3125,-4.3398,-4.3516,-4.3125,0.0,0.0,-4.3652,-4.3652,-4.3633,-4.3652,-4.3613,-4.3652,-4.3633,-4.3735,-4.3793,-4.3711,-4.3628,-4.3029,-4.1425,-4.0734,-3.9702,-4.4383,0.0,0.0,0.0,0.0,-4.6086,-4.625,-4.6332,-4.6556,-4.6927,-4.7237,-4.7217,0.0,0.0,0.0,0.0,0.0,0.0,-4.7672,-4.7672,-4.7672,-4.7527,-4.7217,-4.7217,-4.7051,-4.674,-4.674,-4.672,-4.672,-4.672,-4.6906,-4.7217,0.0,0.0,0.0,0.0,-4.639,-4.6266,-4.6266,-4.6266,-4.6266,-4.6266,-4.6266,-4.6266,-4.6266,-4.6266,-4.6266,-4.6266,-4.6266,-4.6266,-4.6266,0.0,0.0,0.0,0.0,0.0,0.0,0.0,0.0,0.0,0.0,0.0,0.0,0.0,0.0,0.0,0.0,0.0,0.0,0.0,-4.6266,-4.6266,-4.6266,0.0,0.0,0.0,0.0,0.0,0.0,0.0,0.0,0.0,-4.5942,-4.5861,-4.5779,0.0,0.0,-4.4698,-4.4452,-4.4123,-4.3758,-4.3301,-4.3262,0.0,-4.2676,-4.2715,-4.2754,-4.2637,-4.2715,-4.2793,-4.2793,-4.2793,-4.2793,-4.2793,-4.2793,-4.2793,-4.2832,-4.3301,-4.3652,-4.3609,-4.2697,-4.1677,-4.1071,-3.9872,-3.8665,-4.3876,-4.4123,-4.4288,-4.4616,-4.5046,-4.5454,-4.58,-4.5942,-4.6185,-4.6432,-4.6761,-4.6761,-4.6906,-4.7154,-4.7154,0.0,0.0,0.0,-4.7154,-4.7154,-4.7154,-4.701,-4.6782,-4.6761,-4.6616,-4.6266,-4.6266,-4.6266,-4.6266,-4.6266,-4.6411,-4.6679,0.0,0.0,-4.6266,-4.6266,-4.6266,-4.6266,-4.6266,-4.6266,-4.6266,-4.6182,-4.5995,-4.583,-4.5995,-4.6078,-4.6078,-4.6264,-4.6266,-4.6266,-4.6266,-4.6266,0.0,0.0,0.0,0.0,0.0,0.0,0.0,0.0,0.0,0.0,0.0,-4.6266,0.0,0.0,0.0,0.0,-4.6266,-4.6266,-4.6266,-4.6266,0.0,0.0,0.0,0.0,0.0,0.0,0.0,-4.6104,-4.6023,-4.5799,-4.5291,-4.5028,-4.5007,-4.5189,-4.4538,-4.4112,-4.3949,0.0,-4.3105,-4.2851,-4.2812,-4.2676,-4.2246,-4.2324,-4.2422,-4.2422,-4.2422,-4.2422,-4.2422,-4.2422,-4.2422,-4.2422,-4.2422,-4.2422,-4.2422,-4.2365,-4.2447,-4.302,-4.2365,-4.1358,-4.0676,-3.9055,-3.7623,-4.3672,-4.3711,-4.4205,-4.4534,-4.4964,-4.5454,-4.5881,-4.6185,-4.6266,-4.6266,-4.6266,-4.6266,-4.6266,-4.6266,-4.6266,0.0,-4.6266,-4.6266,-4.6266,-4.6266,-4.6266,-4.6266,-4.6266,-4.6266,-4.6266,-4.6266,-4.6266,-4.6266,-4.6266,-4.6266,-4.6266,-4.6266,-4.6266,-4.6266,-4.6266,-4.6306,-4.6225,-4.6204,-4.6244,-4.6163,-4.6244,-4.585,-4.5416,-4.5022,-4.5416,-4.5623,-4.5643,-4.6016,-4.6163,-4.6244,-4.6244,-4.6184,-4.6204,0.0,0.0,0.0,0.0,0.0,0.0,0.0,0.0,0.0,0.0,0.0,0.0,0.0,0.0,0.0,-4.6266,0.0,-4.6266,-4.6266,0.0,0.0,0.0,-4.6266,-4.6185,-4.6185,-4.6003,-4.5657,0.0,0.0,-4.4442,-4.3898,-4.3815,-4.4211,-4.3833,-4.3494,-4.3109,-4.2695,-4.2422,-4.2383,-4.2383,-4.2226,-4.1836,-4.2031,-4.2246,-4.2246,-4.2324,-4.2266,-4.2266,-4.2285,-4.2305,-4.2266,-4.2324,-4.2305,-4.2305,-4.1162,-4.0515,-4.2084,-4.184,-4.1114,-3.9404,-3.7674,-3.6024,-4.3418,-4.3691,-4.3876,-4.3958,-4.4041,-4.48,-4.5209,-4.5372,-4.6023,-4.6266,-4.6266,-4.6266,-4.6266,-4.6266,-4.6266,-4.6266,-4.6266,-4.6266,-4.6266,-4.6266,-4.6266,-4.6266,-4.6266,-4.6266,-4.6266,-4.6266,-4.6266,-4.6266,-4.6266,-4.6266,-4.6266,-4.6266,-4.6266,-4.6266,-4.6326,-4.6016,-4.585,-4.583,-4.5498,-4.5312,-4.5312,-4.5209,-4.5105,-4.5002,-4.5105,-4.5167,-4.5167,-4.525,-4.5312,-4.5312,-4.5312,-4.5457,-4.583,-4.5498,0.0,0.0,0.0,0.0,0.0,0.0,0.0,0.0,0.0,-4.6266,-4.6266,0.0,-4.6266,0.0,-4.6266,-4.6266,-4.6266,-4.6266,0.0,0.0,-4.5861,-4.5719,-4.5372,-4.5291,-4.5149,-4.4724,-4.4684,-4.4362,-4.352,-4.33,-4.3179,-4.2876,-4.2798,-4.2658,-4.2578,-4.25,-4.2305,-4.2012,-4.1953,-4.1797,-4.1445,-4.1406,-4.1504,-4.1465,-4.1484,-4.1465,-4.1465,-4.1484,-4.1484,-4.1465,-4.1484,-4.1484,-4.1484,-4.1151,-4.0994,-4.119,-3.877,-3.6292,-3.579,-3.4377,-3.295,-4.3047,-4.3418,-4.3418,-4.3617,-4.4041,-4.4718,-4.5209,-4.5617,-4.6104,-4.6266,-4.6266,-4.6266,-4.6266,-4.6266,-4.6266,-4.6266,-4.6266,-4.6266,-4.6266,-4.6266,-4.6266,-4.6266,-4.6266,-4.6266,-4.6266,-4.6266,-4.6266,-4.6266,-4.6246,-4.614,-4.6057,-4.6037,-4.585,-4.5747,-4.5747,-4.5705,-4.5581,-4.5374,-4.5126,-4.4898,-4.4691,-4.4691,-4.4588,-4.4381,-4.4588,-4.4691,-4.4691,-4.4877,-4.5002,-4.5002,-4.5002,-4.5105,-4.5354,-4.5147,-4.5105,0.0,0.0,0.0,0.0,0.0,0.0,0.0,0.0,0.0,0.0,0.0,-4.6266,-4.6266,-4.6266,-4.6266,-4.6266,-4.6104,-4.5942,-4.5719,-4.5352,-4.4987,-4.4744,-4.4563,-4.4261,-4.386,-4.382,-4.35,-4.2605,-4.2546,-4.2308,-4.1894,-4.1875,-4.1933,-4.209,-4.2012,-4.1777,-4.1562,-4.1523,-4.1465,-4.1191,-4.1172,-4.1172,-4.1172,-4.1172,-4.1172,-4.1172,-4.1172,-4.1172,-4.1172,-4.1172,-4.1172,-4.1172,-4.0529,-4.0021,-3.9606,-3.747,-3.5691,-3.6119,-3.4333,-3.2525,-4.2598,-4.2988,-4.3047,-4.3526,-4.4373,-4.476,-4.5454,-4.6185,-4.6266,-4.6266,-4.6266,-4.6266,-4.6266,-4.6266,-4.6266,-4.6266,-4.6266,-4.6266,-4.6266,-4.6266,-4.6266,-4.6266,-4.6266,-4.6266,-4.6266,-4.6266,-4.6266,-4.6246,-4.6163,-4.5871,-4.5664,-4.5581,-4.5188,-4.496,-4.4919,-4.5312,-4.5312,-4.4919,-4.4898,-4.4712,-4.4319,-4.436,-4.4174,-4.3739,-4.4091,-4.4277,-4.4215,-4.4608,-4.4815,-4.4815,-4.4815,-4.4836,-4.4898,-4.4857,-4.4836,0.0,-4.4857,0.0,0.0,0.0,0.0,0.0,0.0,0.0,0.0,-4.6266,-4.6266,-4.6266,-4.6204,-4.6264,-4.6264,-4.5819,-4.5535,-4.5433,-4.4684,-4.4201,-4.41,-4.3759,-4.336,-4.3002,-4.2902,-4.2585,-4.1856,-4.1719,-4.1562,-4.1289,-4.125,-4.1367,-4.1601,-4.1445,-4.123,-4.1172,-4.1172,-4.1211,-4.1172,-4.1172,-4.1172,-4.1172,-4.1172,-4.1172,-4.1172,-4.1172,-4.1172,-4.1172,-4.1172,-4.1172,-4.1172,-3.9943,-3.904,-3.9138,-3.7729,-3.6769,-3.741,-3.5497,-3.351,-4.2168,-4.2578,-4.293,-4.3369,-4.3854,-4.464,-4.5291,-4.5881,-4.6185,-4.6266,-4.6266,-4.6266,-4.6266,-4.6266,-4.6266,-4.6266,-4.6266,-4.6266,-4.6266,-4.6266,-4.6266,-4.6266,-4.6266,-4.6266,-4.6266,-4.6266,-4.6266,-4.6161,-4.5809,-4.5726,-4.5498,-4.5126,-4.5043,-4.4795,-4.4463,0.0,0.0,0.0,-4.4443,-4.4401,-4.4319,-4.467,-4.4629,-4.4194,-4.4256,0.0,-4.378,-4.3822,-4.3884,-4.3884,-4.3884,0.0,0.0,0.0,0.0,0.0,0.0,0.0,0.0,0.0,0.0,0.0,-4.4981,-4.5561,-4.6184,-4.6266,-4.6266,-4.6246,-4.6016,-4.5809,-4.5809,-4.508,-4.4457,-4.4099,-4.364,-4.32,-4.286,-4.2701,-4.2464,-4.2111,-4.2072,-4.1837,-4.1465,-4.1289,-4.1269,-4.1191,-4.1172,-4.1191,-4.1289,-4.123,-4.1172,-4.1172,-4.1172,-4.1172,-4.1172,-4.1172,-4.1172,-4.1172,-4.1172,-4.1172,-4.1172,-4.1172,-4.1172,-4.1172,-4.1172,-4.1172,-4.1172,-4.0919,-4.0509,-4.0685,-3.9216,-3.7755,-3.6717,-3.488,-3.3347,-4.1738,-4.2129,-4.2583,-4.3239,0.0,-4.4704,-4.5413,-4.6023,-4.6185,-4.6266,-4.6266,-4.6266,-4.6266,-4.6266,-4.6266,-4.6266,-4.6266,-4.6266,-4.6266,-4.6266,-4.6266,-4.6266,-4.6266,-4.6266,-4.6266,-4.6246,-4.6119,-4.5912,-4.5685,-4.5457,-4.5229,-4.5002,-4.5002,-4.4877,-4.465,-4.465,-4.4526,-4.4298,-4.4526,-4.465,-4.465,-4.465,-4.4546,-4.4298,-4.4091,0.0,0.0,0.0,0.0,0.0,0.0,0.0,0.0,-4.351,0.0,-4.3946,-4.3357,-4.3081,-4.331,-4.3362,-4.351,-4.3988,-4.4654,-4.5188,-4.5643,-4.5685,-4.5685,-4.5664,-4.5478,-4.5274,-4.5016,-4.4494,-4.3876,-4.3439,-4.2803,-4.2367,-4.209,-4.1933,-4.1738,-4.1543,-4.1484,-4.1406,-4.1191,-4.1172,-4.1172,-4.1172,-4.1172,-4.1172,-4.1172,-4.1172,-4.1172,-4.1172,-4.1172,-4.1172,-4.1172,-4.1172,-4.1172,-4.1172,-4.1172,-4.1172,-4.1172,-4.1172,-4.1172,-4.1172,-4.1172,-4.1172,-4.1094,-4.0509,-3.9943,-3.9786,-3.8487,-3.7197,-3.6075,-3.4636,-3.3101,-4.1367,-4.1778,-4.223,-4.3061,-4.406,-4.4703,-4.5532,-4.6266,0.0,0.0,0.0,-4.6266,-4.6266,-4.6266,-4.6266,-4.6266,-4.6266,-4.6266,-4.6266,-4.6266,-4.6266,-4.6266,-4.6266,-4.6266,-4.6266,-4.6246,-4.5975,-4.5768,-4.5664,-4.5291,-4.5064,-4.5002,-4.5002,-4.5002,-4.5002,-4.5064,-4.4919,-4.4588,-4.4919,-4.5105,-4.5105,-4.4815,-4.4629,-4.4567,-4.4174,-4.3946,-4.3863,-4.3863,-4.3822,-4.3739,-4.3739,-4.3698,-4.3615,-4.3233,-4.3157,-4.3462,-4.283,-4.2544,-4.2851,-4.2621,-4.2839,-4.3633,-4.4391,-4.4815,-4.496,-4.5002,-4.5002,-4.5002,-4.4919,-4.4721,-4.4328,-4.3733,-4.3298,-4.2923,-4.2132,-4.168,-4.166,-4.1406,-4.1211,-4.1172,-4.1191,-4.1172,-4.1172,-4.1172,-4.1172,-4.1172,-4.1172,-4.1172,-4.1172,-4.1172,-4.1172,-4.1172,-4.1172,-4.1172,-4.1172,-4.1269,-4.1269,-4.1328,-4.1367,-4.1387,-4.1387,-4.1406,-4.1406,-4.1465,-4.1406,-4.1269,-4.0917,-3.9892,-3.8848,-3.8768,-3.7392,-3.62,-3.6038,-3.4817,-3.3176,-4.1211,-4.1367,-4.2092,-4.2486,-4.2803,-4.4379,-4.5511,-4.6246,-4.6266,-4.6266,-4.6266,-4.6266,-4.6266,-4.6266,-4.6266,-4.6266,-4.6266,-4.6266,-4.6266,-4.6266,-4.6266,-4.6266,-4.6266,-4.6266,-4.6266,-4.6266,-4.6285,-4.6057,-4.5705,-4.5602,-4.5395,-4.5043,-4.5002,-4.5002,-4.5022,-4.5395,-4.5561,-4.5498,-4.5561,-4.5581,-4.5581,-4.5892,-4.5871,-4.5498,-4.5416,-4.5209,-4.4815,-4.4795,-4.4608,-4.4236,-4.4194,-4.4029,-4.3635,-4.3254,-4.3004,-4.3081,-4.2621,-4.2447,-4.2524,-4.2774,-4.3121,-4.3545,-4.376,-4.4132,-4.4919,-4.5002,-4.5002,-4.4981,-4.4629,-4.4246,-4.3837,-4.3045,-4.2456,-4.2069,-4.1542,-4.1269,-4.1289,-4.123,-4.1172,-4.1172,-4.1172,-4.1172,-4.1172,-4.1172,-4.1172,-4.1172,-4.1289,-4.1211,-4.125,-4.1172,-4.1172,-4.1172,-4.1172,-4.1172,-4.1289,-4.1504,-4.168,-4.1719,-4.1992,-4.2148,-4.2129,-4.2148,-4.2148,-4.2207,-4.2168,-4.1609,-4.0446,-3.9756,-3.9439,-3.9258,-3.7772,-3.6654,-3.6455,-3.5143,-3.3845,-4.154,-4.1657,-4.2379,-4.291,-4.3192,-4.4737,-4.5628,-4.6016,-4.6244,-4.6266,-4.6266,-4.6266,-4.6266,-4.6266,-4.6266,-4.6266,-4.6266,-4.6266,-4.6266,-4.6266,-4.6266,-4.6266,-4.6266,-4.6266,-4.6266,-4.6326,-4.6099,-4.5892,-4.5685,-4.5685,-4.5561,-4.5395,-4.5602,-4.5726,-4.5747,-4.5933,-4.6057,-4.6037,-4.6037,-4.6037,-4.6037,-4.5995,-4.5892,-4.5685,-4.5457,-4.5209,-4.5002,-4.5002,-4.4898,-4.4691,-4.467,-4.4588,-4.4381,-4.3972,-4.3714,-4.37,-4.3119,-4.2786,-4.2697,-4.2927,-4.3081,-4.3233,-4.3462,-4.3704,-4.3906,-4.4102,-4.4158,-4.3926,-4.3741,-4.331,-4.2692,-4.2279,-4.1927,-4.154,-4.1327,-4.1172,-4.1172,-4.1172,-4.1172,-4.1172,-4.1172,-4.1172,-4.1172,-4.1172,-4.1269,-4.1465,-4.168,-4.1836,-4.1836,-4.1855,-4.1758,-4.1582,-4.1699,-4.1836,-4.1855,-4.1992,-4.2129,-4.2148,-4.2285,-4.2402,-4.2422,-4.2342,-4.2342,-4.2422,-4.2342,-4.2101,-4.1114,-4.0347,-3.9613,-3.8265,-3.6875,-3.5539,-3.4461,-3.3546,-3.2929,-4.1927,-4.2005,-4.2697,-4.3346,-4.3894,-4.4906,-4.5436,-4.5561,-4.5995,-4.6202,-4.6202,-4.6306,-4.6266,-4.6266,-4.6266,-4.6266,-4.6266,-4.6266,-4.6266,-4.6266,-4.6266,-4.6266,-4.6266,-4.6266,-4.6266,-4.6225,-4.5995,-4.583,-4.583,-4.583,-4.583,-4.5871,-4.6182,-4.6266,-4.6266,-4.6266,-4.6266,-4.6266,-4.6266,-4.6266,-4.6246,-4.5995,-4.583,-4.5809,-4.5498,-4.5312,-4.5291,-4.5312,-4.525,-4.5167,-4.5147,-4.5105,-4.5002,-4.4608,-4.4365,-4.4272,-4.3664,-4.3288,-4.3274,-4.3233,-4.3233,-4.331,-4.3464,-4.3464,-4.3233,-4.3464,-4.3439,-4.2968,-4.2871,-4.2564,-4.2024,-4.185,-4.1618,-4.125,-4.1269,-4.1348,-4.1328,-4.1406,-4.1445,-4.1445,-4.1465,-4.1484,-4.1465,-4.1465,-4.1601,-4.1914,-4.2226,-4.2402,-4.2422,-4.248,-4.2422,-4.2246,-4.2305,-4.2363,-4.2422,-4.2519,-4.2558,-4.2578,-4.2676,-4.2773,-4.2693,-4.2492,-4.2067,-4.1944,-4.158,-4.0946,-4.0745,-3.9741,-3.8351,-3.6946,-3.5375,-3.3738,-3.2666,-3.232,-3.203,-4.237,-4.237,-4.2851,-4.35,-4.42,-4.4401,-4.4691,-4.5105,-4.5561,-4.5747,-4.583,-4.6161,-4.6266,-4.6266,-4.6266,-4.6266,-4.6266,-4.6266,-4.6266,-4.6266,-4.6266,-4.6266,-4.6266,-4.6266,-4.6266,-4.6266,-4.6285,-4.6244,-4.6244,-4.6264,-4.6264,-4.6204,-4.6246,-4.6266,-4.6266,-4.6266,-4.6266,-4.6266,-4.6266,-4.6266,-4.6266,-4.6306,-4.6204,-4.6285,-4.6244,-4.6142,-4.608,-4.6142,-4.6016,-4.5664,-4.5623,-4.5436,-4.5064,-4.4629,-4.445,-4.4389,-4.3974,-4.3875,-4.415,-4.3913,-4.3774,-4.4071,-4.3873,-4.3636,-4.3557,-4.3656,-4.3313,-4.2709,-4.2487,-4.2296,-4.185,-4.1812,-4.1717,-4.1387,-4.1543,-4.1738,-4.1777,-4.209,-4.2305,-4.2324,-4.2207,-4.2305,-4.2207,-4.2246,-4.2305,-4.2344,-4.25,-4.2578,-4.2598,-4.2812,-4.3008,-4.2891,-4.2715,-4.25,-4.2539,-4.2773,-4.2969,-4.3047,-4.3238,-4.3273,-4.2925,-4.1952,-4.111,-4.0722,-3.9826,-3.8626,-3.7367,-3.6005,-3.6199,-3.5843,-3.4523,-3.2984,-3.2749,-3.2617,-3.2427,-4.2774,-4.2774,-4.3157,-4.3565,-4.3905,-4.4174,-4.4567,-4.5022,-4.5478,-4.583,-4.6078,-4.6184,-4.6266,-4.6266,-4.6266,-4.6266,-4.6266,-4.6266,-4.6266,-4.6266,-4.6266,-4.6266,-4.6266,-4.6266,-4.6266,-4.6266,-4.6266,-4.6266,-4.6266,-4.6266,-4.6266,-4.6266,-4.6266,-4.6266,-4.6266,-4.6266,-4.6266,-4.6266,-4.6266,-4.6266,-4.6266,-4.6266,-4.6266,-4.6266,-4.6266,-4.6266,-4.6266,-4.6266,-4.6264,-4.6099,-4.6078,-4.5995,-4.5809,-4.5628,-4.5445,-4.5178,-4.4494,-4.4193,-4.4351,-4.3956,-4.3797,-4.3976,-4.3817,-4.3559,-4.34,-4.332,-4.3062,-4.2546,-4.2683,-4.2605,-4.2211,-4.2151,-4.2072,-4.1933,-4.209,-4.2168,-4.2168,-4.2324,-4.2422,-4.2422,-4.2422,-4.2422,-4.2461,-4.2656,-4.2793,-4.2851,-4.2988,-4.3125,-4.3183,-4.334,-4.3418,-4.3437,-4.3281,-4.3203,-4.3183,-4.3301,-4.3437,-4.3293,-4.2646,-4.2095,-4.1928,-4.0548,-3.9345,-3.9345,-3.8494,-3.7809,-3.7604,-3.7036,-3.6863,-3.5755,-3.4128,-3.2763,-3.2763,-3.2763,-3.2617,-4.3157,-4.3254,-4.3586,-4.3801,-4.3842,-4.4298,-4.4691,-4.5043,-4.5478,-4.5871,-4.6161,-4.6285,-4.6266,-4.6266,-4.6266,-4.6266,-4.6266,-4.6266,-4.6266,-4.6266,-4.6266,-4.6266,-4.6266,-4.6266,-4.6266,-4.6266,-4.6266,-4.6266,-4.6266,-4.6266,-4.6266,-4.6287,-4.6471,-4.6452,-4.6554,-4.6637,-4.672,-4.672,-4.672,-4.672,-4.672,-4.672,-4.6596,-4.6287,-4.6266,-4.6266,-4.6266,-4.6266,-4.6266,-4.6266,-4.6266,-4.6266,-4.6266,-4.6185,-4.596,-4.549,-4.4923,-4.4479,-4.4479,-4.416,-4.392,-4.392,-4.3759,-4.3599,-4.3358,-4.3257,-4.3096,-4.2854,-4.3096,-4.3037,-4.2521,-4.2422,-4.2422,-4.2441,-4.2519,-4.2598,-4.2617,-4.2676,-4.2812,-4.2773,-4.2851,-4.2773,-4.2832,-4.3047,-4.3242,-4.3281,-4.3496,-4.3691,-4.3691,-4.3672,-4.3691,-4.3691,-4.3691,-4.3672,-4.3691,-4.3652,-4.3691,-4.3278,-4.2345,-4.1155,-4.0734,-3.9108,-3.7466,-3.7466,-3.7122,-3.6518,-3.5684,-3.6015,-3.6535,-3.509,-3.3719,-3.2763,-3.2763,-3.2763,-3.2763,-4.3539,-4.3621,-4.4091,-4.4256,-4.4298,-4.4753,-4.4981,-4.5064,-4.5498,-4.5705,-4.583,-4.6182,-4.6266,-4.6266,-4.6266,-4.6266,-4.6266,-4.6266,-4.6266,-4.6266,-4.6266,-4.6266,-4.6266,-4.6266,-4.6266,-4.6266,-4.6266,-4.6287,-4.6287,-4.6287,-4.6266,-4.6308,-4.6721,-4.701,-4.7051,-4.7361,-4.7589,-4.7527,-4.7527,-4.7568,-4.7589,-4.7589,-4.7175,-4.6513,-4.6287,-4.6328,-4.6287,-4.6266,-4.6266,-4.6266,-4.6266,-4.6266,-4.6266,-4.5942,-4.5596,-4.5148,-4.4965,-4.4965,-4.4925,-4.4477,-4.4313,-4.4271,-4.3864,-4.3696,-4.3598,-4.3598,-4.3598,-4.3613,-4.3617,-4.3262,-4.2656,-4.2578,-4.2539,-4.2539,-4.2832,-4.3027,-4.3047,-4.334,-4.3613,-4.3594,-4.3535,-4.3496,-4.3574,-4.3652,-4.3633,-4.3613,-4.3672,-4.3691,-4.3691,-4.3691,-4.3691,-4.3691,-4.3691,-4.3691,-4.3691,-4.3691,-4.3691,-4.3361,-4.2345,-4.0819,-3.972,-3.8511,-3.688,-3.5336,-3.4566,-3.3968,-3.3293,-3.3205,-3.3543,-3.3205,-3.3293,-3.2763,-3.2763,-3.2763,-3.2763,-4.4236,-4.4505,-4.467,-4.4753,-4.4774,-4.4919,-4.5167,-4.5436,-4.5602,-4.585,-4.6099,-4.6285,-4.6266,-4.6266,-4.6266,-4.6266,-4.6266,-4.6266,-4.6266,-4.6266,-4.6266,-4.6266,-4.6266,-4.6266,-4.6266,-4.6266,-4.6266,-4.6411,-4.67,-4.67,-4.6927,-4.7196,-4.7361,-4.7444,-4.7486,-4.761,-4.7672,-4.7693,-4.7672,-4.7672,-4.7713,-4.7672,-4.7506,-4.7237,-4.7217,-4.7072,-4.6721,-4.67,-4.6576,-4.6287,-4.6266,-4.6266,-4.6266,-4.6185,-4.6023,-4.5779,-4.5291,-4.4984,-4.4964,-4.4288,-4.3958,-4.3958,-4.3793,-4.3691,-4.3691,-4.3691,-4.3691,-4.3691,-4.3691,-4.3516,-4.3359,-4.3242,-4.3242,-4.3262,-4.3379,-4.3457,-4.3496,-4.3613,-4.3691,-4.3691,-4.3691,-4.3691,-4.3691,-4.3691,-4.3691,-4.3691,-4.3691,-4.3691,-4.3691,-4.3691,-4.3691,-4.3691,-4.3691,-4.3691,-4.3691,-4.3691,-4.3609,-4.3195,-4.2262,-4.0548,-3.9108,-3.7533,-3.5819,-3.4395,-3.3176,-3.3058,-3.3102,-3.3087,-3.2895,-3.2866,-3.2851,-3.291,-3.2763,-3.2895,-3.2866,-4.4712,-4.5002,-4.5167,-4.5229,-4.5229,-4.5374,-4.5602,-4.5892,-4.5912,-4.6078,-4.6225,-4.6266,-4.6266,-4.6266,-4.6266,-4.6266,-4.6266,-4.6266,-4.6266,-4.6266,-4.6266,-4.6266,-4.6266,-4.6266,-4.6266,-4.6308,-4.6513,-4.6803,-4.7196,-4.7258,-4.7403,-4.7651,-4.7817,-4.792,-4.792,-4.8045,-4.8127,-4.8127,-4.8127,-4.8148,-4.8127,-4.8127,-4.8127,-4.8127,-4.8127,-4.7838,-4.7279,-4.7258,-4.7113,-4.6823,-4.6782,-4.6638,-4.6351,-4.6147,-4.6004,-4.5637,-4.4964,-4.4554,-4.4534,-4.4041,-4.3691,-4.3691,-4.3691,-4.3691,-4.3691,-4.3691,-4.3691,-4.3691,-4.3691,-4.3691,-4.3691,-4.3691,-4.3691,-4.3691,-4.3691,-4.3691,-4.3691,-4.3691,-4.3691,-4.3691,-4.3691,-4.3691,-4.3691,-4.3691,-4.3691,-4.3691,-4.3691,-4.3691,-4.3691,-4.3691,-4.3691,-4.3691,-4.3691,-4.3691,-4.3521,-4.3183,-4.3375,-4.3023,-4.2021,-4.0282,-3.8529,-3.6752,-3.5175,-3.3634,-3.2983,-3.3041,-3.3071,-3.3071,-3.3071,-3.3056,-3.3158,-3.3276,-3.3188,-3.3129,-3.31,-4.5002,-4.5126,-4.5498,-4.5685,-4.5726,-4.6057,-4.6306,-4.6285,-4.6225,-4.6225,-4.6266,-4.6266,-4.6266,-4.6266,-4.6266,-4.6266,-4.6266,-4.6266,-4.6266,-4.6266,-4.6266,-4.6266,-4.6266,-4.6328,-4.637,-4.6411,-4.6844,-4.7258,-4.7672,-4.7693,-4.7734,-4.7817,-4.821,-4.8376,-4.8376,-4.8728,-4.8976,-4.8955,-4.8914,-4.8976,-4.9059,-4.8955,-4.8935,-4.8976,-4.8955,-4.8583,-4.7755,-4.7713,-4.7651,-4.761,-4.7589,-4.7299,-4.6515,-4.6124,-4.5426,-4.4796,-4.41,-4.3833,-4.3852,-4.3891,-4.3848,-4.3848,-4.3769,-4.3848,-4.3887,-4.3848,-4.3848,-4.3867,-4.3848,-4.3789,-4.3828,-4.3848,-4.3789,-4.3691,-4.3691,-4.3691,-4.3691,-4.3691,-4.3691,-4.3691,-4.3691,-4.3691,-4.3691,-4.3691,-4.3691,-4.3691,-4.3691,-4.3691,-4.3691,-4.3691,-4.3691,-4.375,-4.3496,-4.3119,-4.2861,-4.2667,-4.2861,-4.2804,-4.1563,-4.0037,-3.8338,-3.6577,-3.5311,-3.3874,-3.3363,-3.3422,-3.3422,-3.3436,-3.348,-3.3495,-3.3597,-3.3583,-3.351,-3.3436,-3.3407,-4.5643,-4.5933,-4.6078,-4.614,-4.6161,-4.6204,-4.6266,-4.6266,-4.6266,-4.6266,-4.6266,-4.6266,-4.6266,-4.6266,-4.6266,-4.6266,-4.6266,-4.6266,-4.6266,-4.6266,-4.6266,-4.6287,-4.6328,-4.6678,-4.6968,-4.7237,-4.7403,-4.7713,-4.8086,-4.8169,-4.8293,-4.8603,-4.8769,-4.8852,-4.8831,-4.8997,-4.9059,-4.9059,-4.9059,-4.9059,-4.9059,-4.9059,-4.9059,-4.9059,-4.9059,-4.8914,-4.8645,-4.8334,-4.8024,-4.7734,-4.7672,-4.7464,-4.6945,-4.6674,-4.6343,-4.572,-4.5282,-4.503,-4.503,-4.4758,-4.459,-4.4609,-4.459,-4.4609,-4.4609,-4.459,-4.457,-4.459,-4.4609,-4.4609,-4.4609,-4.4609,-4.4355,-4.3769,-4.3691,-4.375,-4.3789,-4.375,-4.3691,-4.3691,-4.3691,-4.3691,-4.3711,-4.373,-4.3769,-4.3769,-4.3769,-4.3769,-4.373,-4.3623,-4.3867,-4.4101,-4.3285,-4.2265,-4.1903,-4.1174,-4.0657,-4.0998,-4.0428,-3.9478,-3.7912,-3.6845,-3.5549,-3.4442,-3.3926,-3.3788,-3.3788,-3.3802,-3.3861,-3.3802,-3.3773,-3.3758,-3.3729,-3.3744,-3.3758,-4.6099,-4.6246,-4.6266,-4.6266,-4.6266,-4.6266,-4.6266,-4.6266,-4.6266,-4.6266,-4.6266,-4.6266,-4.6266,-4.6266,-4.6266,-4.6266,-4.6368,-4.6513,-4.6596,-4.6514,-4.6514,-4.6535,-4.6597,-4.7072,-4.7506,-4.7879,-4.7941,-4.8189,-4.8603,-4.8645,-4.8769,-4.9017,-4.9059,-4.9059,-4.9059,-4.9059,-4.9059,-4.9059,-4.9059,-4.9059,-4.9059,-4.9059,-4.9059,-4.9059,-4.9059,-4.9059,-4.9038,-4.879,-4.85,-4.8252,-4.8189,-4.7959,-4.7583,-4.7186,-4.6788,-4.6309,-4.5783,-4.5424,-4.5444,-4.5065,-4.5039,-4.5039,-4.5039,-4.5019,-4.5019,-4.5039,-4.5039,-4.5039,-4.5,-4.5039,-4.5019,-4.5019,-4.4746,-4.4277,-4.4219,-4.4199,-4.4199,-4.4199,-4.4219,-4.4238,-4.4238,-4.4199,-4.4199,-4.4199,-4.4199,-4.4199,-4.4199,-4.4199,-4.4032,-4.3529,-4.3534,-4.3055,-4.1794,-4.106,-4.0804,-3.9789,-3.858,-3.8746,-3.8998,-3.8279,-3.7184,-3.6859,-3.6028,-3.4907,-3.4227,-3.4256,-3.4256,-3.4212,-3.4227,-3.411,-3.4036,-3.4154,-3.4227,-3.4197,-3.4168,-4.6266,-4.6266,-4.6266,-4.6266,-4.6266,-4.6266,-4.6266,-4.6266,-4.6266,-4.6266,-4.6266,-4.6266,-4.6266,-4.6266,-4.6328,-4.639,-4.639,-4.6885,-4.7072,-4.7092,-4.7134,-4.7175,-4.7237,-4.7568,-4.7962,-4.8355,-4.8417,-4.8645,-4.8976,-4.8997,-4.9059,-4.9059,-4.9059,-4.9059,-4.9059,-4.9059,-4.9059,-4.9059,-4.9059,-4.9059,-4.9059,-4.9059,-4.9059,-4.9059,-4.9059,-4.9059,-4.9059,-4.9017,-4.9017,-4.9038,-4.8955,-4.8748,-4.833,-4.7549,-4.6961,-4.651,-4.5647,-4.5346,-4.5137,-4.5234,-4.5215,-4.5234,-4.5234,-4.5098,-4.5215,-4.5273,-4.5273,-4.5254,-4.5215,-4.5195,-4.5195,-4.5215,-4.5156,-4.5098,-4.4941,-4.4902,-4.5,-4.4961,-4.4863,-4.4922,-4.5,-4.5,-4.4902,-4.4902,-4.4922,-4.4922,-4.4883,-4.4759,-4.406,-4.3216,-4.2315,-4.1329,-4.0281,-3.9645,-3.9372,-3.8072,-3.6917,-3.6976,-3.735,-3.6983,-3.6436,-3.6352,-3.6219,-3.5174,-3.4563,-3.4622,-3.4622,-3.4519,-3.4505,-3.4475,-3.4519,-3.468,-3.4651,-3.4534,-3.4461,-4.6266,-4.6266,-4.6266,-4.6266,-4.6266,-4.6266,-4.6266,-4.6266,-4.6266,-4.6266,-4.6266,-4.6266,-4.6287,-4.6308,-4.6638,-4.6762,-4.6968,-4.732,-4.7506,-4.7568,-4.7879,-4.8003,-4.8024,-4.8127,-4.8417,-4.881,-4.8831,-4.8955,-4.9059,-4.9059,-4.9059,-4.9059,-4.9059,-4.9059,-4.9059,-4.9059,-4.9059,-4.9059,-4.9059,-4.9059,-4.9059,-4.9059,-4.9059,-4.9059,-4.9059,-4.9059,-4.9059,-4.9059,-4.9059,-4.9059,-4.9059,-4.8846,-4.8425,-4.8147,-4.7637,-4.6975,-4.663,-4.6284,-4.6024,-4.5937,-4.5937,-4.5957,-4.5879,-4.5957,-4.5976,-4.5957,-4.5957,-4.5957,-4.5957,-4.5937,-4.5937,-4.5937,-4.5937,-4.5879,-4.5449,-4.5098,-4.5098,-4.5039,-4.5039,-4.5039,-4.5078,-4.5098,-4.5117,-4.5098,-4.5098,-4.5098,-4.5032,-4.4671,-4.3956,-4.2691,-4.172,-4.0171,-3.9099,-3.8367,-3.7515,-3.6221,-3.5386,-3.5293,-3.5434,-3.5589,-3.5359,-3.5311,-3.5108,-3.4666,-3.4636,-3.468,-3.468,-3.4651,-3.4695,-3.471,-3.471,-3.471,-3.471,-3.4636,-3.4636,-4.6266,-4.6266,-4.6266,-4.6266,-4.6266,-4.6266,-4.6266,-4.6266,-4.6266,-4.6266,-4.6308,-4.6493,-4.6555,-4.6597,-4.7092,-4.7299,-4.7361,-4.7775,-4.7962,-4.8045,-4.8438,-4.8624,-4.8645,-4.8686,-4.881,-4.9017,-4.9059,-4.9059,-4.9059,-4.9059,-4.9059,-4.9059,-4.9059,-4.9059,-4.9059,-4.9059,-4.9059,-4.9059,-4.9059,-4.9059,-4.9059,-4.9059,-4.9059,-4.9059,-4.9059,-4.9059,-4.9059,-4.9059,-4.9059,-4.9059,-4.9059,-4.8973,-4.8716,-4.8544,-4.8113,-4.7595,-4.7268,-4.6813,-4.6658,-4.6396,-4.6308,-4.6289,-4.6308,-4.6308,-4.6289,-4.6308,-4.6308,-4.6269,-4.6308,-4.6308,-4.6308,-4.6308,-4.6308,-4.6211,-4.5859,-4.5566,-4.5566,-4.5586,-4.5566,-4.5566,-4.5566,-4.5566,-4.5547,-4.5547,-4.5547,-4.5586,-4.5644,-4.5087,-4.4375,-4.2692,-4.109,-3.975,-3.7788,-3.6727,-3.6421,-3.5431,-3.501,-3.4853,-3.4774,-3.471,-3.471,-3.471,-3.471,-3.4695,-3.471,-3.471,-3.471,-3.471,-3.471,-3.471,-3.471,-3.471,-3.471,-3.471,-3.471,-4.6266,-4.6266,-4.6266,-4.6266,-4.6266,-4.6266,-4.6266,-4.6266,-4.6266,-4.6308,-4.6432,-4.6865,-4.701,-4.7134,-4.7548,-4.7755,-4.7775,-4.8231,-4.8396,-4.8562,-4.881,-4.8997,-4.8976,-4.8976,-4.9017,-4.9059,-4.9059,-4.9059,-4.9059,-4.9059,-4.9059,-4.9059,-4.9059,-4.9059,-4.9059,-4.9059,-4.9059,-4.9059,-4.9059,-4.9059,-4.9059,-4.9059,-4.9059,-4.9059,-4.9059,-4.9059,-4.9059,-4.9059,-4.9059,-4.9059,-4.9059,-4.9059,-4.8973,-4.8716,-4.8458,-4.8199,-4.7615,-4.7094,-4.692,-4.6571,-4.6308,-4.6308,-4.6308,-4.6308,-4.6308,-4.6308,-4.6308,-4.6308,-4.6308,-4.6308,-4.6308,-4.6308,-4.6308,-4.6289,-4.625,-4.6289,-4.6308,-4.6308,-4.6308,-4.6308,-4.6269,-4.6289,-4.6308,-4.6308,-4.6269,-4.587,-4.5648,-4.4736,-4.3468,-4.1639,-4.0511,-3.9604,-3.7436,-3.504,-3.4961,-3.4789,-3.4789,-3.4695,-3.4695,-3.471,-3.471,-3.471,-3.471,-3.471,-3.471,-3.471,-3.471,-3.471,-3.471,-3.471,-3.471,-3.471,-3.471,-3.471,-3.471,-4.6266,-4.6266,-4.6266,-4.6266,-4.6266,-4.6266,-4.6266,-4.6266,-4.6266,-4.6554,-4.6844,-4.6927,-4.7258,-4.7568,-4.8003,-4.8231,-4.8272,-4.8666,-4.8914,-4.8935,-4.8997,-4.9059,-4.9059,-4.9059,-4.9059,-4.9059,-4.9059,-4.9059,-4.9059,-4.9059,-4.9059,-4.9059,-4.9059,-4.9059,-4.9059,-4.9059,-4.9059,-4.9059,-4.9059,-4.9059,-4.9059,-4.9059,-4.9059,-4.9059,-4.9059,-4.9059,-4.9059,-4.9059,-4.9059,-4.9059,-4.9059,-4.9059,-4.9059,-4.8973,-4.8802,-4.8372,-4.7961,-4.7441,-4.7007,-4.6658,-4.6308,-4.6308,-4.6308,-4.6308,-4.6308,-4.6308,-4.6308,-4.6308,-4.6308,-4.6308,-4.6308,-4.6308,-4.6308,-4.6308,-4.6308,-4.6308,-4.6308,-4.6308,-4.6308,-4.6308,-4.6308,-4.6308,-4.6308,-4.6308,-4.6221,-4.6114,-4.5304,-4.4296,-4.2658,-4.0752,-3.9681,-3.886,-3.6961,-3.4803,-3.471,-3.471,-3.471,-3.471,-3.471,-3.471,-3.471,-3.471,-3.471,-3.471,-3.471,-3.471,-3.471,-3.471,-3.471,-3.471,-3.471,-3.471,-3.471,-3.471,-3.471,-4.6266,-4.6266,-4.6266,-4.6266,-4.6266,-4.6266,-4.6266,-4.6389,-4.6596,-4.6803,-4.7113,-4.7424,-4.7796,-4.8045,-4.8479,-4.8707,-4.8728,-4.8935,-4.9059,-4.9059,-4.9059,-4.9059,-4.9059,-4.9059,-4.9059,-4.9059,-4.9059,-4.9059,-4.9059,-4.9059,-4.9059,-4.9059,-4.9059,-4.9059,-4.9059,-4.9059,-4.9059,-4.9059,-4.9059,-4.9059,-4.9059,-4.9059,-4.9059,-4.9059,-4.9059,-4.9059,-4.9059,-4.9059,-4.9059,-4.9059,-4.9059,-4.9059,-4.9059,-4.9059,-4.8973,-4.8716,-4.8286,-4.7874,-4.7354,-4.692,-4.6571,-4.6308,-4.6308,-4.6308,-4.6308,-4.6308,-4.6308,-4.6308,-4.6308,-4.6308,-4.6308,-4.6308,-4.6308,-4.6308,-4.6308,-4.6308,-4.6308,-4.6308,-4.6308,-4.6308,-4.6308,-4.6308,-4.6308,-4.6308,-4.6221,-4.6026,-4.458,-4.3478,-4.2658,-4.0752,-3.8768,-3.7591,-3.5972,-3.4789,-3.471,-3.471,-3.471,-3.471,-3.471,-3.471,-3.471,-3.471,-3.471,-3.471,-3.471,-3.471,-3.471,-3.471,-3.471,-3.471,-3.471,-3.471,-3.471,-3.471,-3.471,-4.6266,-4.6266,-4.6266,-4.6266,-4.6266,-4.6266,-4.6328,-4.6533,-4.6783,-4.7113,-4.7361,-4.8086,-4.8314,-4.8541,-4.8852,-4.9038,-4.9059,-4.9124,-4.9059,-4.9059,-4.9059,-4.9059,-4.9059,-4.9059,-4.9059,-4.9059,-4.9059,-4.9059,-4.9059,-4.9059,-4.9059,-4.9059,-4.9059,-4.9059,-4.9059,-4.9059,-4.9059,-4.9059,-4.9059,-4.9059,-4.9059,-4.9059,-4.9059,-4.9059,-4.9059,-4.9059,-4.9059,-4.9059,-4.9059,-4.9059,-4.9059,-4.9059,-4.9059,-4.9059,-4.9059,-4.8973,-4.8458,-4.7941,-4.7441,-4.7094,-4.6658,-4.6308,-4.6308,-4.6308,-4.6308,-4.6308,-4.6308,-4.6308,-4.6308,-4.6308,-4.6308,-4.6308,-4.6308,-4.6308,-4.6308,-4.6308,-4.6308,-4.6308,-4.6308,-4.6308,-4.6308,-4.6308,-4.6308,-4.6308,-4.6133,-4.5675,-4.4118,-4.2765,-4.1941,-4.03,-3.8051,-3.7054,-3.5786,-3.4882,-3.471,-3.471,-3.471,-3.471,-3.471,-3.471,-3.471,-3.471,-3.471,-3.471,-3.471,-3.471,-3.471,-3.471,-3.471,-3.471,-3.471,-3.471,-3.471,-3.471,-3.471,-4.6266,-4.6266,-4.6266,-4.6266,-4.6266,-4.6266,-4.6575,-4.6906,-4.6927,-4.7465,-4.8107,-4.8314,-4.8624,-4.8873,-4.8997,-4.9059,-4.9059,-4.9059,-4.9059,-4.9059,-4.9059,-4.9059,-4.9059,-4.9059,-4.9059,-4.9059,-4.9059,-4.9059,-4.9059,-4.9059,-4.9059,-4.9059,-4.9059,-4.9059,-4.9059,-4.9059,-4.9059,-4.9059,-4.9059,-4.9059,-4.9059,-4.9059,-4.9059,-4.9059,-4.9059,-4.9059,-4.9059,-4.9059,-4.9059,-4.9059,-4.9059,-4.9059,-4.9059,-4.9059,-4.8887,-4.8544,-4.8134,-4.7701,-4.7181,-4.6745,-4.6464,-4.6308,-4.6308,-4.6308,-4.6308,-4.6308,-4.6308,-4.6308,-4.6308,-4.6308,-4.6308,-4.6308,-4.6308,-4.6308,-4.6308,-4.6308,-4.6308,-4.6114,-4.6201,-4.6289,-4.6308,-4.6308,-4.6308,-4.6221,-4.5939,-4.4933,-4.3033,-4.1941,-4.1221,-3.9043,-3.6421,-3.5972,-3.5879,-3.5163,-3.471,-3.471,-3.471,-3.471,-3.471,-3.471,-3.471,-3.471,-3.471,-3.471,-3.471,-3.471,-3.471,-3.471,-3.471,-3.471,-3.471,-3.471,-3.471,-3.471,-3.471,-4.6266,-4.6266,-4.6266,-4.6266,-4.6266,-4.6266,-4.6535,-4.7051,-4.7279,-4.7755,-4.8293,-4.8624,-4.8852,-4.9017,-4.9059,-4.9059,-4.9059,-4.9059,-4.9059,-4.9059,-4.9059,-4.9059,-4.9059,-4.9059,-4.9059,-4.9059,-4.9059,-4.9059,-4.9059,-4.9059,-4.9059,-4.9059,-4.9059,-4.9059,-4.9059,-4.9059,-4.9059,-4.9059,-4.9059,-4.9059,-4.9059,-4.9059,-4.9059,-4.9059,-4.9059,-4.9059,-4.9059,-4.9059,-4.9059,-4.9059,-4.9059,-4.8973,-4.8802,-4.8716,-4.863,-4.8372,-4.7961,-4.7441,-4.7094,-4.6745,-4.6571,-4.6308,-4.6308,-4.6308,-4.6308,-4.6308,-4.6308,-4.6308,-4.6308,-4.6308,-4.6308,-4.6308,-4.6308,-4.6308,-4.6308,-4.6308,-4.6026,-4.5392,-4.5392,-4.5851,-4.5939,-4.6026,-4.6308,-4.6114,-4.5763,-4.4296,-4.212,-4.095,-4.0226,-3.7959,-3.5241,-3.5241,-3.5428,-3.5163,-3.471,-3.471,-3.471,-3.471,-3.471,-3.471,-3.471,-3.471,-3.471,-3.471,-3.471,-3.471,-3.471,-3.471,-3.471,-3.471,-3.471,-3.471,-3.471,-3.471,-3.471,-4.6266,-4.6266,-4.6266,-4.6266,-4.6287,-4.637,-4.6761,-4.7196,-4.7631,-4.8086,-4.8541,-4.8873,-4.9038,-4.9059,-4.9059,-4.9059,-4.9059,-4.9059,-4.9059,-4.9059,-4.9059,-4.9059,-4.9059,-4.9059,-4.9059,-4.9059,-4.9059,-4.9059,-4.9059,-4.9059,-4.9059,-4.9059,-4.9059,-4.9059,-4.9059,-4.9059,-4.9059,-4.9059,-4.9059,-4.9059,-4.9059,-4.9059,-4.9059,-4.9059,-4.9059,-4.9059,-4.9059,-4.9059,-4.9059,-4.9059,-4.9059,-4.8887,-4.8458,-4.8286,-4.8199,-4.8113,-4.7788,-4.7354,-4.7007,-4.6832,-4.6571,-4.6308,-4.6308,-4.6308,-4.6308,-4.6308,-4.6308,-4.6308,-4.6308,-4.6308,-4.6308,-4.6308,-4.6308,-4.6308,-4.6308,-4.6026,-4.5304,-4.458,-4.403,-4.4491,-4.5128,-4.5568,-4.5744,-4.5021,-4.458,-4.2854,-4.0662,-3.8951,-3.8051,-3.6699,-3.4882,-3.4789,-3.4803,-3.4897,-3.471,-3.471,-3.471,-3.471,-3.471,-3.471,-3.471,-3.471,-3.471,-3.471,-3.471,-3.471,-3.471,-3.471,-3.471,-3.471,-3.471,-3.471,-3.471,-3.471,-3.471,-4.6266,-4.6266,-4.6266,-4.6266,-4.6328,-4.6679,-4.7196,-4.7651,-4.8065,-4.8562,-4.8914,-4.9017,-4.9059,-4.9059,-4.9059,-4.9059,-4.9059,-4.9059,-4.9059,-4.9059,-4.9059,-4.9059,-4.9059,-4.9059,-4.9059,-4.9059,-4.9059,-4.9059,-4.9059,-4.9059,-4.9059,-4.9059,-4.9059,-4.9059,-4.9059,-4.9059,-4.9059,-4.9059,-4.9059,-4.9059,-4.9059,-4.9059,-4.9059,-4.9059,-4.9059,-4.9059,-4.9059,-4.9059,-4.9059,-4.9059,-4.9059,-4.8887,-4.8458,-4.7961,-4.7615,-4.7268,-4.7094,-4.692,-4.6483,-4.6483,-4.6483,-4.6308,-4.6308,-4.6308,-4.6308,-4.6308,-4.6308,-4.6308,-4.6308,-4.6308,-4.6308,-4.6308,-4.6308,-4.6114,-4.5851,-4.5021,-4.403,-4.2568,-4.212,-4.2031,-4.2389,-4.403,-4.4933,-4.403,-4.3033,-4.1203,-3.9391,-3.7775,-3.6421,-3.5428,-3.471,-3.471,-3.471,-3.471,-3.471,-3.471,-3.471,-3.471,-3.471,-3.471,-3.471,-3.471,-3.471,-3.471,-3.471,-3.471,-3.471,-3.471,-3.471,-3.471,-3.471,-3.471,-3.471,-3.471,-3.471,-4.6266,-4.6266,-4.6266,-4.6411,-4.6659,-4.6886,-4.7444,-4.8024,-4.8293,-4.8645,-4.8997,-4.9059,-4.9059,-4.9059,-4.9059,-4.9059,-4.9059,-4.9059,-4.9059,-4.9059,-4.9059,-4.9059,-4.9059,-4.9059,-4.9059,-4.9059,-4.9059,-4.9059,-4.9059,-4.9059,-4.9059,-4.9059,-4.9059,-4.9059,-4.9059,-4.9059,-4.9059,-4.9059,-4.9059,-4.9059,-4.9059,-4.9059,-4.9059,-4.9059,-4.9059,-4.9059,-4.9059,-4.9059,-4.9059,-4.9059,-4.9059,-4.8887,-4.8458,-4.7941,-4.7528,-4.7094,-4.6745,-4.6483,-4.6289,-4.6308,-4.6308,-4.6308,-4.6308,-4.6308,-4.6308,-4.6308,-4.6308,-4.6308,-4.6308,-4.6308,-4.6308,-4.6308,-4.5568,-4.5128,-4.4845,-4.3389,-4.212,-4.0662,-3.9755,-3.9664,-3.9755,-4.1203,-4.2389,-4.1851,-4.1221,-4.0571,-3.9043,-3.7591,-3.6421,-3.5615,-3.5069,-3.471,-3.471,-3.471,-3.471,-3.471,-3.471,-3.471,-3.471,-3.471,-3.471,-3.471,-3.471,-3.471,-3.471,-3.471,-3.471,-3.471,-3.471,-3.471,-3.471,-3.471,-3.471,-3.471,-3.471,-4.6266,-4.6266,-4.6266,-4.6535,-4.7051,-4.7134,-4.7631,-4.8334,-4.85,-4.8748,-4.8997,-4.9059,-4.9059,-4.9059,-4.9059,-4.9059,-4.9059,-4.9059,-4.9059,-4.9059,-4.9059,-4.9059,-4.9059,-4.9059,-4.9059,-4.9059,-4.9059,-4.9059,-4.9059,-4.9059,-4.9059,-4.9059,-4.9059,-4.9059,-4.9059,-4.9059,-4.9059,-4.9059,-4.9059,-4.9059,-4.9059,-4.9059,-4.9059,-4.9059,-4.9059,-4.9059,-4.9059,-4.9059,-4.9059,-4.9059,-4.9059,-4.8802,-4.8199,-4.7874,-4.7354,-4.692,-4.6483,-4.6396,-4.6308,-4.6308,-4.6308,-4.6308,-4.6308,-4.6308,-4.6308,-4.6308,-4.6308,-4.6308,-4.6308,-4.6308,-4.6221,-4.5939,-4.4845,-4.3852,-4.3033,-4.1581,-4.0209,-3.9043,-3.7867,-3.7407,-3.7407,-3.7591,-3.8602,-3.886,-3.9043,-3.9316,-3.8494,-3.7223,-3.6328,-3.5521,-3.5163,-3.471,-3.471,-3.471,-3.471,-3.471,-3.471,-3.471,-3.471,-3.471,-3.471,-3.471,-3.471,-3.471,-3.471,-3.471,-3.471,-3.471,-3.471,-3.471,-3.471,-3.471,-3.471,-3.471,-3.471,-4.6266,-4.6266,-4.6347,-4.6637,-4.7092,-4.7486,-4.792,-4.8459,-4.8831,-4.8997,-4.9059,-4.9059,-4.9059,-4.9059,-4.9059,-4.9059,-4.9059,-4.9059,-4.9059,-4.9059,-4.9059,-4.9059,-4.9059,-4.9059,-4.9059,-4.9059,-4.9059,-4.9059,-4.9059,-4.9059,-4.9059,-4.9059,-4.9059,-4.9059,-4.9059,-4.9059,-4.9059,-4.9059,-4.9059,-4.9059,-4.9059,-4.9059,-4.9059,-4.9059,-4.9059,-4.9059,-4.9059,-4.9059,-4.9059,-4.9059,-4.9059,-4.8716,-4.8113,-4.7788,-4.7354,-4.6745,-4.6396,-4.6308,-4.6308,-4.6308,-4.6308,-4.6308,-4.6308,-4.6308,-4.6308,-4.6308,-4.6308,-4.6308,-4.6308,-4.6308,-4.5763,-4.4845,-4.3941,-4.2658,-4.1491,-3.9681,-3.8585,-3.7959,-3.6776,-3.5521,-3.5428,-3.5972,-3.6065,-3.6699,-3.7146,-3.7499,-3.7054,-3.5786,-3.5615,-3.4976,-3.4882,-3.471,-3.471,-3.471,-3.471,-3.471,-3.471,-3.471,-3.471,-3.471,-3.471,-3.471,-3.471,-3.471,-3.471,-3.471,-3.471,-3.471,-3.471,-3.471,-3.471,-3.471,-3.471,-3.471,-3.471,-4.6432,-4.6782,-4.67,-4.703,-4.7465,-4.792,-4.8376,-4.8769,-4.8997,-4.9059,-4.9059,-4.9059,-4.9059,-4.9059,-4.9059,-4.9059,-4.9059,-4.9059,-4.9059,-4.9059,-4.9059,-4.9059,-4.9059,-4.9059,-4.9059,-4.9059,-4.9059,-4.9059,-4.9059,-4.9059,-4.9059,-4.9059,-4.9059,-4.9059,-4.9059,-4.9059,-4.9059,-4.9059,-4.9059,-4.9059,-4.9059,-4.9059,-4.9059,-4.9059,-4.9059,-4.9059,-4.9059,-4.9059,-4.9059,-4.9059,-4.9059,-4.863,-4.8027,-4.7788,-4.7354,-4.6745,-4.6464,-4.6308,-4.6308,-4.6308,-4.6308,-4.6308,-4.6308,-4.6308,-4.6308,-4.6308,-4.6308,-4.6308,-4.6308,-4.6308,-4.6026,-4.458,-4.3033,-4.1671,-3.9863,-3.7959,-3.6961,-3.6421,-3.6065,-3.5069,-3.4789,-3.5069,-3.4976,-3.4976,-3.5335,-3.56,-3.5069,-3.471,-3.471,-3.471,-3.471,-3.471,-3.471,-3.471,-3.471,-3.471,-3.471,-3.471,-3.471,-3.471,-3.471,-3.471,-3.471,-3.471,-3.471,-3.471,-3.471,-3.471,-3.471,-3.471,-3.471,-3.471,-3.471,-3.471,-3.471,-4.674,-4.7051,-4.732,-4.761,-4.792,-4.8231,-4.8645,-4.9017,-4.9059,-4.9059,-4.9059,-4.9059,-4.9059,-4.9059,-4.9059,-4.9059,-4.9059,-4.9059,-4.9059,-4.9059,-4.9059,-4.9059,-4.9059,-4.9059,-4.9059,-4.9059,-4.9059,-4.9059,-4.9059,-4.9059,-4.9059,-4.9059,-4.9059,-4.9059,-4.9059,-4.9059,-4.9059,-4.9059,-4.9059,-4.9059,-4.9059,-4.9059,-4.9059,-4.9059,-4.9059,-4.9059,-4.9059,-4.9059,-4.8973,-4.8887,-4.8802,-4.8544,-4.8113,-4.7595,-4.7268,-4.6832,-4.6571,-4.6308,-4.6308,-4.6308,-4.6308,-4.6308,-4.6308,-4.6308,-4.6308,-4.6308,-4.6308,-4.6308,-4.6308,-4.6221,-4.6026,-4.403,-4.221,-4.0752,-3.8051,-3.6158,-3.5708,-3.5256,-3.5163,-3.471,-3.471,-3.471,-3.471,-3.471,-3.4789,-3.5163,-3.4976,-3.471,-3.471,-3.471,-3.471,-3.471,-3.471,-3.471,-3.471,-3.471,-3.471,-3.471,-3.471,-3.471,-3.471,-3.471,-3.471,-3.471,-3.471,-3.471,-3.471,-3.4724,-3.4724,-3.471,-3.471,-3.471,-3.471,-3.471,-3.471,-4.703,-4.7154,-4.7962,-4.8314,-4.8355,-4.8376,-4.8645,-4.9038,-4.9059,-4.9059,-4.9059,-4.9059,-4.9059,-4.9059,-4.9059,-4.9059,-4.9059,-4.9059,-4.9059,-4.9059,-4.9059,-4.9059,-4.9059,-4.9059,-4.9059,-4.9059,-4.9059,-4.9059,-4.9059,-4.9183,-4.9142,-4.9183,-4.9266,-4.9224,-4.91,-4.908,-4.908,-4.908,-4.9121,-4.9121,-4.9059,-4.9059,-4.9059,-4.9059,-4.9059,-4.9059,-4.8973,-4.8973,-4.8802,-4.8458,-4.8458,-4.8027,-4.7354,-4.7181,-4.692,-4.6376,-4.6396,-4.6308,-4.6308,-4.6308,-4.6308,-4.6308,-4.6308,-4.6308,-4.6308,-4.6308,-4.6308,-4.6308,-4.6026,-4.6026,-4.4933,-4.3015,-4.1113,-3.9408,-3.6792,-3.5241,-3.4882,-3.471,-3.471,-3.471,-3.471,-3.471,-3.471,-3.471,-3.471,-3.4803,-3.471,-3.471,-3.471,-3.471,-3.471,-3.471,-3.471,-3.471,-3.471,-3.471,-3.471,-3.471,-3.471,-3.471,-3.471,-3.471,-3.471,-3.471,-3.4783,-3.4856,-3.4797,-3.4739,-3.4827,-3.49,-3.4739,-3.471,-3.471,-3.471,-3.471,-4.7217,-4.7527,-4.8127,-4.8562,-4.881,-4.8831,-4.8935,-4.9038,-4.9059,-4.9059,-4.9059,-4.9059,-4.9059,-4.9059,-4.9059,-4.9059,-4.9059,-4.9059,-4.9059,-4.9059,-4.9059,-4.9059,-4.9059,-4.9059,-4.9059,-4.9059,-4.9059,-4.91,-4.9059,-4.9349,-4.9514,-4.9556,-4.9742,-4.9783,-4.9701,-4.9721,-4.9866,-4.9576,-4.9494,-4.9411,-4.9121,-4.908,-4.9059,-4.9059,-4.9059,-4.8887,-4.863,-4.863,-4.8372,-4.8047,-4.7961,-4.7615,-4.7094,-4.692,-4.6745,-4.6396,-4.6308,-4.6308,-4.6308,-4.6308,-4.6308,-4.6221,-4.6308,-4.6308,-4.6308,-4.6308,-4.6308,-4.6026,-4.5392,-4.5021,-4.3745,-4.0752,-3.886,-3.8127,-3.6328,-3.5241,-3.471,-3.471,-3.471,-3.471,-3.471,-3.471,-3.471,-3.471,-3.471,-3.471,-3.471,-3.471,-3.471,-3.471,-3.471,-3.471,-3.471,-3.471,-3.471,-3.4753,-3.4783,-3.4783,-3.4753,-3.471,-3.471,-3.4812,-3.4797,-3.4856,-3.4929,-3.5002,-3.5031,-3.5061,-3.5119,-3.5119,-3.4988,-3.4783,-3.471,-3.471,-3.471,-4.7527,-4.7962,-4.8417,-4.879,-4.9038,-4.9059,-4.9059,-4.9059,-4.9059,-4.9059,-4.9059,-4.9059,-4.9059,-4.9059,-4.9059,-4.9059,-4.9059,-4.9059,-4.9059,-4.9059,-4.9059,-4.9059,-4.9059,-4.908,-4.9059,-4.91,-4.9245,-4.9328,-4.9369,-4.9783,-4.9949,-5.0094,-5.0425,-5.0446,-5.0363,-5.0342,-5.0239,-4.997,-4.9845,-4.9597,-4.9435,-4.9204,-4.8973,-4.8887,-4.8802,-4.863,-4.8286,-4.8113,-4.7941,-4.7615,-4.7354,-4.7268,-4.692,-4.6658,-4.6571,-4.6396,-4.6308,-4.5939,-4.5392,-4.6114,-4.5851,-4.5216,-4.5851,-4.6308,-4.6308,-4.6308,-4.6308,-4.5851,-4.4845,-4.403,-4.2944,-3.9681,-3.8127,-3.7499,-3.6143,-3.4976,-3.471,-3.471,-3.471,-3.471,-3.471,-3.471,-3.471,-3.471,-3.471,-3.471,-3.471,-3.4724,-3.4753,-3.4753,-3.4753,-3.4753,-3.4753,-3.4768,-3.4797,-3.4871,-3.4871,-3.4856,-3.49,-3.4929,-3.5061,-3.5222,-3.5105,-3.5031,-3.5207,-3.5339,-3.5368,-3.5412,-3.5441,-3.5383,-3.5266,-3.5046,-3.4783,-3.4753,-3.4797,-4.7962,-4.8417,-4.8873,-4.9038,-4.9059,-4.9059,-4.9059,-4.9059,-4.9059,-4.9059,-4.9059,-4.9059,-4.9059,-4.9059,-4.9059,-4.9059,-4.9059,-4.9059,-4.9059,-4.9059,-4.9059,-4.9059,-4.9186,-4.9207,-4.9204,-4.9307,-4.9494,-4.9783,-4.9825,-5.0218,-5.0446,-5.0591,-5.0943,-5.1025,-5.0963,-5.0818,-5.0611,-5.0425,-5.0218,-4.9928,-4.9725,-4.9262,-4.8925,-4.8671,-4.8372,-4.8113,-4.7854,-4.7615,-4.7441,-4.7181,-4.7007,-4.6745,-4.6483,-4.6201,-4.6201,-4.5939,-4.5763,-4.458,-4.3834,-4.4757,-4.4561,-4.3675,-4.4668,-4.5656,-4.6308,-4.6308,-4.6308,-4.5851,-4.504,-4.4118,-4.2925,-4.0662,-3.8494,-3.7238,-3.5693,-3.5069,-3.4803,-3.471,-3.471,-3.471,-3.471,-3.471,-3.471,-3.471,-3.4797,-3.4841,-3.4871,-3.4944,-3.4944,-3.4856,-3.4856,-3.4856,-3.4856,-3.4827,-3.49,-3.509,-3.5134,-3.5178,-3.5324,-3.5397,-3.5625,-3.564,-3.5412,-3.5397,-3.5654,-3.5786,-3.5807,-3.5792,-3.5734,-3.5661,-3.5588,-3.5383,-3.5134,-3.4988,-3.4973,-4.8252,-4.8417,-4.8873,-4.9059,-4.9059,-4.9059,-4.9059,-4.9059,-4.9059,-4.9059,-4.9059,-4.9059,-4.9059,-4.9059,-4.9059,-4.9059,-4.9059,-4.9059,-4.9059,-4.908,-4.9121,-4.908,-4.9269,-4.9476,-4.9494,-4.9721,-4.9949,-5.0239,-5.0342,-5.0694,-5.1129,-5.1419,-5.1439,-5.1543,-5.1522,-5.146,-5.1191,-5.0922,-5.0715,-5.0342,-4.9862,-4.9399,-4.8892,-4.8428,-4.8088,-4.7655,-4.7094,-4.7007,-4.6726,-4.6464,-4.6464,-4.6308,-4.6308,-4.5021,-4.3941,-4.23,-4.2031,-4.1851,-4.1491,-4.1851,-4.2031,-4.1671,-4.212,-4.3941,-4.5216,-4.5939,-4.5851,-4.5128,-4.3852,-4.2568,-4.1203,-3.9316,-3.7591,-3.6143,-3.5069,-3.4882,-3.471,-3.471,-3.471,-3.4724,-3.4724,-3.4797,-3.4783,-3.4841,-3.4914,-3.4988,-3.5061,-3.5134,-3.5163,-3.509,-3.5046,-3.5061,-3.5119,-3.5149,-3.5295,-3.5566,-3.5581,-3.5625,-3.5786,-3.586,-3.5734,-3.5719,-3.5772,-3.583,-3.5895,-3.6114,-3.6334,-3.6246,-3.61,-3.6012,-3.5939,-3.5719,-3.5514,-3.5353,-3.5251,-4.8479,-4.8666,-4.8955,-4.9059,-4.9059,-4.9059,-4.9059,-4.9059,-4.9059,-4.9059,-4.9059,-4.9059,-4.9059,-4.9059,-4.9059,-4.9059,-4.9059,-4.9059,-4.9059,-4.91,-4.9245,-4.9435,-4.958,-4.9763,-4.997,-5.0177,-5.0425,-5.0694,-5.0818,-5.1129,-5.1564,-5.1708,-5.1791,-5.1791,-5.175,-5.1708,-5.1626,-5.1398,-5.1129,-5.0688,-5.0161,-4.9548,-4.8958,-4.811,-4.7681,-4.699,-4.5763,-4.5675,-4.5392,-4.4933,-4.4757,-4.4473,-4.4384,-4.33,-4.212,-4.086,-4.0769,-4.03,-3.9755,-4.03,-4.0027,-3.9772,-4.0061,-4.1671,-4.2747,-4.3389,-4.3478,-4.3211,-4.1671,-4.0209,-3.886,-3.7407,-3.6143,-3.4789,-3.4803,-3.471,-3.471,-3.471,-3.4724,-3.4724,-3.4797,-3.4885,-3.4944,-3.5002,-3.5105,-3.5266,-3.5368,-3.5412,-3.5427,-3.5493,-3.5368,-3.5368,-3.5552,-3.564,-3.5786,-3.5889,-3.5822,-3.5895,-3.607,-3.61,-3.5997,-3.6027,-3.61,-3.6144,-3.6202,-3.6392,-3.6524,-3.6553,-3.6451,-3.6348,-3.6275,-3.6158,-3.5939,-3.569,-3.5617,-4.8686,-4.9124,-4.9059,-4.9059,-4.9059,-4.9059,-4.9059,-4.9059,-4.9059,-4.9059,-4.9059,-4.9059,-4.9059,-4.9059,-4.9059,-4.9059,-4.9059,-4.9059,-4.9162,-4.9142,-4.9473,-4.968,-4.9908,-5.0239,-5.0446,-5.0632,-5.088,-5.117,-5.1274,-5.1501,-5.1688,-5.1791,-5.1791,-5.1791,-5.1791,-5.1791,-5.1729,-5.1667,-5.1329,-5.093,-5.0408,-4.9834,-4.9025,-4.7583,-4.6894,-4.6157,-4.4038,-4.3266,-4.314,-4.2586,-4.212,-4.1851,-4.1581,-4.1311,-4.039,-3.964,-3.92,-3.8624,-3.812,-3.8613,-3.8521,-3.8581,-3.905,-3.9607,-4.0149,-4.1381,-4.1761,-4.1581,-4.03,-3.93,-3.8035,-3.6869,-3.56,-3.4882,-3.471,-3.471,-3.471,-3.4783,-3.4929,-3.4973,-3.5119,-3.5192,-3.5222,-3.5295,-3.5441,-3.5698,-3.569,-3.5705,-3.5792,-3.5778,-3.5801,-3.5705,-3.5851,-3.5953,-3.5968,-3.6056,-3.6129,-3.6246,-3.6378,-3.6436,-3.6319,-3.6422,-3.6583,-3.6509,-3.6407,-3.6495,-3.6597,-3.6597,-3.6597,-3.6553,-3.6509,-3.6568,-3.6378,-3.607,-3.5997,-4.8955,-4.9059,-4.9059,-4.9059,-4.9059,-4.9059,-4.9059,-4.9059,-4.9059,-4.9059,-4.9059,-4.9059,-4.9059,-4.9059,-4.9059,-4.908,-4.9121,-4.9183,-4.9393,-4.9535,-4.9804,-5.0094,-5.0301,-5.0715,-5.0922,-5.1108,-5.1336,-5.1584,-5.1605,-5.1729,-5.1791,-5.1791,-5.1791,-5.1791,-5.1791,-5.1791,-5.1791,-5.1791,-5.1195,-5.0748,-5.0053,-4.9482,-4.8683,-4.66,-4.5306,-4.4033,-4.2417,-4.1565,-4.1374,-4.1019,-4.086,-4.0118,-3.9026,-3.8585,-3.7591,-3.656,-3.673,-3.6541,-3.657,-3.685,-3.6847,-3.664,-3.675,-3.678,-3.7586,-3.9382,-4.0169,-3.9805,-3.9275,-3.8283,-3.747,-3.6297,-3.5488,-3.5128,-3.4768,-3.4768,-3.4768,-3.4944,-3.5149,-3.528,-3.5537,-3.5514,-3.5544,-3.5646,-3.5778,-3.588,-3.5968,-3.6056,-3.6246,-3.629,-3.6114,-3.6114,-3.629,-3.6378,-3.6334,-3.629,-3.6348,-3.6407,-3.6509,-3.6568,-3.6612,-3.6612,-3.6612,-3.6612,-3.6583,-3.6612,-3.6612,-3.6612,-3.6612,-3.6612,-3.6612,-3.6612,-3.6612,-3.6363,-3.6392,-4.9059,-4.9059,-4.9059,-4.9059,-4.9059,-4.9059,-4.9059,-4.9059,-4.9059,-4.9059,-4.9059,-4.9059,-4.9059,-4.9059,-4.9059,-4.9245,-4.9307,-4.9369,-4.968,-4.997,-5.0259,-5.0529,-5.0839,-5.117,-5.1357,-5.1522,-5.1626,-5.1771,-5.1791,-5.1791,-5.1791,-5.1791,-5.1791,-5.1791,-5.1791,-5.1791,-5.1791,-5.1791,-5.0843,-4.9751,-4.9057,-4.8379,-4.6922,-4.4764,-4.3289,-4.2017,-4.079,-3.9912,-3.9812,-3.969,-3.9422,-3.8164,-3.7024,-3.6421,-3.597,-3.5464,-3.5345,-3.5222,-3.5383,-3.5544,-3.5786,-3.5801,-3.5757,-3.6244,-3.6119,-3.7727,-3.7805,-3.7523,-3.7445,-3.6613,-3.6613,-3.5792,-3.5617,-3.5331,-3.5236,-3.5236,-3.5251,-3.5324,-3.5427,-3.5581,-3.5661,-3.5851,-3.5924,-3.61,-3.6202,-3.6261,-3.6319,-3.6305,-3.6509,-3.6612,-3.648,-3.6422,-3.6524,-3.6583,-3.6509,-3.6495,-3.6524,-3.6583,-3.6612,-3.6612,-3.6612,-3.6612,-3.6612,-3.6612,-3.6612,-3.6612,-3.6612,-3.6612,-3.6612,-3.6612,-3.6612,-3.6612,-3.6612,-3.6612,-3.6568,-4.9059,-4.9059,-4.9059,-4.9059,-4.9059,-4.9059,-4.9059,-4.9059,-4.9059,-4.9059,-4.9059,-4.9059,-4.9059,-4.9059,-4.9162,-4.9452,-4.9659,-4.9783,-5.0094,-5.0508,-5.086,-5.1025,-5.1253,-5.1564,-5.1667,-5.1708,-5.1771,-5.1791,-5.1791,-5.1791,-5.1791,-5.1791,-5.1791,-5.1791,-5.1791,-5.1791,-5.1701,-5.0843,-4.9616,-4.7714,-4.7064,-4.6616,-4.4674,-4.2992,-4.1643,-4.0528,-3.91,-3.8324,-3.8229,-3.8151,-3.7852,-3.6913,-3.6024,-3.543,-3.5424,-3.5207,-3.5353,-3.5529,-3.5675,-3.5822,-3.5851,-3.5822,-3.586,-3.586,-3.586,-3.5956,-3.6023,-3.6008,-3.5912,-3.5809,-3.5809,-3.5809,-3.5713,-3.5713,-3.5713,-3.5757,-3.5675,-3.5705,-3.5719,-3.5845,-3.5939,-3.6158,-3.6275,-3.6466,-3.6524,-3.6583,-3.6612,-3.6612,-3.6612,-3.6612,-3.6553,-3.6509,-3.6568,-3.6597,-3.6612,-3.6612,-3.6612,-3.6612,-3.6612,-3.6612,-3.6612,-3.6612,-3.6612,-3.6612,-3.6612,-3.6612,-3.6612,-3.6612,-3.6612,-3.6612,-3.6612,-3.6612,-3.6612,-3.6612,-3.6612,-4.9059,-4.9059,-4.9059,-4.9059,-4.9059,-4.9059,-4.9059,-4.9059,-4.9059,-4.9059,-4.9059,-4.9059,-4.9059,-4.908,-4.9494,-4.9783,-4.997,-5.0156,-5.0549,-5.0984,-5.115,-5.1377,-5.1564,-5.1708,-5.1771,-5.1791,-5.1791,-5.1791,-5.1791,-5.1791,-5.1791,-5.1791,-5.1791,-5.1791,-5.1812,-5.161,-5.1046,-5.0002,-4.8196,-4.6299,-4.4039,-4.3296,-4.2611,-4.1202,-4.0142,-3.8598,-3.7266,-3.6609,-3.6431,-3.6267,-3.634,-3.5964,-3.5684,-3.5339,-3.5427,-3.5544,-3.569,-3.5866,-3.6012,-3.6187,-3.6217,-3.6275,-3.6275,-3.629,-3.6305,-3.6305,-3.6373,-3.63,-3.6212,-3.5904,-3.5845,-3.5845,-3.5845,-3.5845,-3.5845,-3.588,-3.5968,-3.6027,-3.6085,-3.6202,-3.6363,-3.6451,-3.6466,-3.6568,-3.6568,-3.6612,-3.6612,-3.6612,-3.6612,-3.6612,-3.6612,-3.6612,-3.6612,-3.6612,-3.6612,-3.6612,-3.6612,-3.6612,-3.6612,-3.6612,-3.6612,-3.6612,-3.6612,-3.6612,-3.6612,-3.6612,-3.6612,-3.6612,-3.6612,-3.6612,-3.6612,-3.6612,-3.6612,-3.6612,-3.6612]}]]